| time (UTC) | temp C | wind direction | speed KPH | gust KPH | rain 1hr cm | rain 24hr cm | rain mn cm | humidity % | barometer mb |
| 20260510130309 | 7 | 355 | 3.2 | 8.0 | 0.00 | 0.00 | 0.00 | 72 | 1020.2 |
| 20260510130215 | 7 | 330 | 3.2 | 8.0 | 0.00 | 0.00 | 0.00 | 72 | 1020.2 |
| 20260510130117 | 7 | 330 | 4.8 | 8.0 | 0.00 | 0.00 | 0.00 | 72 | 1020.2 |
| 20260510130022 | 7 | 355 | 4.8 | 8.0 | 0.00 | 0.00 | 0.00 | 72 | 1020.2 |
| 20260510125907 | 7 | 5 | 4.8 | 8.0 | 0.00 | 0.00 | 0.00 | 72 | 1020.2 |
| 20260510125811 | 7 | 5 | 4.8 | 8.0 | 0.00 | 0.00 | 0.00 | 71 | 1020.2 |
| 20260510125719 | 7 | 9 | 4.8 | 8.0 | 0.00 | 0.00 | 0.00 | 71 | 1020.1 |
| 20260510125525 | 6 | 343 | 4.8 | 8.0 | 0.00 | 0.00 | 0.00 | 72 | 1020.2 |
| 20260510125430 | 6 | 32 | 4.8 | 6.4 | 0.00 | 0.00 | 0.00 | 73 | 1020.2 |
| 20260510125333 | 6 | 16 | 4.8 | 6.4 | 0.00 | 0.00 | 0.00 | 73 | 1020.2 |
| 20260510125215 | 6 | 5 | 4.8 | 6.4 | 0.00 | 0.00 | 0.00 | 73 | 1020.1 |
| 20260510125117 | 6 | 5 | 3.2 | 6.4 | 0.00 | 0.00 | 0.00 | 73 | 1020.1 |
| 20260510125044 | 6 | 5 | 3.2 | 6.4 | 0.00 | 0.00 | 0.00 | 73 | 1020.1 |
| 20260510124925 | 6 | 9 | 3.2 | 6.4 | 0.00 | 0.00 | 0.00 | 73 | 1020.1 |
| 20260510124809 | 6 | 10 | 3.2 | 4.8 | 0.00 | 0.00 | 0.00 | 74 | 1020.1 |
| 20260510124713 | 6 | 9 | 3.2 | 6.4 | 0.00 | 0.00 | 0.00 | 75 | 1020.1 |
| 20260510124617 | 6 | 24 | 1.6 | 6.4 | 0.00 | 0.00 | 0.00 | 75 | 1020.0 |
| 20260510124520 | 6 | 24 | 1.6 | 6.4 | 0.00 | 0.00 | 0.00 | 75 | 1020.0 |
| 20260510124408 | 6 | 24 | 3.2 | 6.4 | 0.00 | 0.00 | 0.00 | 75 | 1020.1 |
| 20260510124312 | 6 | 24 | 3.2 | 6.4 | 0.00 | 0.00 | 0.00 | 75 | 1020.0 |
| 20260510124236 | 6 | 24 | 3.2 | 6.4 | 0.00 | 0.00 | 0.00 | 75 | 1020.0 |
| 20260510124011 | 6 | 319 | 4.8 | 6.4 | 0.00 | 0.00 | 0.00 | 77 | 1020.0 |
| 20260510123914 | 6 | 319 | 4.8 | 6.4 | 0.00 | 0.00 | 0.00 | 77 | 1020.0 |
| 20260510123818 | 6 | 355 | 3.2 | 6.4 | 0.00 | 0.00 | 0.00 | 78 | 1020.0 |
| 20260510123725 | 6 | 267 | 1.6 | 6.4 | 0.00 | 0.00 | 0.00 | 78 | 1020.0 |
| 20260510123609 | 6 | 267 | 3.2 | 6.4 | 0.00 | 0.00 | 0.00 | 79 | 1020.0 |
| 20260510123514 | 6 | 267 | 3.2 | 6.4 | 0.00 | 0.00 | 0.00 | 79 | 1020.0 |
| 20260510123417 | 6 | 267 | 3.2 | 6.4 | 0.00 | 0.00 | 0.00 | 80 | 1019.9 |
| 20260510123320 | 5 | 267 | 1.6 | 3.2 | 0.00 | 0.00 | 0.00 | 80 | 1019.9 |
| 20260510123223 | 5 | 267 | 0.0 | 3.2 | 0.00 | 0.00 | 0.00 | 80 | 1019.8 |
| 20260510123111 | 5 | 267 | 1.6 | 3.2 | 0.00 | 0.00 | 0.00 | 80 | 1019.8 |
| 20260510123036 | 5 | 267 | 1.6 | 3.2 | 0.00 | 0.00 | 0.00 | 80 | 1019.8 |
| 20260510122918 | 5 | 267 | 1.6 | 3.2 | 0.00 | 0.00 | 0.00 | 80 | 1019.8 |
| 20260510122841 | 5 | 267 | 1.6 | 3.2 | 0.00 | 0.00 | 0.00 | 80 | 1019.7 |
| 20260510122723 | 5 | 267 | 3.2 | 4.8 | 0.00 | 0.00 | 0.00 | 81 | 1019.7 |
| 20260510122608 | 5 | 267 | 1.6 | 4.8 | 0.00 | 0.00 | 0.00 | 81 | 1019.8 |
| 20260510122511 | 5 | 267 | 1.6 | 4.8 | 0.00 | 0.00 | 0.00 | 82 | 1019.8 |
| 20260510122439 | 5 | 267 | 1.6 | 4.8 | 0.00 | 0.00 | 0.00 | 82 | 1019.8 |
| 20260510122322 | 5 | 267 | 1.6 | 4.8 | 0.00 | 0.00 | 0.00 | 83 | 1019.7 |
| 20260510122226 | 5 | 267 | 0.0 | 4.8 | 0.00 | 0.00 | 0.00 | 83 | 1019.7 |
| 20260510122109 | 5 | 267 | 1.6 | 4.8 | 0.00 | 0.00 | 0.00 | 84 | 1019.7 |
| 20260510122013 | 5 | 267 | 3.2 | 4.8 | 0.00 | 0.00 | 0.00 | 84 | 1019.6 |
| 20260510121917 | 5 | 267 | 3.2 | 4.8 | 0.00 | 0.00 | 0.00 | 85 | 1019.6 |
| 20260510121840 | 5 | 267 | 1.6 | 3.2 | 0.00 | 0.00 | 0.00 | 86 | 1019.6 |
| 20260510121747 | 4 | 267 | 0.0 | 3.2 | 0.00 | 0.00 | 0.00 | 86 | 1019.6 |
| 20260510121609 | 4 | 267 | 0.0 | 3.2 | 0.00 | 0.00 | 0.00 | 86 | 1019.7 |
| 20260510121534 | 4 | 267 | 1.6 | 3.2 | 0.00 | 0.00 | 0.00 | 86 | 1019.7 |
| 20260510121417 | 4 | 267 | 1.6 | 3.2 | 0.00 | 0.00 | 0.00 | 87 | 1019.8 |
| 20260510121321 | 4 | 267 | 1.6 | 3.2 | 0.00 | 0.00 | 0.00 | 87 | 1019.7 |
| 20260510121225 | 4 | 267 | 0.0 | 0.0 | 0.00 | 0.00 | 0.00 | 87 | 1019.7 |
| 20260510121129 | 4 | 267 | 0.0 | 0.0 | 0.00 | 0.00 | 0.00 | 87 | 1019.7 |
| 20260510121016 | 4 | 267 | 0.0 | 0.0 | 0.00 | 0.00 | 0.00 | 87 | 1019.6 |
| 20260510120920 | 4 | 267 | 0.0 | 0.0 | 0.00 | 0.00 | 0.00 | 87 | 1019.6 |
| 20260510120825 | 4 | 267 | 0.0 | 0.0 | 0.00 | 0.00 | 0.00 | 87 | 1019.6 |
| 20260510120707 | 4 | 267 | 0.0 | 0.0 | 0.00 | 0.00 | 0.00 | 87 | 1019.6 |
| 20260510120631 | 4 | 267 | 0.0 | 0.0 | 0.00 | 0.00 | 0.00 | 87 | 1019.5 |
| 20260510120514 | 3 | 267 | 0.0 | 0.0 | 0.00 | 0.00 | 0.00 | 87 | 1019.5 |
| 20260510120437 | 3 | 267 | 0.0 | 0.0 | 0.00 | 0.00 | 0.00 | 88 | 1019.5 |
| 20260510120323 | 3 | 267 | 0.0 | 0.0 | 0.00 | 0.00 | 0.00 | 88 | 1019.5 |
| 20260510120207 | 3 | 267 | 0.0 | 1.6 | 0.00 | 0.00 | 0.00 | 87 | 1019.5 |
| 20260510120111 | 3 | 267 | 0.0 | 3.2 | 0.00 | 0.00 | 0.00 | 87 | 1019.5 |
| 20260510120034 | 3 | 267 | 0.0 | 3.2 | 0.00 | 0.00 | 0.00 | 87 | 1019.5 |
| 20260510115917 | 3 | 267 | 0.0 | 3.2 | 0.00 | 0.00 | 0.00 | 87 | 1019.4 |
| 20260510115820 | 3 | 267 | 0.0 | 3.2 | 0.00 | 0.00 | 0.00 | 87 | 1019.3 |
| 20260510115708 | 3 | 267 | 0.0 | 3.2 | 0.00 | 0.00 | 0.00 | 87 | 1019.4 |
| 20260510115611 | 3 | 267 | 0.0 | 3.2 | 0.00 | 0.00 | 0.00 | 88 | 1019.4 |
| 20260510115535 | 3 | 267 | 0.0 | 3.2 | 0.00 | 0.00 | 0.00 | 88 | 1019.4 |
| 20260510115419 | 3 | 267 | 0.0 | 3.2 | 0.00 | 0.00 | 0.00 | 88 | 1019.4 |
| 20260510115323 | 3 | 267 | 0.0 | 3.2 | 0.00 | 0.00 | 0.00 | 88 | 1019.4 |
| 20260510115227 | 3 | 267 | 1.6 | 3.2 | 0.00 | 0.00 | 0.00 | 88 | 1019.4 |
| 20260510115115 | 3 | 267 | 1.6 | 3.2 | 0.00 | 0.00 | 0.00 | 88 | 1019.4 |
| 20260510115019 | 3 | 267 | 0.0 | 4.8 | 0.00 | 0.00 | 0.00 | 88 | 1019.3 |
| 20260510114942 | 3 | 267 | 0.0 | 4.8 | 0.00 | 0.00 | 0.00 | 88 | 1019.3 |
| 20260510114825 | 3 | 267 | 0.0 | 4.8 | 0.00 | 0.00 | 0.00 | 88 | 1019.3 |
| 20260510114728 | 3 | 267 | 1.6 | 4.8 | 0.00 | 0.00 | 0.00 | 88 | 1019.4 |
| 20260510114652 | 3 | 267 | 1.6 | 4.8 | 0.00 | 0.00 | 0.00 | 89 | 1019.3 |
| 20260510114508 | 3 | 267 | 1.6 | 4.8 | 0.00 | 0.00 | 0.00 | 89 | 1019.3 |
| 20260510114432 | 3 | 267 | 3.2 | 4.8 | 0.00 | 0.00 | 0.00 | 89 | 1019.4 |
| 20260510114339 | 3 | 267 | 3.2 | 4.8 | 0.00 | 0.00 | 0.00 | 89 | 1019.3 |
| 20260510114221 | 3 | 267 | 3.2 | 4.8 | 0.00 | 0.00 | 0.00 | 89 | 1019.4 |
| 20260510114126 | 3 | 66 | 3.2 | 3.2 | 0.00 | 0.00 | 0.00 | 89 | 1019.3 |
| 20260510114009 | 3 | 66 | 1.6 | 3.2 | 0.00 | 0.00 | 0.00 | 89 | 1019.3 |
| 20260510113934 | 3 | 66 | 3.2 | 3.2 | 0.00 | 0.00 | 0.00 | 89 | 1019.3 |
| 20260510113810 | 3 | 66 | 1.6 | 3.2 | 0.00 | 0.00 | 0.00 | 89 | 1019.2 |
| 20260510113718 | 3 | 66 | 1.6 | 3.2 | 0.00 | 0.00 | 0.00 | 89 | 1019.3 |
| 20260510113622 | 3 | 66 | 3.2 | 3.2 | 0.00 | 0.00 | 0.00 | 89 | 1019.3 |
| 20260510113526 | 3 | 66 | 1.6 | 3.2 | 0.00 | 0.00 | 0.00 | 89 | 1019.3 |
| 20260510113450 | 3 | 66 | 1.6 | 3.2 | 0.00 | 0.00 | 0.00 | 89 | 1019.3 |
| 20260510113306 | 3 | 66 | 1.6 | 3.2 | 0.00 | 0.00 | 0.00 | 89 | 1019.3 |
| 20260510113210 | 3 | 66 | 1.6 | 3.2 | 0.00 | 0.00 | 0.00 | 89 | 1019.3 |
| 20260510113115 | 3 | 66 | 1.6 | 3.2 | 0.00 | 0.00 | 0.00 | 89 | 1019.2 |
| 20260510113023 | 3 | 66 | 1.6 | 3.2 | 0.00 | 0.00 | 0.00 | 89 | 1019.2 |
| 20260510112926 | 3 | 66 | 1.6 | 3.2 | 0.00 | 0.00 | 0.00 | 89 | 1019.1 |
| 20260510112830 | 3 | 66 | 1.6 | 3.2 | 0.00 | 0.00 | 0.00 | 89 | 1019.2 |
| 20260510112731 | 3 | 66 | 3.2 | 3.2 | 0.00 | 0.00 | 0.00 | 89 | 1019.2 |
| 20260510112633 | 3 | 66 | 3.2 | 3.2 | 0.00 | 0.00 | 0.00 | 89 | 1019.2 |
| 20260510112537 | 2 | 66 | 3.2 | 3.2 | 0.00 | 0.00 | 0.00 | 89 | 1019.1 |
| 20260510112418 | 2 | 66 | 3.2 | 3.2 | 0.00 | 0.00 | 0.00 | 89 | 1019.1 |
| 20260510112321 | 2 | 66 | 3.2 | 3.2 | 0.00 | 0.00 | 0.00 | 89 | 1019.1 |
| 20260510112229 | 2 | 66 | 1.6 | 3.2 | 0.00 | 0.00 | 0.00 | 89 | 1019.1 |
| 20260510112132 | 2 | 66 | 1.6 | 3.2 | 0.00 | 0.00 | 0.00 | 88 | 1018.9 |
| 20260510112033 | 2 | 66 | 1.6 | 3.2 | 0.00 | 0.00 | 0.00 | 88 | 1018.9 |
| 20260510111915 | 2 | 66 | 1.6 | 3.2 | 0.00 | 0.00 | 0.00 | 88 | 1018.9 |
| 20260510111819 | 2 | 66 | 3.2 | 3.2 | 0.00 | 0.00 | 0.00 | 88 | 1018.9 |
| 20260510111742 | 2 | 66 | 3.2 | 3.2 | 0.00 | 0.00 | 0.00 | 88 | 1018.9 |
| 20260510111625 | 2 | 66 | 3.2 | 3.2 | 0.00 | 0.00 | 0.00 | 89 | 1019.0 |
| 20260510111511 | 2 | 66 | 3.2 | 3.2 | 0.00 | 0.00 | 0.00 | 89 | 1019.0 |
| 20260510111414 | 2 | 66 | 1.6 | 3.2 | 0.00 | 0.00 | 0.00 | 89 | 1018.9 |
| 20260510111317 | 2 | 66 | 1.6 | 3.2 | 0.00 | 0.00 | 0.00 | 89 | 1018.9 |
| 20260510111240 | 2 | 48 | 1.6 | 3.2 | 0.00 | 0.00 | 0.00 | 89 | 1018.9 |
| 20260510111121 | 2 | 49 | 1.6 | 3.2 | 0.00 | 0.00 | 0.00 | 89 | 1018.8 |
| 20260510111046 | 2 | 49 | 0.0 | 1.6 | 0.00 | 0.00 | 0.00 | 89 | 1018.8 |
| 20260510110840 | 2 | 46 | 0.0 | 3.2 | 0.00 | 0.00 | 0.00 | 88 | 1018.9 |
| 20260510110741 | 2 | 46 | 0.0 | 3.2 | 0.00 | 0.00 | 0.00 | 88 | 1018.8 |
| 20260510110609 | 2 | 46 | 0.0 | 3.2 | 0.00 | 0.00 | 0.00 | 89 | 1018.8 |
| 20260510110512 | 2 | 46 | 0.0 | 3.2 | 0.00 | 0.00 | 0.00 | 88 | 1018.8 |
| 20260510110415 | 2 | 46 | 1.6 | 3.2 | 0.00 | 0.00 | 0.00 | 88 | 1018.8 |
| 20260510110319 | 2 | 46 | 1.6 | 3.2 | 0.00 | 0.00 | 0.00 | 89 | 1018.9 |
| 20260510110222 | 2 | 46 | 1.6 | 3.2 | 0.00 | 0.00 | 0.00 | 89 | 1018.7 |
| 20260510110127 | 2 | 46 | 1.6 | 3.2 | 0.00 | 0.08 | 0.00 | 89 | 1018.8 |
| 20260510110046 | 2 | 46 | 1.6 | 1.6 | 0.00 | 0.08 | 0.00 | 88 | 1018.8 |
| 20260510105932 | 2 | 46 | 1.6 | 1.6 | 0.00 | 0.08 | 0.00 | 88 | 1018.8 |
| 20260510105808 | 2 | 46 | 1.6 | 3.2 | 0.00 | 0.08 | 0.00 | 88 | 1018.8 |
| 20260510105711 | 2 | 46 | 1.6 | 3.2 | 0.00 | 0.08 | 0.00 | 88 | 1018.8 |
| 20260510105614 | 2 | 46 | 0.0 | 3.2 | 0.00 | 0.08 | 0.00 | 88 | 1018.8 |
| 20260510105538 | 2 | 46 | 0.0 | 3.2 | 0.00 | 0.08 | 0.00 | 88 | 1018.7 |
| 20260510105419 | 2 | 46 | 0.0 | 3.2 | 0.00 | 0.08 | 0.00 | 88 | 1018.7 |
| 20260510105344 | 2 | 46 | 0.0 | 3.2 | 0.00 | 0.08 | 0.00 | 88 | 1018.7 |
| 20260510105209 | 2 | 46 | 0.0 | 3.2 | 0.00 | 0.08 | 0.00 | 88 | 1018.7 |
| 20260510105112 | 2 | 46 | 1.6 | 3.2 | 0.00 | 0.08 | 0.00 | 88 | 1018.7 |
| 20260510105016 | 2 | 46 | 1.6 | 3.2 | 0.00 | 0.08 | 0.00 | 88 | 1018.7 |
| 20260510104918 | 2 | 46 | 1.6 | 3.2 | 0.00 | 0.08 | 0.00 | 88 | 1018.7 |
| 20260510104823 | 2 | 46 | 1.6 | 3.2 | 0.00 | 0.08 | 0.00 | 88 | 1018.7 |
| 20260510104725 | 2 | 46 | 1.6 | 3.2 | 0.00 | 0.08 | 0.00 | 88 | 1018.6 |
| 20260510104632 | 2 | 46 | 1.6 | 3.2 | 0.00 | 0.08 | 0.00 | 88 | 1018.7 |
| 20260510104508 | 2 | 46 | 1.6 | 3.2 | 0.00 | 0.08 | 0.00 | 88 | 1018.7 |
| 20260510104411 | 2 | 46 | 1.6 | 3.2 | 0.00 | 0.08 | 0.00 | 89 | 1018.6 |
| 20260510104314 | 2 | 46 | 1.6 | 3.2 | 0.00 | 0.08 | 0.00 | 88 | 1018.6 |
| 20260510104217 | 2 | 46 | 1.6 | 3.2 | 0.00 | 0.08 | 0.00 | 88 | 1018.7 |
| 20260510104119 | 2 | 46 | 1.6 | 3.2 | 0.00 | 0.08 | 0.00 | 88 | 1018.6 |
| 20260510104027 | 2 | 46 | 1.6 | 3.2 | 0.00 | 0.08 | 0.00 | 89 | 1018.4 |
| 20260510103930 | 2 | 46 | 1.6 | 3.2 | 0.00 | 0.08 | 0.00 | 89 | 1018.5 |
| 20260510103806 | 2 | 46 | 1.6 | 3.2 | 0.00 | 0.08 | 0.00 | 89 | 1018.6 |
| 20260510103730 | 2 | 46 | 1.6 | 3.2 | 0.00 | 0.08 | 0.00 | 89 | 1018.5 |
| 20260510103611 | 2 | 46 | 1.6 | 3.2 | 0.00 | 0.08 | 0.00 | 89 | 1018.6 |
| 20260510103535 | 2 | 46 | 3.2 | 3.2 | 0.00 | 0.08 | 0.00 | 89 | 1018.5 |
| 20260510103417 | 2 | 46 | 1.6 | 3.2 | 0.00 | 0.08 | 0.00 | 88 | 1018.5 |
| 20260510103320 | 2 | 46 | 0.0 | 3.2 | 0.00 | 0.08 | 0.00 | 88 | 1018.4 |
| 20260510103207 | 2 | 46 | 0.0 | 1.6 | 0.00 | 0.08 | 0.00 | 88 | 1018.5 |
| 20260510103111 | 2 | 46 | 0.0 | 1.6 | 0.00 | 0.08 | 0.00 | 88 | 1018.5 |
| 20260510103035 | 2 | 46 | 0.0 | 1.6 | 0.00 | 0.08 | 0.00 | 88 | 1018.4 |
| 20260510102916 | 2 | 46 | 0.0 | 3.2 | 0.00 | 0.08 | 0.00 | 88 | 1018.4 |
| 20260510102820 | 2 | 46 | 0.0 | 3.2 | 0.00 | 0.08 | 0.00 | 88 | 1018.4 |
| 20260510102743 | 2 | 46 | 1.6 | 3.2 | 0.00 | 0.08 | 0.00 | 88 | 1018.3 |
| 20260510102609 | 2 | 46 | 1.6 | 3.2 | 0.00 | 0.08 | 0.00 | 88 | 1018.4 |
| 20260510102532 | 2 | 46 | 1.6 | 3.2 | 0.00 | 0.08 | 0.00 | 88 | 1018.3 |
| 20260510102408 | 2 | 46 | 1.6 | 3.2 | 0.00 | 0.08 | 0.00 | 88 | 1018.3 |
| 20260510102311 | 2 | 46 | 1.6 | 3.2 | 0.00 | 0.08 | 0.00 | 88 | 1018.3 |
| 20260510102216 | 2 | 46 | 1.6 | 3.2 | 0.00 | 0.08 | 0.00 | 88 | 1018.3 |
| 20260510102118 | 2 | 46 | 1.6 | 3.2 | 0.00 | 0.08 | 0.00 | 88 | 1018.2 |
| 20260510102041 | 2 | 46 | 1.6 | 3.2 | 0.00 | 0.08 | 0.00 | 88 | 1018.3 |
| 20260510101909 | 2 | 46 | 1.6 | 3.2 | 0.00 | 0.08 | 0.00 | 88 | 1018.2 |
| 20260510101831 | 2 | 46 | 1.6 | 3.2 | 0.00 | 0.08 | 0.00 | 88 | 1018.3 |
| 20260510101707 | 2 | 46 | 1.6 | 3.2 | 0.00 | 0.08 | 0.00 | 88 | 1018.3 |
| 20260510101631 | 2 | 46 | 1.6 | 3.2 | 0.00 | 0.08 | 0.00 | 88 | 1018.3 |
| 20260510101507 | 2 | 46 | 1.6 | 3.2 | 0.00 | 0.08 | 0.00 | 88 | 1018.2 |
| 20260510101410 | 2 | 46 | 1.6 | 3.2 | 0.00 | 0.08 | 0.00 | 88 | 1018.2 |
| 20260510101317 | 2 | 46 | 1.6 | 3.2 | 0.00 | 0.08 | 0.00 | 88 | 1018.2 |
| 20260510101220 | 2 | 46 | 1.6 | 3.2 | 0.00 | 0.08 | 0.00 | 88 | 1018.2 |
| 20260510101123 | 2 | 46 | 1.6 | 3.2 | 0.00 | 0.08 | 0.00 | 88 | 1018.2 |
| 20260510101028 | 2 | 46 | 1.6 | 3.2 | 0.00 | 0.08 | 0.00 | 88 | 1018.2 |
| 20260510100909 | 2 | 46 | 3.2 | 3.2 | 0.00 | 0.08 | 0.00 | 88 | 1018.2 |
| 20260510100812 | 2 | 46 | 1.6 | 3.2 | 0.00 | 0.08 | 0.00 | 88 | 1018.2 |
| 20260510100715 | 2 | 46 | 1.6 | 3.2 | 0.00 | 0.08 | 0.00 | 88 | 1018.2 |
| 20260510100642 | 2 | 46 | 1.6 | 3.2 | 0.00 | 0.08 | 0.00 | 88 | 1018.2 |
| 20260510100525 | 2 | 46 | 1.6 | 3.2 | 0.00 | 0.08 | 0.00 | 88 | 1018.2 |
| 20260510100430 | 2 | 46 | 1.6 | 3.2 | 0.00 | 0.08 | 0.00 | 88 | 1018.1 |
| 20260510100313 | 2 | 46 | 1.6 | 3.2 | 0.00 | 0.08 | 0.00 | 88 | 1018.2 |
| 20260510100238 | 1 | 46 | 0.0 | 3.2 | 0.00 | 0.08 | 0.00 | 88 | 1018.0 |
| 20260510100121 | 1 | 46 | 0.0 | 1.6 | 0.00 | 0.08 | 0.00 | 88 | 1018.1 |
| 20260510100025 | 1 | 46 | 1.6 | 1.6 | 0.00 | 0.08 | 0.00 | 88 | 1018.0 |
| 20260510095933 | 1 | 46 | 1.6 | 1.6 | 0.00 | 0.08 | 0.00 | 88 | 1018.0 |
| 20260510095810 | 1 | 46 | 0.0 | 4.8 | 0.00 | 0.08 | 0.00 | 88 | 1018.1 |
| 20260510095734 | 1 | 46 | 0.0 | 4.8 | 0.00 | 0.08 | 0.00 | 88 | 1018.1 |
| 20260510095618 | 1 | 46 | 0.0 | 4.8 | 0.00 | 0.08 | 0.00 | 88 | 1018.1 |
| 20260510095543 | 1 | 46 | 0.0 | 4.8 | 0.00 | 0.08 | 0.00 | 88 | 1018.0 |
| 20260510095426 | 1 | 46 | 0.0 | 4.8 | 0.00 | 0.08 | 0.00 | 88 | 1018.0 |
| 20260510095311 | 1 | 46 | 0.0 | 4.8 | 0.00 | 0.08 | 0.00 | 88 | 1018.0 |
| 20260510095219 | 1 | 46 | 0.0 | 4.8 | 0.00 | 0.08 | 0.00 | 88 | 1018.0 |
| 20260510095124 | 1 | 46 | 1.6 | 4.8 | 0.00 | 0.08 | 0.00 | 88 | 1018.0 |
| 20260510095008 | 1 | 46 | 3.2 | 4.8 | 0.00 | 0.08 | 0.00 | 88 | 1018.0 |
| 20260510094933 | 1 | 46 | 3.2 | 4.8 | 0.00 | 0.08 | 0.00 | 88 | 1018.0 |
| 20260510094817 | 1 | 46 | 3.2 | 4.8 | 0.00 | 0.08 | 0.00 | 88 | 1018.0 |
| 20260510094720 | 1 | 46 | 4.8 | 4.8 | 0.00 | 0.08 | 0.00 | 88 | 1018.0 |
| 20260510094608 | 1 | 46 | 3.2 | 4.8 | 0.00 | 0.08 | 0.00 | 88 | 1018.0 |
| 20260510094533 | 1 | 46 | 1.6 | 4.8 | 0.00 | 0.08 | 0.00 | 88 | 1017.9 |
| 20260510094416 | 1 | 44 | 0.0 | 4.8 | 0.00 | 0.08 | 0.00 | 88 | 1017.9 |
| 20260510094321 | 1 | 38 | 0.0 | 0.0 | 0.00 | 0.08 | 0.00 | 88 | 1017.9 |
| 20260510094224 | 1 | 38 | 0.0 | 0.0 | 0.00 | 0.08 | 0.00 | 88 | 1017.9 |
| 20260510094109 | 1 | 38 | 0.0 | 0.0 | 0.00 | 0.08 | 0.00 | 88 | 1017.8 |
| 20260510094018 | 1 | 38 | 0.0 | 0.0 | 0.00 | 0.08 | 0.00 | 88 | 1017.8 |
| 20260510093921 | 1 | 38 | 0.0 | 0.0 | 0.00 | 0.08 | 0.00 | 88 | 1017.7 |
| 20260510093826 | 1 | 38 | 0.0 | 0.0 | 0.00 | 0.08 | 0.00 | 89 | 1017.8 |
| 20260510093711 | 1 | 38 | 0.0 | 0.0 | 0.00 | 0.08 | 0.00 | 89 | 1017.7 |
| 20260510093615 | 1 | 38 | 0.0 | 0.0 | 0.00 | 0.08 | 0.00 | 89 | 1017.8 |
| 20260510093518 | 1 | 38 | 0.0 | 0.0 | 0.00 | 0.08 | 0.00 | 89 | 1017.7 |
| 20260510093407 | 1 | 38 | 0.0 | 0.0 | 0.00 | 0.08 | 0.00 | 89 | 1017.8 |
| 20260510093332 | 1 | 38 | 0.0 | 0.0 | 0.00 | 0.08 | 0.00 | 89 | 1017.8 |
| 20260510093208 | 1 | 38 | 0.0 | 0.0 | 0.00 | 0.08 | 0.00 | 89 | 1017.7 |
| 20260510093132 | 1 | 38 | 0.0 | 0.0 | 0.00 | 0.08 | 0.00 | 89 | 1017.7 |
| 20260510093010 | 1 | 38 | 0.0 | 0.0 | 0.00 | 0.08 | 0.00 | 89 | 1017.7 |
| 20260510092914 | 1 | 38 | 0.0 | 0.0 | 0.00 | 0.08 | 0.00 | 88 | 1017.7 |
| 20260510092839 | 1 | 38 | 0.0 | 0.0 | 0.00 | 0.08 | 0.00 | 88 | 1017.7 |
| 20260510092726 | 1 | 38 | 0.0 | 0.0 | 0.00 | 0.08 | 0.00 | 88 | 1017.7 |
| 20260510092631 | 1 | 38 | 0.0 | 0.0 | 0.00 | 0.08 | 0.00 | 88 | 1017.7 |
| 20260510092507 | 1 | 38 | 0.0 | 0.0 | 0.00 | 0.08 | 0.00 | 88 | 1017.6 |
| 20260510092413 | 1 | 38 | 0.0 | 0.0 | 0.00 | 0.08 | 0.00 | 88 | 1017.7 |
| 20260510092317 | 1 | 38 | 0.0 | 0.0 | 0.00 | 0.08 | 0.00 | 88 | 1017.6 |
| 20260510092207 | 1 | 38 | 0.0 | 0.0 | 0.00 | 0.08 | 0.00 | 88 | 1017.6 |
| 20260510092113 | 1 | 38 | 0.0 | 0.0 | 0.00 | 0.08 | 0.00 | 89 | 1017.7 |
| 20260510092019 | 1 | 38 | 0.0 | 0.0 | 0.00 | 0.08 | 0.00 | 88 | 1017.7 |
| 20260510091923 | 1 | 38 | 0.0 | 0.0 | 0.00 | 0.08 | 0.00 | 89 | 1017.7 |
| 20260510091807 | 1 | 38 | 0.0 | 0.0 | 0.00 | 0.08 | 0.00 | 89 | 1017.6 |
| 20260510091713 | 1 | 38 | 0.0 | 0.0 | 0.00 | 0.08 | 0.00 | 89 | 1017.6 |
| 20260510091639 | 1 | 38 | 0.0 | 0.0 | 0.00 | 0.08 | 0.00 | 89 | 1017.6 |
| 20260510091546 | 1 | 38 | 0.0 | 0.0 | 0.00 | 0.08 | 0.00 | 89 | 1017.6 |
| 20260510091411 | 1 | 38 | 0.0 | 0.0 | 0.00 | 0.08 | 0.00 | 89 | 1017.6 |
| 20260510091316 | 1 | 38 | 0.0 | 0.0 | 0.00 | 0.08 | 0.00 | 89 | 1017.6 |
| 20260510091220 | 1 | 38 | 0.0 | 0.0 | 0.00 | 0.08 | 0.00 | 89 | 1017.6 |
| 20260510091124 | 1 | 38 | 0.0 | 0.0 | 0.00 | 0.08 | 0.00 | 89 | 1017.6 |
| 20260510091009 | 1 | 38 | 0.0 | 0.0 | 0.00 | 0.08 | 0.00 | 89 | 1017.6 |
| 20260510090917 | 1 | 38 | 0.0 | 0.0 | 0.00 | 0.08 | 0.00 | 89 | 1017.6 |
| 20260510090841 | 1 | 38 | 0.0 | 0.0 | 0.00 | 0.08 | 0.00 | 89 | 1017.6 |
| 20260510090724 | 1 | 38 | 0.0 | 0.0 | 0.00 | 0.08 | 0.00 | 89 | 1017.6 |
| 20260510090646 | 1 | 38 | 0.0 | 0.0 | 0.00 | 0.08 | 0.00 | 89 | 1017.5 |
| 20260510090509 | 1 | 38 | 0.0 | 0.0 | 0.00 | 0.08 | 0.00 | 88 | 1017.5 |
| 20260510090412 | 1 | 38 | 0.0 | 0.0 | 0.00 | 0.08 | 0.00 | 88 | 1017.5 |
| 20260510090316 | 1 | 38 | 0.0 | 0.0 | 0.00 | 0.08 | 0.00 | 88 | 1017.4 |
| 20260510090224 | 1 | 38 | 0.0 | 0.0 | 0.00 | 0.08 | 0.00 | 89 | 1017.4 |
| 20260510090147 | 1 | 38 | 0.0 | 0.0 | 0.00 | 0.08 | 0.00 | 89 | 1017.4 |
| 20260510090030 | 1 | 38 | 0.0 | 0.0 | 0.00 | 0.08 | 0.00 | 89 | 1017.4 |
| 20260510085933 | 1 | 38 | 0.0 | 0.0 | 0.00 | 0.08 | 0.00 | 89 | 1017.3 |
| 20260510085817 | 1 | 38 | 0.0 | 0.0 | 0.00 | 0.08 | 0.00 | 89 | 1017.3 |
| 20260510085719 | 1 | 38 | 0.0 | 0.0 | 0.00 | 0.08 | 0.00 | 89 | 1017.3 |
| 20260510085622 | 1 | 38 | 0.0 | 0.0 | 0.00 | 0.08 | 0.00 | 89 | 1017.2 |
| 20260510085509 | 1 | 38 | 0.0 | 0.0 | 0.00 | 0.08 | 0.00 | 89 | 1017.3 |
| 20260510085413 | 1 | 38 | 0.0 | 0.0 | 0.00 | 0.08 | 0.00 | 89 | 1017.2 |
| 20260510085315 | 1 | 38 | 0.0 | 0.0 | 0.00 | 0.08 | 0.00 | 89 | 1017.2 |
| 20260510085218 | 1 | 38 | 0.0 | 0.0 | 0.00 | 0.08 | 0.00 | 89 | 1017.2 |
| 20260510085141 | 1 | 38 | 0.0 | 0.0 | 0.00 | 0.08 | 0.00 | 89 | 1017.3 |
| 20260510085023 | 1 | 38 | 0.0 | 0.0 | 0.00 | 0.08 | 0.00 | 89 | 1017.1 |
| 20260510084910 | 1 | 38 | 0.0 | 0.0 | 0.00 | 0.08 | 0.00 | 89 | 1017.2 |
| 20260510084834 | 1 | 38 | 0.0 | 0.0 | 0.00 | 0.08 | 0.00 | 89 | 1017.1 |
| 20260510084709 | 1 | 38 | 0.0 | 0.0 | 0.00 | 0.08 | 0.00 | 89 | 1017.1 |
| 20260510084612 | 1 | 38 | 0.0 | 0.0 | 0.00 | 0.08 | 0.00 | 89 | 1017.2 |
| 20260510084516 | 1 | 38 | 0.0 | 0.0 | 0.00 | 0.08 | 0.00 | 89 | 1017.1 |
| 20260510084418 | 1 | 38 | 0.0 | 0.0 | 0.00 | 0.08 | 0.00 | 89 | 1017.1 |
| 20260510084320 | 1 | 38 | 0.0 | 0.0 | 0.00 | 0.08 | 0.00 | 89 | 1017.1 |
| 20260510084208 | 1 | 38 | 0.0 | 0.0 | 0.00 | 0.08 | 0.00 | 89 | 1017.1 |
| 20260510084111 | 1 | 38 | 0.0 | 0.0 | 0.00 | 0.08 | 0.00 | 89 | 1017.1 |
| 20260510084013 | 1 | 38 | 0.0 | 0.0 | 0.00 | 0.08 | 0.00 | 89 | 1017.2 |
| 20260510083916 | 1 | 38 | 0.0 | 0.0 | 0.00 | 0.08 | 0.00 | 89 | 1017.1 |
| 20260510083820 | 1 | 38 | 0.0 | 0.0 | 0.00 | 0.08 | 0.00 | 89 | 1017.1 |
| 20260510083742 | 1 | 38 | 0.0 | 0.0 | 0.00 | 0.08 | 0.00 | 89 | 1017.2 |
| 20260510083608 | 1 | 38 | 0.0 | 1.6 | 0.00 | 0.08 | 0.00 | 89 | 1017.1 |
| 20260510083533 | 1 | 38 | 0.0 | 1.6 | 0.00 | 0.08 | 0.00 | 90 | 1017.1 |
| 20260510083408 | 1 | 38 | 0.0 | 1.6 | 0.00 | 0.08 | 0.00 | 89 | 1017.1 |
| 20260510083313 | 1 | 38 | 0.0 | 1.6 | 0.00 | 0.08 | 0.00 | 90 | 1017.1 |
| 20260510083215 | 1 | 38 | 0.0 | 1.6 | 0.00 | 0.08 | 0.00 | 90 | 1017.0 |
| 20260510083117 | 1 | 38 | 0.0 | 1.6 | 0.00 | 0.08 | 0.00 | 89 | 1016.9 |
| 20260510083041 | 1 | 38 | 0.0 | 1.6 | 0.00 | 0.08 | 0.00 | 89 | 1016.9 |
| 20260510082907 | 1 | 38 | 0.0 | 1.6 | 0.00 | 0.08 | 0.00 | 89 | 1016.9 |
| 20260510082810 | 1 | 38 | 1.6 | 1.6 | 0.00 | 0.08 | 0.00 | 89 | 1016.9 |
| 20260510082713 | 1 | 38 | 1.6 | 1.6 | 0.00 | 0.08 | 0.00 | 89 | 1016.8 |
| 20260510082617 | 1 | 38 | 0.0 | 1.6 | 0.00 | 0.08 | 0.00 | 89 | 1016.8 |
| 20260510082541 | 1 | 38 | 0.0 | 0.0 | 0.00 | 0.08 | 0.00 | 88 | 1016.8 |
| 20260510082423 | 1 | 38 | 0.0 | 0.0 | 0.00 | 0.08 | 0.00 | 88 | 1016.7 |
| 20260510082347 | 1 | 38 | 0.0 | 0.0 | 0.00 | 0.08 | 0.00 | 88 | 1016.7 |
| 20260510082254 | 1 | 38 | 0.0 | 0.0 | 0.00 | 0.08 | 0.00 | 88 | 1016.6 |
| 20260510082109 | 1 | 38 | 0.0 | 0.0 | 0.00 | 0.08 | 0.00 | 88 | 1016.6 |
| 20260510082032 | 1 | 38 | 0.0 | 1.6 | 0.00 | 0.08 | 0.00 | 88 | 1016.7 |
| 20260510081908 | 1 | 38 | 0.0 | 1.6 | 0.00 | 0.08 | 0.00 | 88 | 1016.7 |
| 20260510081811 | 1 | 38 | 0.0 | 1.6 | 0.00 | 0.08 | 0.00 | 88 | 1016.7 |
| 20260510081714 | 1 | 38 | 0.0 | 1.6 | 0.00 | 0.08 | 0.00 | 88 | 1016.7 |
| 20260510081621 | 1 | 38 | 0.0 | 1.6 | 0.00 | 0.08 | 0.00 | 88 | 1016.6 |
| 20260510081525 | 1 | 38 | 0.0 | 1.6 | 0.00 | 0.08 | 0.00 | 88 | 1016.6 |
| 20260510081428 | 0 | 38 | 0.0 | 1.6 | 0.00 | 0.08 | 0.00 | 88 | 1016.7 |
| 20260510081310 | 0 | 38 | 0.0 | 1.6 | 0.00 | 0.08 | 0.00 | 88 | 1016.6 |
| 20260510081233 | 0 | 38 | 0.0 | 1.6 | 0.00 | 0.08 | 0.00 | 88 | 1016.7 |
| 20260510081109 | 0 | 38 | 0.0 | 0.0 | 0.00 | 0.08 | 0.00 | 87 | 1016.6 |
| 20260510081012 | 1 | 38 | 0.0 | 1.6 | 0.00 | 0.08 | 0.00 | 87 | 1016.6 |
| 20260510080940 | 1 | 38 | 0.0 | 1.6 | 0.00 | 0.08 | 0.00 | 87 | 1016.6 |
| 20260510080821 | 1 | 38 | 0.0 | 1.6 | 0.00 | 0.08 | 0.00 | 87 | 1016.6 |
| 20260510080745 | 1 | 38 | 0.0 | 3.2 | 0.00 | 0.08 | 0.00 | 87 | 1016.5 |
| 20260510080629 | 1 | 38 | 0.0 | 3.2 | 0.00 | 0.08 | 0.00 | 87 | 1016.5 |
| 20260510080510 | 1 | 38 | 0.0 | 3.2 | 0.00 | 0.08 | 0.00 | 87 | 1016.6 |
| 20260510080414 | 1 | 38 | 0.0 | 3.2 | 0.00 | 0.08 | 0.00 | 87 | 1016.5 |
| 20260510080316 | 1 | 38 | 0.0 | 3.2 | 0.00 | 0.08 | 0.00 | 87 | 1016.5 |
| 20260510080239 | 1 | 38 | 0.0 | 3.2 | 0.00 | 0.08 | 0.00 | 88 | 1016.5 |
| 20260510080125 | 1 | 38 | 1.6 | 3.2 | 0.00 | 0.08 | 0.00 | 87 | 1016.5 |
| 20260510080010 | 1 | 38 | 1.6 | 3.2 | 0.00 | 0.08 | 0.00 | 87 | 1016.5 |
| 20260510075914 | 1 | 38 | 1.6 | 3.2 | 0.00 | 0.08 | 0.00 | 87 | 1016.5 |
| 20260510075817 | 1 | 38 | 0.0 | 1.6 | 0.00 | 0.08 | 0.00 | 87 | 1016.5 |
| 20260510075742 | 1 | 38 | 0.0 | 0.0 | 0.00 | 0.08 | 0.00 | 87 | 1016.5 |
| 20260510075624 | 1 | 38 | 0.0 | 0.0 | 0.00 | 0.08 | 0.00 | 87 | 1016.5 |
| 20260510075548 | 1 | 38 | 0.0 | 0.0 | 0.00 | 0.08 | 0.00 | 87 | 1016.4 |
| 20260510075453 | 1 | 38 | 0.0 | 0.0 | 0.00 | 0.08 | 0.00 | 87 | 1016.5 |
| 20260510075310 | 1 | 38 | 0.0 | 0.0 | 0.00 | 0.08 | 0.00 | 87 | 1016.5 |
| 20260510075233 | 1 | 38 | 0.0 | 0.0 | 0.00 | 0.08 | 0.00 | 86 | 1016.5 |
| 20260510075110 | 1 | 38 | 0.0 | 0.0 | 0.00 | 0.08 | 0.00 | 86 | 1016.4 |
| 20260510075034 | 1 | 38 | 0.0 | 0.0 | 0.00 | 0.08 | 0.00 | 86 | 1016.5 |
| 20260510074917 | 1 | 38 | 0.0 | 0.0 | 0.00 | 0.08 | 0.00 | 86 | 1016.5 |
| 20260510074821 | 1 | 38 | 0.0 | 0.0 | 0.00 | 0.08 | 0.00 | 85 | 1016.5 |
| 20260510074709 | 1 | 38 | 0.0 | 0.0 | 0.00 | 0.08 | 0.00 | 85 | 1016.5 |
| 20260510074633 | 1 | 38 | 0.0 | 0.0 | 0.00 | 0.08 | 0.00 | 85 | 1016.5 |
| 20260510074509 | 1 | 38 | 0.0 | 0.0 | 0.00 | 0.08 | 0.00 | 86 | 1016.5 |
| 20260510074433 | 1 | 38 | 0.0 | 0.0 | 0.00 | 0.08 | 0.00 | 86 | 1016.5 |
| 20260510074316 | 1 | 38 | 0.0 | 0.0 | 0.00 | 0.08 | 0.00 | 85 | 1016.5 |
| 20260510074221 | 1 | 38 | 0.0 | 0.0 | 0.00 | 0.08 | 0.00 | 85 | 1016.5 |
| 20260510074109 | 1 | 38 | 0.0 | 0.0 | 0.00 | 0.08 | 0.00 | 86 | 1016.6 |
| 20260510074033 | 1 | 38 | 0.0 | 0.0 | 0.00 | 0.08 | 0.00 | 86 | 1016.5 |
| 20260510073917 | 1 | 38 | 0.0 | 0.0 | 0.00 | 0.08 | 0.00 | 86 | 1016.5 |
| 20260510073821 | 1 | 38 | 0.0 | 0.0 | 0.00 | 0.08 | 0.00 | 86 | 1016.5 |
| 20260510073726 | 1 | 38 | 0.0 | 0.0 | 0.00 | 0.08 | 0.00 | 86 | 1016.5 |
| 20260510073609 | 1 | 38 | 0.0 | 0.0 | 0.00 | 0.08 | 0.00 | 86 | 1016.5 |
| 20260510073518 | 1 | 38 | 0.0 | 0.0 | 0.00 | 0.08 | 0.00 | 86 | 1016.5 |
| 20260510073422 | 1 | 38 | 0.0 | 0.0 | 0.00 | 0.08 | 0.00 | 86 | 1016.5 |
| 20260510073326 | 1 | 38 | 0.0 | 0.0 | 0.00 | 0.08 | 0.00 | 86 | 1016.5 |
| 20260510073230 | 1 | 38 | 0.0 | 0.0 | 0.00 | 0.08 | 0.00 | 86 | 1016.5 |
| 20260510073133 | 1 | 38 | 0.0 | 0.0 | 0.00 | 0.08 | 0.00 | 86 | 1016.6 |
| 20260510073018 | 1 | 38 | 0.0 | 0.0 | 0.00 | 0.08 | 0.00 | 86 | 1016.5 |
| 20260510072942 | 1 | 38 | 0.0 | 0.0 | 0.00 | 0.08 | 0.00 | 86 | 1016.5 |
| 20260510072810 | 1 | 38 | 0.0 | 0.0 | 0.00 | 0.08 | 0.00 | 86 | 1016.6 |
| 20260510072714 | 1 | 38 | 0.0 | 0.0 | 0.00 | 0.08 | 0.00 | 86 | 1016.6 |
| 20260510072618 | 1 | 38 | 0.0 | 0.0 | 0.00 | 0.08 | 0.00 | 86 | 1016.5 |
| 20260510072522 | 1 | 38 | 0.0 | 0.0 | 0.00 | 0.08 | 0.00 | 86 | 1016.6 |
| 20260510072426 | 1 | 38 | 0.0 | 0.0 | 0.00 | 0.08 | 0.00 | 86 | 1016.6 |
| 20260510072309 | 1 | 38 | 0.0 | 0.0 | 0.00 | 0.08 | 0.00 | 86 | 1016.6 |
| 20260510072218 | 1 | 38 | 0.0 | 0.0 | 0.00 | 0.08 | 0.00 | 85 | 1016.6 |
| 20260510072122 | 1 | 38 | 0.0 | 0.0 | 0.00 | 0.08 | 0.00 | 85 | 1016.5 |
| 20260510072007 | 1 | 38 | 0.0 | 0.0 | 0.00 | 0.08 | 0.00 | 85 | 1016.6 |
| 20260510071911 | 1 | 38 | 0.0 | 0.0 | 0.00 | 0.08 | 0.00 | 85 | 1016.5 |
| 20260510071816 | 1 | 38 | 0.0 | 0.0 | 0.00 | 0.08 | 0.00 | 85 | 1016.6 |
| 20260510071720 | 1 | 38 | 0.0 | 0.0 | 0.00 | 0.08 | 0.00 | 85 | 1016.5 |
| 20260510071608 | 1 | 38 | 0.0 | 0.0 | 0.00 | 0.08 | 0.00 | 85 | 1016.5 |
| 20260510071512 | 1 | 38 | 0.0 | 0.0 | 0.00 | 0.08 | 0.00 | 86 | 1016.5 |
| 20260510071417 | 1 | 38 | 0.0 | 0.0 | 0.00 | 0.08 | 0.00 | 86 | 1016.5 |
| 20260510071322 | 1 | 38 | 0.0 | 0.0 | 0.00 | 0.08 | 0.00 | 86 | 1016.5 |
| 20260510071247 | 1 | 38 | 0.0 | 0.0 | 0.00 | 0.08 | 0.00 | 85 | 1016.5 |
| 20260510071110 | 1 | 38 | 0.0 | 0.0 | 0.00 | 0.08 | 0.00 | 85 | 1016.5 |
| 20260510071019 | 1 | 38 | 0.0 | 0.0 | 0.00 | 0.08 | 0.00 | 85 | 1016.5 |
| 20260510070943 | 1 | 38 | 0.0 | 0.0 | 0.00 | 0.08 | 0.00 | 85 | 1016.5 |
| 20260510070826 | 1 | 38 | 0.0 | 0.0 | 0.00 | 0.08 | 0.00 | 85 | 1016.5 |
| 20260510070710 | 1 | 38 | 0.0 | 0.0 | 0.00 | 0.08 | 0.00 | 85 | 1016.6 |
| 20260510070632 | 1 | 38 | 0.0 | 0.0 | 0.00 | 0.08 | 0.00 | 85 | 1016.5 |
| 20260510070536 | 1 | 38 | 0.0 | 0.0 | 0.00 | 0.08 | 0.00 | 85 | 1016.5 |
| 20260510070439 | 1 | 38 | 0.0 | 0.0 | 0.00 | 0.08 | 0.00 | 85 | 1016.6 |
| 20260510070323 | 1 | 38 | 0.0 | 0.0 | 0.00 | 0.08 | 0.00 | 85 | 1016.6 |
| 20260510070211 | 1 | 38 | 0.0 | 0.0 | 0.00 | 0.08 | 0.00 | 86 | 1016.6 |
| 20260510070115 | 1 | 38 | 0.0 | 0.0 | 0.00 | 0.08 | 0.00 | 86 | 1016.5 |
| 20260510070019 | 1 | 38 | 0.0 | 0.0 | 0.00 | 0.08 | 0.00 | 86 | 1016.6 |
| 20260510065943 | 2 | 38 | 0.0 | 1.6 | 0.00 | 0.08 | 0.00 | 86 | 1016.6 |
| 20260510065826 | 1 | 38 | 0.0 | 1.6 | 0.00 | 0.08 | 0.00 | 85 | 1016.6 |
| 20260510065709 | 2 | 38 | 0.0 | 1.6 | 0.00 | 0.08 | 0.00 | 85 | 1016.5 |
| 20260510065634 | 2 | 38 | 0.0 | 1.6 | 0.00 | 0.08 | 0.00 | 85 | 1016.5 |
| 20260510065523 | 1 | 38 | 0.0 | 1.6 | 0.00 | 0.08 | 0.00 | 85 | 1016.6 |
| 20260510065407 | 2 | 38 | 0.0 | 3.2 | 0.00 | 0.08 | 0.00 | 85 | 1016.5 |
| 20260510065312 | 1 | 38 | 0.0 | 3.2 | 0.00 | 0.08 | 0.00 | 85 | 1016.5 |
| 20260510065216 | 1 | 38 | 0.0 | 3.2 | 0.00 | 0.08 | 0.00 | 84 | 1016.5 |
| 20260510065140 | 2 | 38 | 0.0 | 3.2 | 0.00 | 0.08 | 0.00 | 84 | 1016.6 |
| 20260510065024 | 2 | 38 | 1.6 | 3.2 | 0.00 | 0.08 | 0.00 | 84 | 1016.6 |
| 20260510064931 | 2 | 38 | 1.6 | 3.2 | 0.00 | 0.08 | 0.00 | 84 | 1016.5 |
| 20260510064835 | 2 | 38 | 1.6 | 3.2 | 0.00 | 0.08 | 0.00 | 83 | 1016.6 |
| 20260510064717 | 2 | 38 | 1.6 | 3.2 | 0.00 | 0.08 | 0.00 | 84 | 1016.5 |
| 20260510064622 | 2 | 38 | 1.6 | 3.2 | 0.00 | 0.08 | 0.00 | 84 | 1016.5 |
| 20260510064507 | 2 | 38 | 1.6 | 3.2 | 0.00 | 0.08 | 0.00 | 83 | 1016.5 |
| 20260510064411 | 2 | 38 | 0.0 | 3.2 | 0.00 | 0.08 | 0.00 | 83 | 1016.5 |
| 20260510064336 | 2 | 38 | 0.0 | 0.0 | 0.00 | 0.08 | 0.00 | 83 | 1016.6 |
| 20260510064240 | 2 | 38 | 0.0 | 0.0 | 0.00 | 0.08 | 0.00 | 83 | 1016.5 |
| 20260510064107 | 2 | 38 | 0.0 | 0.0 | 0.00 | 0.08 | 0.00 | 82 | 1016.5 |
| 20260510064031 | 2 | 38 | 0.0 | 0.0 | 0.00 | 0.08 | 0.00 | 82 | 1016.5 |
| 20260510063915 | 2 | 38 | 0.0 | 0.0 | 0.00 | 0.08 | 0.00 | 82 | 1016.5 |
| 20260510063819 | 2 | 38 | 0.0 | 0.0 | 0.00 | 0.08 | 0.00 | 82 | 1016.5 |
| 20260510063743 | 2 | 38 | 0.0 | 0.0 | 0.00 | 0.08 | 0.00 | 81 | 1016.5 |
| 20260510063626 | 2 | 38 | 0.0 | 0.0 | 0.00 | 0.08 | 0.00 | 81 | 1016.5 |
| 20260510063514 | 2 | 38 | 0.0 | 0.0 | 0.00 | 0.08 | 0.00 | 81 | 1016.5 |
| 20260510063418 | 2 | 38 | 0.0 | 0.0 | 0.00 | 0.08 | 0.00 | 81 | 1016.5 |
| 20260510063320 | 2 | 38 | 0.0 | 0.0 | 0.00 | 0.08 | 0.00 | 81 | 1016.5 |
| 20260510063224 | 2 | 38 | 0.0 | 0.0 | 0.00 | 0.08 | 0.00 | 81 | 1016.5 |
| 20260510063110 | 2 | 38 | 0.0 | 0.0 | 0.00 | 0.08 | 0.00 | 81 | 1016.4 |
| 20260510063014 | 2 | 38 | 0.0 | 0.0 | 0.00 | 0.08 | 0.00 | 81 | 1016.4 |
| 20260510062922 | 2 | 38 | 0.0 | 0.0 | 0.00 | 0.08 | 0.00 | 81 | 1016.5 |
| 20260510062807 | 2 | 38 | 0.0 | 0.0 | 0.00 | 0.08 | 0.00 | 81 | 1016.4 |
| 20260510062731 | 2 | 38 | 0.0 | 0.0 | 0.00 | 0.08 | 0.00 | 81 | 1016.5 |
| 20260510062615 | 2 | 38 | 0.0 | 0.0 | 0.00 | 0.08 | 0.00 | 81 | 1016.5 |
| 20260510062519 | 2 | 38 | 0.0 | 0.0 | 0.00 | 0.08 | 0.00 | 81 | 1016.5 |
| 20260510062422 | 2 | 38 | 0.0 | 0.0 | 0.00 | 0.08 | 0.00 | 81 | 1016.5 |
| 20260510062310 | 2 | 38 | 0.0 | 0.0 | 0.00 | 0.08 | 0.00 | 81 | 1016.4 |
| 20260510062234 | 2 | 38 | 0.0 | 0.0 | 0.00 | 0.08 | 0.00 | 81 | 1016.5 |
| 20260510062109 | 2 | 38 | 0.0 | 0.0 | 0.00 | 0.08 | 0.00 | 81 | 1016.5 |
| 20260510062015 | 2 | 38 | 0.0 | 0.0 | 0.00 | 0.08 | 0.00 | 81 | 1016.5 |
| 20260510061917 | 2 | 38 | 0.0 | 0.0 | 0.00 | 0.08 | 0.00 | 81 | 1016.5 |
| 20260510061823 | 2 | 38 | 0.0 | 0.0 | 0.00 | 0.08 | 0.00 | 81 | 1016.5 |
| 20260510061727 | 2 | 38 | 0.0 | 0.0 | 0.00 | 0.08 | 0.00 | 81 | 1016.5 |
| 20260510061655 | 2 | 38 | 0.0 | 0.0 | 0.00 | 0.08 | 0.00 | 81 | 1016.4 |
| 20260510061510 | 2 | 38 | 0.0 | 0.0 | 0.00 | 0.08 | 0.00 | 80 | 1016.4 |
| 20260510061433 | 2 | 38 | 0.0 | 0.0 | 0.00 | 0.08 | 0.00 | 80 | 1016.4 |
| 20260510061309 | 2 | 38 | 0.0 | 0.0 | 0.00 | 0.08 | 0.00 | 80 | 1016.4 |
| 20260510061233 | 2 | 38 | 0.0 | 0.0 | 0.00 | 0.08 | 0.00 | 80 | 1016.5 |
| 20260510061136 | 2 | 38 | 0.0 | 0.0 | 0.00 | 0.08 | 0.00 | 80 | 1016.5 |
| 20260510061019 | 2 | 38 | 0.0 | 0.0 | 0.00 | 0.08 | 0.00 | 80 | 1016.4 |
| 20260510060909 | 2 | 38 | 0.0 | 0.0 | 0.00 | 0.08 | 0.00 | 80 | 1016.4 |
| 20260510060814 | 2 | 38 | 0.0 | 0.0 | 0.00 | 0.08 | 0.00 | 80 | 1016.4 |
| 20260510060718 | 2 | 38 | 0.0 | 0.0 | 0.00 | 0.08 | 0.00 | 80 | 1016.4 |
| 20260510060623 | 2 | 38 | 0.0 | 0.0 | 0.00 | 0.08 | 0.00 | 80 | 1016.4 |
| 20260510060507 | 2 | 38 | 0.0 | 0.0 | 0.00 | 0.08 | 0.00 | 80 | 1016.4 |
| 20260510060411 | 2 | 38 | 0.0 | 0.0 | 0.00 | 0.08 | 0.00 | 80 | 1016.4 |
| 20260510060319 | 2 | 38 | 0.0 | 0.0 | 0.00 | 0.08 | 0.00 | 80 | 1016.4 |
| 20260510060224 | 2 | 38 | 0.0 | 0.0 | 0.00 | 0.08 | 0.00 | 79 | 1016.4 |
| 20260510060128 | 2 | 38 | 0.0 | 0.0 | 0.00 | 0.08 | 0.00 | 79 | 1016.4 |
| 20260510060011 | 2 | 38 | 0.0 | 0.0 | 0.00 | 0.08 | 0.00 | 79 | 1016.4 |
| 20260510055916 | 3 | 38 | 0.0 | 0.0 | 0.00 | 0.08 | 0.00 | 79 | 1016.4 |
| 20260510055821 | 3 | 38 | 0.0 | 0.0 | 0.00 | 0.08 | 0.00 | 79 | 1016.4 |
| 20260510055710 | 3 | 38 | 0.0 | 0.0 | 0.00 | 0.08 | 0.00 | 79 | 1016.4 |
| 20260510055613 | 3 | 38 | 0.0 | 0.0 | 0.00 | 0.08 | 0.00 | 79 | 1016.4 |
| 20260510055518 | 3 | 38 | 0.0 | 0.0 | 0.00 | 0.08 | 0.00 | 79 | 1016.3 |
| 20260510055421 | 3 | 38 | 0.0 | 0.0 | 0.00 | 0.08 | 0.00 | 79 | 1016.3 |
| 20260510055325 | 3 | 38 | 0.0 | 0.0 | 0.00 | 0.08 | 0.00 | 80 | 1016.4 |
| 20260510055211 | 3 | 38 | 0.0 | 0.0 | 0.00 | 0.08 | 0.00 | 80 | 1016.3 |
| 20260510055135 | 3 | 38 | 0.0 | 0.0 | 0.00 | 0.08 | 0.00 | 80 | 1016.4 |
| 20260510055022 | 3 | 38 | 0.0 | 0.0 | 0.00 | 0.08 | 0.00 | 80 | 1016.5 |
| 20260510054925 | 3 | 38 | 0.0 | 0.0 | 0.00 | 0.08 | 0.00 | 79 | 1016.4 |
| 20260510054808 | 3 | 38 | 0.0 | 0.0 | 0.00 | 0.08 | 0.00 | 79 | 1016.4 |
| 20260510054713 | 3 | 38 | 0.0 | 0.0 | 0.00 | 0.08 | 0.00 | 79 | 1016.4 |
| 20260510054617 | 3 | 38 | 0.0 | 0.0 | 0.00 | 0.08 | 0.00 | 79 | 1016.4 |
| 20260510054541 | 3 | 38 | 0.0 | 0.0 | 0.00 | 0.08 | 0.00 | 79 | 1016.4 |
| 20260510054408 | 3 | 38 | 0.0 | 0.0 | 0.00 | 0.08 | 0.00 | 79 | 1016.3 |
| 20260510054311 | 3 | 38 | 0.0 | 0.0 | 0.00 | 0.08 | 0.00 | 79 | 1016.3 |
| 20260510054235 | 3 | 38 | 0.0 | 0.0 | 0.00 | 0.08 | 0.00 | 79 | 1016.4 |
| 20260510054119 | 3 | 38 | 0.0 | 0.0 | 0.00 | 0.08 | 0.00 | 79 | 1016.4 |
| 20260510054021 | 3 | 38 | 0.0 | 0.0 | 0.00 | 0.08 | 0.00 | 79 | 1016.3 |
| 20260510053926 | 3 | 38 | 0.0 | 0.0 | 0.00 | 0.08 | 0.00 | 79 | 1016.4 |
| 20260510053814 | 3 | 38 | 0.0 | 0.0 | 0.00 | 0.08 | 0.00 | 80 | 1016.3 |
| 20260510053718 | 3 | 38 | 0.0 | 0.0 | 0.00 | 0.08 | 0.00 | 80 | 1016.3 |
| 20260510053623 | 3 | 38 | 0.0 | 0.0 | 0.00 | 0.08 | 0.00 | 80 | 1016.3 |
| 20260510053507 | 3 | 38 | 0.0 | 1.6 | 0.00 | 0.08 | 0.00 | 79 | 1016.3 |
| 20260510053410 | 3 | 38 | 0.0 | 1.6 | 0.00 | 0.08 | 0.00 | 79 | 1016.3 |
| 20260510053314 | 3 | 38 | 0.0 | 1.6 | 0.00 | 0.08 | 0.00 | 79 | 1016.3 |
| 20260510053236 | 3 | 38 | 0.0 | 3.2 | 0.00 | 0.08 | 0.00 | 79 | 1016.2 |
| 20260510053124 | 3 | 38 | 0.0 | 3.2 | 0.00 | 0.08 | 0.00 | 79 | 1016.2 |
| 20260510053027 | 3 | 38 | 0.0 | 3.2 | 0.00 | 0.08 | 0.00 | 79 | 1016.3 |
| 20260510052931 | 3 | 38 | 0.0 | 3.2 | 0.00 | 0.08 | 0.00 | 79 | 1016.2 |
| 20260510052808 | 3 | 38 | 0.0 | 3.2 | 0.00 | 0.08 | 0.00 | 79 | 1016.2 |
| 20260510052711 | 3 | 38 | 1.6 | 3.2 | 0.00 | 0.08 | 0.00 | 79 | 1016.2 |
| 20260510052634 | 3 | 38 | 1.6 | 3.2 | 0.00 | 0.08 | 0.00 | 79 | 1016.2 |
| 20260510052521 | 3 | 38 | 1.6 | 3.2 | 0.00 | 0.08 | 0.00 | 79 | 1016.3 |
| 20260510052424 | 3 | 38 | 1.6 | 3.2 | 0.00 | 0.08 | 0.00 | 79 | 1016.2 |
| 20260510052309 | 3 | 38 | 3.2 | 3.2 | 0.00 | 0.08 | 0.00 | 78 | 1016.2 |
| 20260510052232 | 3 | 38 | 3.2 | 3.2 | 0.00 | 0.08 | 0.00 | 78 | 1016.2 |
| 20260510052114 | 3 | 38 | 3.2 | 3.2 | 0.00 | 0.08 | 0.00 | 78 | 1016.2 |
| 20260510052018 | 3 | 38 | 3.2 | 3.2 | 0.00 | 0.08 | 0.00 | 78 | 1016.3 |
| 20260510051921 | 3 | 38 | 3.2 | 3.2 | 0.00 | 0.08 | 0.00 | 77 | 1016.2 |
| 20260510051810 | 3 | 38 | 3.2 | 3.2 | 0.00 | 0.08 | 0.00 | 77 | 1016.2 |
| 20260510051714 | 4 | 38 | 3.2 | 3.2 | 0.00 | 0.08 | 0.00 | 77 | 1016.2 |
| 20260510051617 | 4 | 38 | 3.2 | 3.2 | 0.00 | 0.08 | 0.00 | 76 | 1016.2 |
| 20260510051520 | 4 | 38 | 1.6 | 3.2 | 0.00 | 0.08 | 0.00 | 76 | 1016.2 |
| 20260510051423 | 4 | 38 | 1.6 | 3.2 | 0.00 | 0.08 | 0.00 | 77 | 1016.2 |
| 20260510051310 | 4 | 38 | 1.6 | 3.2 | 0.00 | 0.08 | 0.00 | 76 | 1016.2 |
| 20260510051234 | 4 | 38 | 1.6 | 3.2 | 0.00 | 0.08 | 0.00 | 76 | 1016.2 |
| 20260510051109 | 4 | 38 | 1.6 | 3.2 | 0.00 | 0.08 | 0.00 | 76 | 1016.2 |
| 20260510051033 | 4 | 38 | 1.6 | 3.2 | 0.00 | 0.08 | 0.00 | 76 | 1016.1 |
| 20260510050909 | 4 | 38 | 1.6 | 3.2 | 0.00 | 0.08 | 0.00 | 75 | 1016.2 |
| 20260510050811 | 4 | 38 | 1.6 | 3.2 | 0.00 | 0.08 | 0.00 | 75 | 1016.2 |
| 20260510050715 | 4 | 38 | 1.6 | 3.2 | 0.00 | 0.08 | 0.00 | 75 | 1016.1 |
| 20260510050622 | 5 | 38 | 1.6 | 3.2 | 0.00 | 0.08 | 0.00 | 75 | 1016.1 |
| 20260510050524 | 5 | 38 | 1.6 | 3.2 | 0.00 | 0.08 | 0.00 | 75 | 1016.1 |
| 20260510050408 | 5 | 38 | 1.6 | 3.2 | 0.00 | 0.08 | 0.00 | 74 | 1016.1 |
| 20260510050311 | 5 | 38 | 1.6 | 3.2 | 0.00 | 0.08 | 0.00 | 74 | 1016.1 |
| 20260510050212 | 5 | 38 | 1.6 | 3.2 | 0.00 | 0.08 | 0.00 | 74 | 1016.1 |
| 20260510050116 | 5 | 38 | 1.6 | 3.2 | 0.00 | 0.08 | 0.08 | 74 | 1016.1 |
| 20260510050031 | 5 | 38 | 1.6 | 3.2 | 0.00 | 0.08 | 0.08 | 74 | 1016.1 |
| 20260510045908 | 5 | 38 | 1.6 | 3.2 | 0.00 | 0.08 | 0.08 | 74 | 1016.1 |
| 20260510045810 | 5 | 38 | 1.6 | 3.2 | 0.00 | 0.08 | 0.08 | 73 | 1016.1 |
| 20260510045734 | 5 | 38 | 1.6 | 3.2 | 0.00 | 0.08 | 0.08 | 73 | 1016.1 |
| 20260510045617 | 5 | 38 | 1.6 | 3.2 | 0.00 | 0.08 | 0.08 | 73 | 1016.1 |
| 20260510045540 | 5 | 38 | 1.6 | 3.2 | 0.00 | 0.08 | 0.08 | 72 | 1016.0 |
| 20260510045422 | 5 | 38 | 1.6 | 3.2 | 0.00 | 0.08 | 0.08 | 71 | 1016.1 |
| 20260510045308 | 5 | 38 | 1.6 | 3.2 | 0.00 | 0.08 | 0.08 | 71 | 1016.0 |
| 20260510045232 | 5 | 38 | 1.6 | 3.2 | 0.00 | 0.08 | 0.08 | 71 | 1016.1 |
| 20260510045109 | 5 | 38 | 0.0 | 0.0 | 0.00 | 0.08 | 0.08 | 71 | 1016.0 |
| 20260510045032 | 5 | 38 | 0.0 | 0.0 | 0.00 | 0.08 | 0.08 | 71 | 1016.1 |
| 20260510044914 | 5 | 38 | 0.0 | 0.0 | 0.00 | 0.08 | 0.08 | 69 | 1016.0 |
| 20260510044817 | 6 | 38 | 0.0 | 0.0 | 0.00 | 0.08 | 0.08 | 69 | 1016.0 |
| 20260510044720 | 6 | 38 | 0.0 | 0.0 | 0.00 | 0.08 | 0.08 | 68 | 1016.0 |
| 20260510044628 | 6 | 38 | 0.0 | 0.0 | 0.00 | 0.08 | 0.08 | 68 | 1016.0 |
| 20260510044530 | 6 | 38 | 0.0 | 0.0 | 0.00 | 0.08 | 0.08 | 66 | 1016.0 |
| 20260510044413 | 6 | 38 | 0.0 | 0.0 | 0.00 | 0.08 | 0.08 | 66 | 1016.0 |
| 20260510044316 | 6 | 38 | 0.0 | 0.0 | 0.00 | 0.08 | 0.08 | 67 | 1015.9 |
| 20260510044219 | 6 | 38 | 0.0 | 0.0 | 0.00 | 0.08 | 0.08 | 66 | 1015.9 |
| 20260510044121 | 6 | 38 | 0.0 | 0.0 | 0.00 | 0.08 | 0.08 | 64 | 1016.0 |
| 20260510044009 | 6 | 38 | 0.0 | 0.0 | 0.00 | 0.08 | 0.08 | 64 | 1016.0 |
| 20260510043932 | 6 | 38 | 0.0 | 0.0 | 0.00 | 0.08 | 0.08 | 64 | 1016.0 |
| 20260510043808 | 6 | 38 | 0.0 | 0.0 | 0.00 | 0.08 | 0.08 | 64 | 1015.9 |
| 20260510043732 | 6 | 38 | 0.0 | 1.6 | 0.00 | 0.08 | 0.08 | 64 | 1015.9 |
| 20260510043607 | 6 | 38 | 0.0 | 1.6 | 0.00 | 0.08 | 0.08 | 63 | 1015.9 |
| 20260510043532 | 6 | 38 | 0.0 | 1.6 | 0.00 | 0.08 | 0.08 | 62 | 1016.0 |
| 20260510043407 | 6 | 38 | 0.0 | 1.6 | 0.00 | 0.08 | 0.08 | 62 | 1015.9 |
| 20260510043332 | 6 | 38 | 0.0 | 1.6 | 0.00 | 0.08 | 0.08 | 61 | 1016.0 |
| 20260510043207 | 7 | 38 | 0.0 | 1.6 | 0.00 | 0.08 | 0.08 | 61 | 1015.9 |
| 20260510043111 | 7 | 38 | 0.0 | 3.2 | 0.00 | 0.08 | 0.08 | 61 | 1015.9 |
| 20260510043014 | 7 | 38 | 0.0 | 3.2 | 0.00 | 0.08 | 0.08 | 62 | 1015.9 |
| 20260510042917 | 7 | 38 | 0.0 | 3.2 | 0.00 | 0.08 | 0.08 | 61 | 1015.8 |
| 20260510042819 | 7 | 38 | 0.0 | 3.2 | 0.00 | 0.08 | 0.08 | 61 | 1015.8 |
| 20260510042706 | 7 | 38 | 0.0 | 3.2 | 0.00 | 0.08 | 0.08 | 61 | 1015.9 |
| 20260510042610 | 7 | 38 | 1.6 | 3.2 | 0.00 | 0.08 | 0.08 | 60 | 1015.9 |
| 20260510042534 | 7 | 38 | 1.6 | 3.2 | 0.00 | 0.08 | 0.08 | 60 | 1015.9 |
| 20260510042415 | 7 | 38 | 1.6 | 3.2 | 0.00 | 0.08 | 0.08 | 59 | 1015.9 |
| 20260510042317 | 7 | 38 | 3.2 | 3.2 | 0.00 | 0.08 | 0.08 | 59 | 1015.9 |
| 20260510042220 | 7 | 38 | 3.2 | 3.2 | 0.00 | 0.08 | 0.08 | 59 | 1015.9 |
| 20260510042123 | 7 | 38 | 1.6 | 3.2 | 0.00 | 0.08 | 0.08 | 59 | 1015.9 |
| 20260510042032 | 7 | 38 | 1.6 | 3.2 | 0.00 | 0.08 | 0.08 | 58 | 1015.9 |
| 20260510041953 | 7 | 38 | 1.6 | 3.2 | 0.00 | 0.08 | 0.08 | 59 | 1015.9 |
| 20260510041808 | 8 | 38 | 1.6 | 3.2 | 0.00 | 0.08 | 0.08 | 60 | 1015.9 |
| 20260510041712 | 8 | 38 | 3.2 | 3.2 | 0.00 | 0.08 | 0.08 | 59 | 1015.9 |
| 20260510041615 | 8 | 38 | 1.6 | 3.2 | 0.00 | 0.08 | 0.08 | 59 | 1015.9 |
| 20260510041519 | 8 | 38 | 1.6 | 3.2 | 0.00 | 0.08 | 0.08 | 58 | 1015.9 |
| 20260510041442 | 8 | 38 | 1.6 | 3.2 | 0.00 | 0.08 | 0.08 | 58 | 1015.9 |
| 20260510041344 | 8 | 38 | 1.6 | 3.2 | 0.00 | 0.08 | 0.08 | 57 | 1016.0 |
| 20260510041229 | 8 | 38 | 3.2 | 3.2 | 0.00 | 0.08 | 0.08 | 57 | 1015.9 |
| 20260510041132 | 8 | 38 | 3.2 | 8.0 | 0.00 | 0.08 | 0.08 | 56 | 1015.9 |
| 20260510041013 | 8 | 38 | 3.2 | 8.0 | 0.00 | 0.08 | 0.08 | 57 | 1016.0 |
| 20260510040915 | 8 | 38 | 3.2 | 8.0 | 0.00 | 0.08 | 0.08 | 56 | 1015.9 |
| 20260510040818 | 8 | 38 | 3.2 | 8.0 | 0.00 | 0.08 | 0.08 | 57 | 1016.0 |
| 20260510040721 | 8 | 38 | 1.6 | 8.0 | 0.00 | 0.08 | 0.08 | 56 | 1016.0 |
| 20260510040610 | 8 | 38 | 1.6 | 8.0 | 0.00 | 0.08 | 0.08 | 55 | 1015.9 |
| 20260510040532 | 8 | 38 | 1.6 | 8.0 | 0.00 | 0.08 | 0.08 | 54 | 1015.9 |
| 20260510040409 | 8 | 38 | 3.2 | 8.0 | 0.00 | 0.08 | 0.08 | 53 | 1016.0 |
| 20260510040331 | 8 | 38 | 3.2 | 8.0 | 0.00 | 0.08 | 0.08 | 54 | 1016.0 |
| 20260510040209 | 8 | 9 | 3.2 | 6.4 | 0.00 | 0.08 | 0.08 | 55 | 1016.0 |
| 20260510040110 | 8 | 24 | 3.2 | 6.4 | 0.00 | 0.08 | 0.08 | 54 | 1016.0 |
| 20260510040015 | 8 | 24 | 3.2 | 6.4 | 0.00 | 0.08 | 0.08 | 54 | 1015.9 |
| 20260510035923 | 9 | 23 | 3.2 | 6.4 | 0.00 | 0.08 | 0.08 | 53 | 1015.9 |
| 20260510035845 | 9 | 23 | 3.2 | 8.0 | 0.00 | 0.08 | 0.08 | 53 | 1015.9 |
| 20260510035727 | 9 | 24 | 4.8 | 8.0 | 0.00 | 0.08 | 0.08 | 53 | 1015.9 |
| 20260510035630 | 9 | 26 | 3.2 | 8.0 | 0.00 | 0.08 | 0.08 | 53 | 1015.9 |
| 20260510035510 | 9 | 26 | 3.2 | 8.0 | 0.00 | 0.08 | 0.08 | 52 | 1015.9 |
| 20260510035435 | 9 | 26 | 3.2 | 8.0 | 0.00 | 0.08 | 0.08 | 52 | 1015.9 |
| 20260510035318 | 9 | 27 | 3.2 | 8.0 | 0.00 | 0.08 | 0.08 | 52 | 1015.9 |
| 20260510035226 | 9 | 29 | 3.2 | 8.0 | 0.00 | 0.08 | 0.08 | 52 | 1015.9 |
| 20260510035129 | 9 | 25 | 4.8 | 8.0 | 0.00 | 0.08 | 0.08 | 52 | 1015.9 |
| 20260510035032 | 9 | 28 | 4.8 | 8.0 | 0.00 | 0.08 | 0.08 | 52 | 1015.9 |
| 20260510034907 | 9 | 28 | 4.8 | 8.0 | 0.00 | 0.08 | 0.08 | 52 | 1015.8 |
| 20260510034831 | 9 | 26 | 3.2 | 8.0 | 0.00 | 0.08 | 0.08 | 52 | 1015.9 |
| 20260510034735 | 9 | 16 | 4.8 | 8.0 | 0.00 | 0.08 | 0.08 | 52 | 1015.9 |
| 20260510034638 | 9 | 22 | 4.8 | 8.0 | 0.00 | 0.08 | 0.08 | 52 | 1015.8 |
| 20260510034519 | 9 | 55 | 4.8 | 6.4 | 0.00 | 0.08 | 0.08 | 52 | 1015.9 |
| 20260510034421 | 9 | 5 | 4.8 | 6.4 | 0.00 | 0.08 | 0.08 | 52 | 1015.8 |
| 20260510034307 | 9 | 34 | 4.8 | 8.0 | 0.00 | 0.08 | 0.08 | 53 | 1015.8 |
| 20260510034210 | 9 | 44 | 3.2 | 8.0 | 0.00 | 0.08 | 0.08 | 52 | 1015.8 |
| 20260510034115 | 9 | 17 | 3.2 | 8.0 | 0.00 | 0.08 | 0.08 | 52 | 1015.7 |
| 20260510034019 | 9 | 17 | 4.8 | 8.0 | 0.00 | 0.08 | 0.08 | 52 | 1015.7 |
| 20260510033921 | 9 | 32 | 4.8 | 8.0 | 0.00 | 0.08 | 0.08 | 51 | 1015.8 |
| 20260510033845 | 9 | 27 | 4.8 | 8.0 | 0.00 | 0.08 | 0.08 | 51 | 1015.7 |
| 20260510033711 | 9 | 14 | 4.8 | 8.0 | 0.00 | 0.08 | 0.08 | 51 | 1015.8 |
| 20260510033615 | 9 | 11 | 4.8 | 8.0 | 0.00 | 0.08 | 0.08 | 51 | 1015.8 |
| 20260510033541 | 10 | 5 | 4.8 | 8.0 | 0.00 | 0.08 | 0.08 | 51 | 1015.6 |
| 20260510033423 | 10 | 10 | 4.8 | 8.0 | 0.00 | 0.08 | 0.08 | 51 | 1015.7 |
| 20260510033307 | 10 | 26 | 4.8 | 8.0 | 0.00 | 0.08 | 0.08 | 51 | 1015.7 |
| 20260510033211 | 10 | 12 | 4.8 | 8.0 | 0.00 | 0.08 | 0.08 | 50 | 1015.6 |
| 20260510033119 | 10 | 13 | 4.8 | 9.7 | 0.00 | 0.08 | 0.08 | 50 | 1015.6 |
| 20260510033044 | 10 | 28 | 3.2 | 9.7 | 0.00 | 0.08 | 0.08 | 50 | 1015.6 |
| 20260510032908 | 10 | 32 | 3.2 | 9.7 | 0.00 | 0.08 | 0.08 | 50 | 1015.6 |
| 20260510032811 | 10 | 32 | 4.8 | 14.5 | 0.00 | 0.08 | 0.08 | 50 | 1015.6 |
| 20260510032715 | 10 | 33 | 3.2 | 14.5 | 0.00 | 0.08 | 0.08 | 50 | 1015.6 |
| 20260510032620 | 10 | 32 | 3.2 | 14.5 | 0.00 | 0.08 | 0.08 | 50 | 1015.6 |
| 20260510032507 | 10 | 32 | 3.2 | 14.5 | 0.00 | 0.08 | 0.08 | 50 | 1015.6 |
| 20260510032412 | 10 | 33 | 4.8 | 14.5 | 0.00 | 0.08 | 0.08 | 50 | 1015.5 |
| 20260510032317 | 10 | 28 | 6.4 | 14.5 | 0.00 | 0.08 | 0.08 | 49 | 1015.4 |
| 20260510032222 | 10 | 35 | 4.8 | 14.5 | 0.00 | 0.08 | 0.08 | 50 | 1015.5 |
| 20260510032125 | 10 | 22 | 6.4 | 14.5 | 0.00 | 0.08 | 0.08 | 49 | 1015.6 |
| 20260510032008 | 10 | 35 | 6.4 | 14.5 | 0.00 | 0.08 | 0.08 | 50 | 1015.5 |
| 20260510031915 | 10 | 17 | 4.8 | 12.9 | 0.00 | 0.08 | 0.08 | 50 | 1015.5 |
| 20260510031819 | 10 | 30 | 4.8 | 12.9 | 0.00 | 0.08 | 0.08 | 50 | 1015.5 |
| 20260510031724 | 10 | 36 | 4.8 | 14.5 | 0.00 | 0.08 | 0.08 | 50 | 1015.4 |
| 20260510031608 | 10 | 18 | 3.2 | 14.5 | 0.00 | 0.08 | 0.08 | 49 | 1015.4 |
| 20260510031513 | 10 | 19 | 3.2 | 14.5 | 0.00 | 0.08 | 0.08 | 50 | 1015.4 |
| 20260510031417 | 10 | 17 | 4.8 | 14.5 | 0.00 | 0.08 | 0.08 | 49 | 1015.4 |
| 20260510031342 | 10 | 18 | 4.8 | 14.5 | 0.00 | 0.08 | 0.08 | 49 | 1015.3 |
| 20260510031208 | 10 | 63 | 4.8 | 14.5 | 0.00 | 0.08 | 0.08 | 49 | 1015.3 |
| 20260510031113 | 10 | 37 | 6.4 | 14.5 | 0.00 | 0.08 | 0.08 | 49 | 1015.4 |
| 20260510031017 | 10 | 36 | 8.0 | 14.5 | 0.00 | 0.08 | 0.08 | 48 | 1015.3 |
| 20260510030940 | 10 | 34 | 8.0 | 14.5 | 0.00 | 0.08 | 0.08 | 48 | 1015.4 |
| 20260510030844 | 10 | 26 | 4.8 | 12.9 | 0.00 | 0.08 | 0.08 | 49 | 1015.3 |
| 20260510030708 | 10 | 26 | 4.8 | 16.1 | 0.00 | 0.08 | 0.08 | 48 | 1015.2 |
| 20260510030616 | 10 | 39 | 6.4 | 16.1 | 0.00 | 0.08 | 0.08 | 48 | 1015.3 |
| 20260510030540 | 10 | 41 | 6.4 | 16.1 | 0.00 | 0.08 | 0.08 | 48 | 1015.3 |
| 20260510030443 | 10 | 44 | 8.0 | 19.3 | 0.00 | 0.08 | 0.08 | 48 | 1015.2 |
| 20260510030346 | 10 | 32 | 8.0 | 19.3 | 0.00 | 0.08 | 0.08 | 48 | 1015.2 |
| 20260510030229 | 10 | 50 | 6.4 | 19.3 | 0.00 | 0.08 | 0.08 | 48 | 1015.2 |
| 20260510030106 | 10 | 49 | 8.0 | 19.3 | 0.00 | 0.08 | 0.08 | 48 | 1015.2 |
| 20260510030011 | 10 | 31 | 9.7 | 19.3 | 0.00 | 0.08 | 0.08 | 47 | 1015.2 |
| 20260510025936 | 10 | 26 | 8.0 | 19.3 | 0.00 | 0.08 | 0.08 | 47 | 1015.1 |
| 20260510025822 | 10 | 19 | 8.0 | 19.3 | 0.00 | 0.08 | 0.08 | 47 | 1015.2 |
| 20260510025727 | 10 | 41 | 9.7 | 19.3 | 0.00 | 0.08 | 0.08 | 47 | 1015.1 |
| 20260510025609 | 10 | 39 | 6.4 | 19.3 | 0.00 | 0.08 | 0.08 | 47 | 1015.1 |
| 20260510025514 | 10 | 31 | 6.4 | 12.9 | 0.00 | 0.08 | 0.08 | 48 | 1015.1 |
| 20260510025419 | 10 | 28 | 4.8 | 12.9 | 0.00 | 0.08 | 0.08 | 47 | 1015.0 |
| 20260510025344 | 10 | 53 | 4.8 | 12.9 | 0.00 | 0.08 | 0.08 | 47 | 1015.0 |
| 20260510025211 | 10 | 42 | 8.0 | 12.9 | 0.00 | 0.08 | 0.08 | 47 | 1015.0 |
| 20260510025116 | 10 | 28 | 8.0 | 12.9 | 0.00 | 0.08 | 0.08 | 47 | 1015.0 |
| 20260510025021 | 10 | 36 | 6.4 | 12.9 | 0.00 | 0.08 | 0.08 | 47 | 1015.0 |
| 20260510024906 | 10 | 26 | 8.0 | 12.9 | 0.00 | 0.08 | 0.08 | 47 | 1014.9 |
| 20260510024810 | 10 | 31 | 6.4 | 12.9 | 0.00 | 0.08 | 0.08 | 47 | 1015.0 |
| 20260510024715 | 10 | 48 | 6.4 | 12.9 | 0.00 | 0.08 | 0.08 | 47 | 1014.8 |
| 20260510024640 | 10 | 25 | 6.4 | 12.9 | 0.00 | 0.08 | 0.08 | 47 | 1014.8 |
| 20260510024507 | 10 | 47 | 6.4 | 12.9 | 0.00 | 0.08 | 0.08 | 47 | 1014.8 |
| 20260510024413 | 10 | 53 | 6.4 | 12.9 | 0.00 | 0.08 | 0.08 | 47 | 1014.8 |
| 20260510024316 | 10 | 41 | 6.4 | 12.9 | 0.00 | 0.08 | 0.08 | 47 | 1014.8 |
| 20260510024220 | 10 | 40 | 6.4 | 12.9 | 0.00 | 0.08 | 0.08 | 47 | 1014.8 |
| 20260510024123 | 10 | 43 | 8.0 | 12.9 | 0.00 | 0.08 | 0.08 | 47 | 1014.6 |
| 20260510024010 | 10 | 24 | 6.4 | 12.9 | 0.00 | 0.08 | 0.08 | 48 | 1014.7 |
| 20260510023915 | 10 | 45 | 4.8 | 9.7 | 0.00 | 0.08 | 0.08 | 48 | 1014.6 |
| 20260510023819 | 10 | 43 | 4.8 | 9.7 | 0.00 | 0.08 | 0.08 | 48 | 1014.6 |
| 20260510023744 | 10 | 42 | 4.8 | 9.7 | 0.00 | 0.08 | 0.08 | 48 | 1014.5 |
| 20260510023607 | 10 | 50 | 6.4 | 9.7 | 0.00 | 0.08 | 0.08 | 48 | 1014.5 |
| 20260510023510 | 10 | 50 | 4.8 | 9.7 | 0.00 | 0.08 | 0.08 | 48 | 1014.6 |
| 20260510023415 | 10 | 49 | 4.8 | 9.7 | 0.00 | 0.08 | 0.08 | 48 | 1014.5 |
| 20260510023323 | 10 | 43 | 4.8 | 9.7 | 0.00 | 0.08 | 0.08 | 49 | 1014.4 |
| 20260510023208 | 10 | 24 | 4.8 | 8.0 | 0.00 | 0.08 | 0.08 | 48 | 1014.5 |
| 20260510023111 | 10 | 44 | 6.4 | 8.0 | 0.00 | 0.08 | 0.08 | 48 | 1014.4 |
| 20260510023035 | 10 | 67 | 4.8 | 6.4 | 0.00 | 0.08 | 0.08 | 49 | 1014.4 |
| 20260510022918 | 10 | 68 | 4.8 | 6.4 | 0.00 | 0.08 | 0.08 | 49 | 1014.4 |
| 20260510022822 | 10 | 44 | 4.8 | 6.4 | 0.00 | 0.08 | 0.08 | 49 | 1014.3 |
| 20260510022730 | 10 | 36 | 4.8 | 6.4 | 0.00 | 0.08 | 0.08 | 49 | 1014.3 |
| 20260510022633 | 10 | 49 | 3.2 | 6.4 | 0.00 | 0.08 | 0.08 | 50 | 1014.3 |
| 20260510022516 | 10 | 24 | 1.6 | 4.8 | 0.00 | 0.08 | 0.08 | 50 | 1014.3 |
| 20260510022419 | 10 | 24 | 1.6 | 4.8 | 0.00 | 0.08 | 0.08 | 50 | 1014.2 |
| 20260510022323 | 10 | 23 | 1.6 | 4.8 | 0.00 | 0.08 | 0.08 | 50 | 1014.2 |
| 20260510022225 | 10 | 23 | 3.2 | 4.8 | 0.00 | 0.08 | 0.08 | 51 | 1014.2 |
| 20260510022128 | 10 | 23 | 1.6 | 4.8 | 0.00 | 0.08 | 0.08 | 51 | 1014.2 |
| 20260510022015 | 10 | 23 | 1.6 | 4.8 | 0.00 | 0.08 | 0.08 | 52 | 1014.1 |
| 20260510021919 | 10 | 23 | 3.2 | 4.8 | 0.00 | 0.08 | 0.08 | 50 | 1014.1 |
| 20260510021842 | 10 | 23 | 3.2 | 4.8 | 0.00 | 0.08 | 0.08 | 50 | 1014.1 |
| 20260510021743 | 10 | 23 | 3.2 | 4.8 | 0.00 | 0.08 | 0.08 | 51 | 1014.1 |
| 20260510021625 | 11 | 23 | 3.2 | 6.4 | 0.00 | 0.08 | 0.08 | 53 | 1014.1 |
| 20260510021509 | 11 | 23 | 3.2 | 6.4 | 0.00 | 0.08 | 0.08 | 51 | 1014.0 |
| 20260510021414 | 11 | 23 | 3.2 | 6.4 | 0.00 | 0.08 | 0.08 | 52 | 1014.0 |
| 20260510021321 | 11 | 23 | 1.6 | 6.4 | 0.00 | 0.08 | 0.08 | 50 | 1013.9 |
| 20260510021225 | 11 | 23 | 1.6 | 6.4 | 0.00 | 0.08 | 0.08 | 49 | 1013.9 |
| 20260510021111 | 11 | 23 | 3.2 | 6.4 | 0.00 | 0.08 | 0.08 | 45 | 1013.9 |
| 20260510021014 | 11 | 23 | 3.2 | 9.7 | 0.00 | 0.08 | 0.08 | 46 | 1013.9 |
| 20260510020918 | 11 | 23 | 3.2 | 9.7 | 0.00 | 0.08 | 0.08 | 45 | 1013.8 |
| 20260510020823 | 11 | 19 | 4.8 | 9.7 | 0.00 | 0.08 | 0.08 | 45 | 1013.8 |
| 20260510020743 | 11 | 45 | 4.8 | 9.7 | 0.00 | 0.08 | 0.08 | 45 | 1013.8 |
| 20260510020611 | 11 | 46 | 4.8 | 9.7 | 0.00 | 0.08 | 0.08 | 45 | 1013.8 |
| 20260510020515 | 11 | 46 | 4.8 | 9.7 | 0.00 | 0.08 | 0.08 | 45 | 1013.8 |
| 20260510020419 | 11 | 47 | 4.8 | 9.7 | 0.00 | 0.08 | 0.08 | 44 | 1013.6 |
| 20260510020324 | 11 | 47 | 6.4 | 9.7 | 0.00 | 0.08 | 0.08 | 44 | 1013.6 |
| 20260510020229 | 11 | 48 | 6.4 | 9.7 | 0.00 | 0.08 | 0.08 | 44 | 1013.7 |
| 20260510020106 | 11 | 36 | 4.8 | 8.0 | 0.00 | 0.08 | 0.08 | 44 | 1013.6 |
| 20260510020035 | 11 | 46 | 4.8 | 9.7 | 0.00 | 0.08 | 0.08 | 44 | 1013.5 |
| 20260510015918 | 11 | 47 | 4.8 | 9.7 | 0.00 | 0.08 | 0.08 | 44 | 1013.6 |
| 20260510015823 | 11 | 44 | 3.2 | 9.7 | 0.00 | 0.08 | 0.08 | 44 | 1013.5 |
| 20260510015708 | 11 | 44 | 3.2 | 9.7 | 0.00 | 0.08 | 0.08 | 44 | 1013.5 |
| 20260510015611 | 11 | 44 | 4.8 | 9.7 | 0.00 | 0.08 | 0.08 | 44 | 1013.5 |
| 20260510015516 | 11 | 44 | 4.8 | 9.7 | 0.00 | 0.08 | 0.08 | 44 | 1013.5 |
| 20260510015425 | 11 | 44 | 4.8 | 9.7 | 0.00 | 0.08 | 0.08 | 44 | 1013.4 |
| 20260510015309 | 11 | 33 | 6.4 | 9.7 | 0.00 | 0.08 | 0.08 | 43 | 1013.4 |
| 20260510015213 | 11 | 35 | 6.4 | 9.7 | 0.00 | 0.08 | 0.08 | 43 | 1013.4 |
| 20260510015118 | 11 | 39 | 4.8 | 8.0 | 0.00 | 0.08 | 0.08 | 43 | 1013.4 |
| 20260510015020 | 11 | 51 | 4.8 | 9.7 | 0.00 | 0.08 | 0.08 | 43 | 1013.4 |
| 20260510014925 | 11 | 48 | 4.8 | 9.7 | 0.00 | 0.08 | 0.08 | 43 | 1013.3 |
| 20260510014813 | 11 | 53 | 4.8 | 9.7 | 0.00 | 0.08 | 0.08 | 43 | 1013.3 |
| 20260510014738 | 11 | 54 | 3.2 | 9.7 | 0.00 | 0.08 | 0.08 | 43 | 1013.2 |
| 20260510014621 | 11 | 54 | 3.2 | 9.7 | 0.00 | 0.08 | 0.08 | 43 | 1013.3 |
| 20260510014545 | 11 | 46 | 4.8 | 9.7 | 0.00 | 0.08 | 0.08 | 43 | 1013.3 |
| 20260510014409 | 11 | 46 | 6.4 | 9.7 | 0.00 | 0.08 | 0.08 | 43 | 1013.3 |
| 20260510014313 | 12 | 44 | 6.4 | 9.7 | 0.00 | 0.08 | 0.08 | 42 | 1013.2 |
| 20260510014218 | 12 | 40 | 4.8 | 9.7 | 0.00 | 0.08 | 0.08 | 43 | 1013.2 |
| 20260510014145 | 12 | 43 | 4.8 | 8.0 | 0.00 | 0.08 | 0.08 | 43 | 1013.2 |
| 20260510014028 | 12 | 44 | 3.2 | 8.0 | 0.00 | 0.08 | 0.08 | 42 | 1013.2 |
| 20260510013931 | 12 | 30 | 3.2 | 9.7 | 0.00 | 0.08 | 0.08 | 43 | 1013.2 |
| 20260510013833 | 12 | 30 | 3.2 | 9.7 | 0.00 | 0.08 | 0.08 | 42 | 1013.2 |
| 20260510013710 | 12 | 28 | 4.8 | 9.7 | 0.00 | 0.08 | 0.08 | 42 | 1013.2 |
| 20260510013614 | 12 | 44 | 4.8 | 9.7 | 0.00 | 0.08 | 0.08 | 42 | 1013.2 |
| 20260510013537 | 12 | 43 | 4.8 | 12.9 | 0.00 | 0.08 | 0.08 | 41 | 1013.2 |
| 20260510013419 | 12 | 40 | 6.4 | 14.5 | 0.00 | 0.08 | 0.08 | 41 | 1013.2 |
| 20260510013325 | 12 | 32 | 6.4 | 16.1 | 0.00 | 0.08 | 0.08 | 41 | 1013.1 |
| 20260510013209 | 12 | 27 | 6.4 | 16.1 | 0.00 | 0.08 | 0.08 | 41 | 1013.1 |
| 20260510013113 | 12 | 29 | 6.4 | 19.3 | 0.00 | 0.08 | 0.08 | 41 | 1013.0 |
| 20260510013036 | 12 | 38 | 6.4 | 19.3 | 0.00 | 0.08 | 0.08 | 40 | 1013.1 |
| 20260510012918 | 12 | 37 | 8.0 | 19.3 | 0.00 | 0.08 | 0.08 | 40 | 1013.1 |
| 20260510012823 | 12 | 63 | 6.4 | 19.3 | 0.00 | 0.08 | 0.08 | 40 | 1013.1 |
| 20260510012731 | 12 | 32 | 8.0 | 19.3 | 0.00 | 0.08 | 0.08 | 40 | 1013.0 |
| 20260510012608 | 12 | 38 | 9.7 | 19.3 | 0.00 | 0.08 | 0.08 | 39 | 1013.0 |
| 20260510012532 | 12 | 31 | 11.3 | 19.3 | 0.00 | 0.08 | 0.08 | 40 | 1013.0 |
| 20260510012408 | 12 | 343 | 11.3 | 20.9 | 0.00 | 0.08 | 0.08 | 39 | 1013.0 |
| 20260510012332 | 12 | 47 | 11.3 | 20.9 | 0.00 | 0.08 | 0.08 | 39 | 1013.0 |
| 20260510012208 | 12 | 24 | 9.7 | 20.9 | 0.00 | 0.08 | 0.08 | 39 | 1012.9 |
| 20260510012116 | 12 | 30 | 9.7 | 20.9 | 0.00 | 0.08 | 0.08 | 39 | 1012.9 |
| 20260510012020 | 12 | 16 | 11.3 | 20.9 | 0.00 | 0.08 | 0.08 | 39 | 1013.0 |
| 20260510011923 | 12 | 360 | 11.3 | 20.9 | 0.00 | 0.08 | 0.08 | 40 | 1013.0 |
| 20260510011807 | 12 | 11 | 11.3 | 20.9 | 0.00 | 0.08 | 0.08 | 39 | 1012.9 |
| 20260510011711 | 12 | 11 | 12.9 | 20.9 | 0.00 | 0.08 | 0.08 | 39 | 1012.9 |
| 20260510011614 | 12 | 11 | 11.3 | 20.9 | 0.00 | 0.08 | 0.08 | 39 | 1012.8 |
| 20260510011523 | 12 | 19 | 9.7 | 20.9 | 0.00 | 0.08 | 0.08 | 39 | 1012.9 |
| 20260510011407 | 13 | 5 | 9.7 | 20.9 | 0.00 | 0.08 | 0.08 | 39 | 1012.8 |
| 20260510011312 | 13 | 30 | 9.7 | 20.9 | 0.00 | 0.08 | 0.08 | 39 | 1012.8 |
| 20260510011215 | 13 | 28 | 9.7 | 20.9 | 0.00 | 0.08 | 0.08 | 39 | 1012.8 |
| 20260510011118 | 13 | 42 | 9.7 | 20.9 | 0.00 | 0.08 | 0.08 | 39 | 1012.8 |
| 20260510011042 | 13 | 13 | 9.7 | 20.9 | 0.00 | 0.08 | 0.08 | 39 | 1012.7 |
| 20260510010910 | 13 | 27 | 12.9 | 20.9 | 0.00 | 0.08 | 0.08 | 39 | 1012.7 |
| 20260510010814 | 13 | 26 | 14.5 | 20.9 | 0.00 | 0.08 | 0.08 | 39 | 1012.7 |
| 20260510010738 | 13 | 47 | 11.3 | 20.9 | 0.00 | 0.08 | 0.08 | 40 | 1012.7 |
| 20260510010641 | 13 | 355 | 9.7 | 17.7 | 0.00 | 0.08 | 0.08 | 40 | 1012.6 |
| 20260510010524 | 13 | 31 | 6.4 | 17.7 | 0.00 | 0.08 | 0.08 | 40 | 1012.7 |
| 20260510010428 | 13 | 62 | 6.4 | 17.7 | 0.00 | 0.08 | 0.08 | 39 | 1012.7 |
| 20260510010352 | 13 | 47 | 8.0 | 17.7 | 0.00 | 0.08 | 0.08 | 40 | 1012.6 |
| 20260510010208 | 13 | 18 | 9.7 | 17.7 | 0.00 | 0.08 | 0.08 | 40 | 1012.6 |
| 20260510010117 | 13 | 347 | 11.3 | 17.7 | 0.00 | 0.08 | 0.08 | 39 | 1012.6 |
| 20260510010020 | 13 | 28 | 8.0 | 17.7 | 0.00 | 0.08 | 0.08 | 39 | 1012.5 |
| 20260510005923 | 13 | 44 | 8.0 | 17.7 | 0.00 | 0.08 | 0.08 | 40 | 1012.6 |
| 20260510005827 | 13 | 21 | 9.7 | 17.7 | 0.00 | 0.08 | 0.08 | 38 | 1012.6 |
| 20260510005731 | 13 | 54 | 9.7 | 17.7 | 0.00 | 0.08 | 0.08 | 39 | 1012.5 |
| 20260510005608 | 13 | 11 | 11.3 | 17.7 | 0.00 | 0.08 | 0.08 | 39 | 1012.5 |
| 20260510005516 | 13 | 44 | 11.3 | 17.7 | 0.00 | 0.08 | 0.08 | 39 | 1012.5 |
| 20260510005419 | 13 | 355 | 11.3 | 17.7 | 0.00 | 0.08 | 0.08 | 38 | 1012.5 |
| 20260510005342 | 13 | 348 | 11.3 | 17.7 | 0.00 | 0.08 | 0.08 | 39 | 1012.5 |
| 20260510005244 | 13 | 20 | 9.7 | 17.7 | 0.00 | 0.08 | 0.08 | 39 | 1012.5 |
| 20260510005146 | 13 | 10 | 9.7 | 16.1 | 0.00 | 0.08 | 0.08 | 39 | 1012.4 |
| 20260510005029 | 13 | 355 | 9.7 | 17.7 | 0.00 | 0.08 | 0.08 | 39 | 1012.4 |
| 20260510004954 | 13 | 360 | 8.0 | 17.7 | 0.00 | 0.08 | 0.08 | 40 | 1012.4 |
| 20260510004809 | 13 | 38 | 8.0 | 17.7 | 0.00 | 0.08 | 0.08 | 39 | 1012.4 |
| 20260510004717 | 13 | 27 | 9.7 | 17.7 | 0.00 | 0.08 | 0.08 | 39 | 1012.4 |
| 20260510004621 | 13 | 20 | 6.4 | 17.7 | 0.00 | 0.08 | 0.08 | 40 | 1012.3 |
| 20260510004546 | 13 | 9 | 6.4 | 17.7 | 0.00 | 0.08 | 0.08 | 40 | 1012.3 |
| 20260510004409 | 13 | 11 | 8.0 | 17.7 | 0.00 | 0.08 | 0.08 | 40 | 1012.3 |
| 20260510004333 | 13 | 22 | 9.7 | 17.7 | 0.00 | 0.08 | 0.08 | 39 | 1012.3 |
| 20260510004210 | 13 | 22 | 9.7 | 17.7 | 0.00 | 0.08 | 0.08 | 39 | 1012.3 |
| 20260510004119 | 13 | 10 | 9.7 | 17.7 | 0.00 | 0.08 | 0.08 | 40 | 1012.3 |
| 20260510004042 | 13 | 20 | 8.0 | 16.1 | 0.00 | 0.08 | 0.08 | 39 | 1012.3 |
| 20260510003925 | 13 | 355 | 8.0 | 16.1 | 0.00 | 0.08 | 0.08 | 40 | 1012.2 |
| 20260510003810 | 13 | 5 | 8.0 | 16.1 | 0.00 | 0.08 | 0.08 | 39 | 1012.3 |
| 20260510003713 | 13 | 20 | 6.4 | 14.5 | 0.00 | 0.08 | 0.08 | 40 | 1012.3 |
| 20260510003617 | 13 | 20 | 6.4 | 16.1 | 0.00 | 0.08 | 0.08 | 39 | 1012.3 |
| 20260510003521 | 13 | 38 | 8.0 | 19.3 | 0.00 | 0.08 | 0.08 | 39 | 1012.2 |
| 20260510003408 | 13 | 44 | 8.0 | 20.9 | 0.00 | 0.08 | 0.08 | 39 | 1012.3 |
| 20260510003332 | 13 | 44 | 8.0 | 20.9 | 0.00 | 0.08 | 0.08 | 39 | 1012.2 |
| 20260510003215 | 13 | 40 | 9.7 | 20.9 | 0.00 | 0.08 | 0.08 | 39 | 1012.2 |
| 20260510003119 | 13 | 25 | 8.0 | 20.9 | 0.00 | 0.08 | 0.08 | 39 | 1012.3 |
| 20260510003043 | 13 | 26 | 8.0 | 20.9 | 0.00 | 0.08 | 0.08 | 39 | 1012.2 |
| 20260510002926 | 13 | 38 | 8.0 | 20.9 | 0.00 | 0.08 | 0.08 | 38 | 1012.2 |
| 20260510002812 | 13 | 28 | 11.3 | 20.9 | 0.00 | 0.08 | 0.08 | 39 | 1012.3 |
| 20260510002715 | 13 | 360 | 11.3 | 20.9 | 0.00 | 0.08 | 0.08 | 38 | 1012.3 |
| 20260510002619 | 13 | 14 | 11.3 | 20.9 | 0.00 | 0.08 | 0.08 | 38 | 1012.3 |
| 20260510002543 | 13 | 11 | 9.7 | 19.3 | 0.00 | 0.08 | 0.08 | 38 | 1012.3 |
| 20260510002426 | 13 | 14 | 8.0 | 20.9 | 0.00 | 0.08 | 0.08 | 39 | 1012.2 |
| 20260510002311 | 13 | 44 | 6.4 | 20.9 | 0.00 | 0.08 | 0.08 | 39 | 1012.2 |
| 20260510002216 | 13 | 28 | 8.0 | 20.9 | 0.00 | 0.08 | 0.08 | 39 | 1012.2 |
| 20260510002124 | 13 | 36 | 9.7 | 20.9 | 0.00 | 0.08 | 0.08 | 38 | 1012.3 |
| 20260510002047 | 13 | 341 | 9.7 | 20.9 | 0.00 | 0.08 | 0.08 | 38 | 1012.2 |
| 20260510001909 | 13 | 19 | 9.7 | 20.9 | 0.00 | 0.08 | 0.08 | 38 | 1012.2 |
| 20260510001812 | 13 | 5 | 12.9 | 20.9 | 0.00 | 0.08 | 0.08 | 38 | 1012.2 |
| 20260510001736 | 13 | 355 | 12.9 | 20.9 | 0.00 | 0.08 | 0.08 | 38 | 1012.1 |
| 20260510001639 | 13 | 36 | 11.3 | 20.9 | 0.00 | 0.08 | 0.08 | 38 | 1012.2 |
| 20260510001521 | 13 | 5 | 9.7 | 19.3 | 0.00 | 0.08 | 0.08 | 39 | 1012.2 |
| 20260510001408 | 13 | 355 | 11.3 | 19.3 | 0.00 | 0.08 | 0.08 | 38 | 1012.2 |
| 20260510001331 | 13 | 12 | 11.3 | 25.7 | 0.00 | 0.08 | 0.08 | 38 | 1012.2 |
| 20260510001208 | 13 | 37 | 11.3 | 25.7 | 0.00 | 0.08 | 0.08 | 39 | 1012.1 |
| 20260510001111 | 13 | 16 | 11.3 | 25.7 | 0.00 | 0.08 | 0.08 | 38 | 1012.1 |
| 20260510001014 | 13 | 360 | 9.7 | 25.7 | 0.00 | 0.08 | 0.08 | 39 | 1012.1 |
| 20260510000938 | 13 | 15 | 9.7 | 25.7 | 0.00 | 0.08 | 0.08 | 38 | 1012.1 |
| 20260510000840 | 13 | 19 | 12.9 | 25.7 | 0.00 | 0.08 | 0.08 | 38 | 1012.0 |
| 20260510000743 | 13 | 28 | 14.5 | 25.7 | 0.00 | 0.08 | 0.08 | 37 | 1012.0 |
| 20260510000650 | 13 | 348 | 17.7 | 25.7 | 0.00 | 0.08 | 0.08 | 36 | 1012.0 |
| 20260510000553 | 13 | 340 | 16.1 | 25.7 | 0.00 | 0.08 | 0.08 | 37 | 1012.0 |
| 20260510000411 | 13 | 360 | 11.3 | 22.5 | 0.00 | 0.08 | 0.08 | 37 | 1012.0 |
| 20260510000333 | 13 | 21 | 8.0 | 22.5 | 0.00 | 0.08 | 0.08 | 37 | 1011.9 |
| 20260510000213 | 13 | 325 | 8.0 | 22.5 | 0.00 | 0.08 | 0.08 | 37 | 1011.9 |
| 20260510000116 | 13 | 5 | 9.7 | 22.5 | 0.00 | 0.08 | 0.08 | 37 | 1011.9 |
| 20260510000019 | 13 | 5 | 8.0 | 22.5 | 0.00 | 0.08 | 0.08 | 37 | 1011.9 |
| 20260509235942 | 13 | 5 | 11.3 | 22.5 | 0.00 | 0.08 | 0.08 | 37 | 1011.9 |
| 20260509235828 | 13 | 37 | 14.5 | 22.5 | 0.00 | 0.08 | 0.08 | 36 | 1011.9 |
| 20260509235732 | 13 | 34 | 16.1 | 22.5 | 0.00 | 0.08 | 0.08 | 37 | 1011.9 |
| 20260509235609 | 13 | 25 | 12.9 | 25.7 | 0.00 | 0.08 | 0.08 | 37 | 1011.9 |
| 20260509235512 | 14 | 355 | 8.0 | 25.7 | 0.00 | 0.08 | 0.08 | 38 | 1011.8 |
| 20260509235415 | 13 | 10 | 6.4 | 25.7 | 0.00 | 0.08 | 0.08 | 38 | 1011.8 |
| 20260509235338 | 13 | 360 | 9.7 | 25.7 | 0.00 | 0.08 | 0.08 | 38 | 1011.8 |
| 20260509235220 | 13 | 348 | 11.3 | 25.7 | 0.00 | 0.08 | 0.08 | 37 | 1011.9 |
| 20260509235109 | 13 | 50 | 11.3 | 25.7 | 0.00 | 0.08 | 0.08 | 38 | 1011.9 |
| 20260509235011 | 13 | 5 | 12.9 | 25.7 | 0.00 | 0.08 | 0.08 | 37 | 1011.8 |
| 20260509234914 | 14 | 360 | 16.1 | 25.7 | 0.00 | 0.08 | 0.08 | 37 | 1011.8 |
| 20260509234817 | 13 | 355 | 16.1 | 25.7 | 0.00 | 0.08 | 0.08 | 37 | 1011.8 |
| 20260509234720 | 14 | 317 | 14.5 | 27.4 | 0.00 | 0.08 | 0.08 | 38 | 1011.8 |
| 20260509234644 | 13 | 26 | 12.9 | 27.4 | 0.00 | 0.08 | 0.08 | 37 | 1011.7 |
| 20260509234531 | 13 | 355 | 12.9 | 27.4 | 0.00 | 0.08 | 0.08 | 37 | 1011.8 |
| 20260509234408 | 13 | 36 | 14.5 | 27.4 | 0.00 | 0.08 | 0.08 | 36 | 1011.9 |
| 20260509234310 | 13 | 30 | 16.1 | 27.4 | 0.00 | 0.08 | 0.08 | 37 | 1011.8 |
| 20260509234213 | 13 | 22 | 14.5 | 27.4 | 0.00 | 0.08 | 0.08 | 37 | 1011.8 |
| 20260509234116 | 13 | 21 | 14.5 | 27.4 | 0.00 | 0.08 | 0.08 | 37 | 1011.8 |
| 20260509234020 | 13 | 29 | 16.1 | 27.4 | 0.00 | 0.08 | 0.08 | 37 | 1012.0 |
| 20260509233929 | 13 | 44 | 12.9 | 32.2 | 0.00 | 0.08 | 0.08 | 38 | 1011.8 |
| 20260509233832 | 13 | 48 | 14.5 | 32.2 | 0.00 | 0.08 | 0.08 | 38 | 1011.8 |
| 20260509233709 | 13 | 13 | 19.3 | 32.2 | 0.00 | 0.08 | 0.08 | 37 | 1011.8 |
| 20260509233632 | 13 | 34 | 17.7 | 32.2 | 0.00 | 0.08 | 0.08 | 37 | 1011.7 |
| 20260509233508 | 13 | 344 | 14.5 | 32.2 | 0.00 | 0.08 | 0.08 | 37 | 1011.8 |
| 20260509233411 | 13 | 9 | 17.7 | 32.2 | 0.00 | 0.08 | 0.08 | 37 | 1011.7 |
| 20260509233335 | 13 | 348 | 17.7 | 32.2 | 0.00 | 0.08 | 0.08 | 37 | 1011.7 |
| 20260509233222 | 13 | 325 | 22.5 | 32.2 | 0.00 | 0.08 | 0.08 | 36 | 1011.7 |
| 20260509233125 | 13 | 360 | 24.1 | 32.2 | 0.00 | 0.08 | 0.08 | 36 | 1011.7 |
| 20260509233029 | 13 | 355 | 22.5 | 30.6 | 0.00 | 0.08 | 0.08 | 37 | 1011.7 |
| 20260509232952 | 13 | 360 | 17.7 | 30.6 | 0.00 | 0.08 | 0.08 | 38 | 1011.7 |
| 20260509232808 | 13 | 331 | 11.3 | 24.1 | 0.00 | 0.08 | 0.08 | 39 | 1011.5 |
| 20260509232712 | 13 | 338 | 12.9 | 24.1 | 0.00 | 0.08 | 0.08 | 39 | 1011.5 |
| 20260509232615 | 13 | 318 | 12.9 | 24.1 | 0.00 | 0.08 | 0.08 | 38 | 1011.6 |
| 20260509232524 | 13 | 355 | 12.9 | 24.1 | 0.00 | 0.08 | 0.08 | 38 | 1011.5 |
| 20260509232448 | 13 | 360 | 11.3 | 24.1 | 0.00 | 0.08 | 0.08 | 38 | 1011.5 |
| 20260509232330 | 13 | 22 | 12.9 | 24.1 | 0.00 | 0.08 | 0.08 | 38 | 1011.5 |
| 20260509232207 | 13 | 50 | 14.5 | 24.1 | 0.00 | 0.08 | 0.08 | 37 | 1011.6 |
| 20260509232110 | 13 | 10 | 11.3 | 24.1 | 0.00 | 0.08 | 0.08 | 37 | 1011.6 |
| 20260509232013 | 13 | 45 | 11.3 | 24.1 | 0.00 | 0.08 | 0.08 | 37 | 1011.4 |
| 20260509231920 | 13 | 30 | 12.9 | 24.1 | 0.00 | 0.08 | 0.08 | 37 | 1011.6 |
| 20260509231824 | 13 | 5 | 14.5 | 30.6 | 0.00 | 0.08 | 0.08 | 36 | 1011.3 |
| 20260509231729 | 13 | 9 | 11.3 | 30.6 | 0.00 | 0.08 | 0.08 | 37 | 1011.4 |
| 20260509231632 | 14 | 19 | 11.3 | 30.6 | 0.00 | 0.08 | 0.08 | 37 | 1011.6 |
| 20260509231514 | 14 | 34 | 9.7 | 30.6 | 0.00 | 0.08 | 0.08 | 37 | 1011.5 |
| 20260509231418 | 14 | 32 | 12.9 | 30.6 | 0.00 | 0.08 | 0.08 | 37 | 1011.5 |
| 20260509231321 | 14 | 17 | 14.5 | 30.6 | 0.00 | 0.08 | 0.08 | 37 | 1011.6 |
| 20260509231210 | 14 | 355 | 16.1 | 30.6 | 0.00 | 0.08 | 0.08 | 36 | 1011.5 |
| 20260509231113 | 14 | 360 | 17.7 | 30.6 | 0.00 | 0.08 | 0.08 | 37 | 1011.5 |
| 20260509231019 | 14 | 13 | 19.3 | 30.6 | 0.00 | 0.08 | 0.08 | 38 | 1011.6 |
| 20260509230924 | 14 | 344 | 17.7 | 30.6 | 0.00 | 0.08 | 0.08 | 37 | 1011.4 |
| 20260509230809 | 13 | 355 | 12.9 | 29.0 | 0.00 | 0.08 | 0.08 | 37 | 1011.4 |
| 20260509230713 | 13 | 19 | 12.9 | 29.0 | 0.00 | 0.08 | 0.08 | 37 | 1011.4 |
| 20260509230620 | 13 | 49 | 16.1 | 29.0 | 0.00 | 0.08 | 0.08 | 37 | 1011.4 |
| 20260509230408 | 13 | 5 | 16.1 | 32.2 | 0.00 | 0.08 | 0.08 | 37 | 1011.4 |
| 20260509230333 | 13 | 24 | 12.9 | 32.2 | 0.00 | 0.08 | 0.08 | 37 | 1011.4 |
| 20260509230235 | 14 | 19 | 12.9 | 32.2 | 0.00 | 0.08 | 0.08 | 37 | 1011.5 |
| 20260509230117 | 14 | 318 | 12.9 | 32.2 | 0.00 | 0.08 | 0.08 | 37 | 1011.3 |
| 20260509230042 | 14 | 317 | 14.5 | 32.2 | 0.00 | 0.08 | 0.08 | 37 | 1011.5 |
| 20260509225910 | 14 | 355 | 19.3 | 32.2 | 0.00 | 0.08 | 0.08 | 36 | 1011.4 |
| 20260509225813 | 14 | 360 | 19.3 | 32.2 | 0.00 | 0.08 | 0.08 | 36 | 1011.4 |
| 20260509225717 | 14 | 19 | 17.7 | 32.2 | 0.00 | 0.08 | 0.08 | 36 | 1011.4 |
| 20260509225642 | 14 | 360 | 16.1 | 33.8 | 0.00 | 0.08 | 0.08 | 36 | 1011.4 |
| 20260509225524 | 14 | 345 | 17.7 | 33.8 | 0.00 | 0.08 | 0.08 | 36 | 1011.3 |
| 20260509225409 | 15 | 49 | 19.3 | 33.8 | 0.00 | 0.08 | 0.08 | 36 | 1011.7 |
| 20260509225318 | 15 | 21 | 17.7 | 33.8 | 0.00 | 0.08 | 0.08 | 36 | 1011.6 |
| 20260509225223 | 15 | 355 | 16.1 | 33.8 | 0.00 | 0.08 | 0.08 | 35 | 1011.3 |
| 20260509225127 | 15 | 360 | 16.1 | 33.8 | 0.00 | 0.08 | 0.08 | 36 | 1011.4 |
| 20260509225030 | 15 | 5 | 17.7 | 40.2 | 0.00 | 0.08 | 0.08 | 36 | 1011.4 |
| 20260509224908 | 15 | 35 | 20.9 | 40.2 | 0.00 | 0.08 | 0.08 | 36 | 1011.3 |
| 20260509224810 | 15 | 16 | 24.1 | 40.2 | 0.00 | 0.08 | 0.08 | 35 | 1011.3 |
| 20260509224715 | 15 | 360 | 19.3 | 40.2 | 0.00 | 0.08 | 0.08 | 35 | 1011.4 |
| 20260509224622 | 15 | 43 | 16.1 | 40.2 | 0.00 | 0.08 | 0.08 | 35 | 1011.3 |
| 20260509224526 | 15 | 26 | 19.3 | 40.2 | 0.00 | 0.08 | 0.08 | 37 | 1011.3 |
| 20260509224431 | 15 | 34 | 22.5 | 40.2 | 0.00 | 0.08 | 0.08 | 36 | 1011.4 |
| 20260509224308 | 15 | 32 | 22.5 | 40.2 | 0.00 | 0.08 | 0.08 | 36 | 1011.3 |
| 20260509224213 | 15 | 14 | 22.5 | 30.6 | 0.00 | 0.08 | 0.08 | 36 | 1011.2 |
| 20260509224138 | 15 | 360 | 19.3 | 30.6 | 0.00 | 0.08 | 0.08 | 36 | 1011.0 |
| 20260509224041 | 15 | 355 | 14.5 | 30.6 | 0.00 | 0.08 | 0.08 | 37 | 1011.0 |
| 20260509223909 | 15 | 346 | 11.3 | 29.0 | 0.00 | 0.08 | 0.08 | 38 | 1011.0 |
| 20260509223814 | 15 | 9 | 12.9 | 29.0 | 0.00 | 0.08 | 0.08 | 38 | 1011.1 |
| 20260509223719 | 15 | 10 | 17.7 | 29.0 | 0.00 | 0.08 | 0.08 | 37 | 1011.0 |
| 20260509223622 | 15 | 14 | 19.3 | 29.0 | 0.00 | 0.08 | 0.08 | 37 | 1011.1 |
| 20260509223527 | 15 | 38 | 17.7 | 29.0 | 0.00 | 0.08 | 0.08 | 37 | 1011.1 |
| 20260509223413 | 15 | 59 | 16.1 | 29.0 | 0.00 | 0.08 | 0.08 | 37 | 1011.0 |
| 20260509223337 | 15 | 48 | 16.1 | 30.6 | 0.00 | 0.08 | 0.08 | 37 | 1011.0 |
| 20260509223220 | 15 | 55 | 17.7 | 30.6 | 0.00 | 0.08 | 0.08 | 37 | 1011.1 |
| 20260509223125 | 15 | 48 | 16.1 | 30.6 | 0.00 | 0.08 | 0.08 | 38 | 1011.1 |
| 20260509223009 | 15 | 29 | 16.1 | 30.6 | 0.00 | 0.08 | 0.08 | 38 | 1011.2 |
| 20260509222933 | 15 | 14 | 17.7 | 30.6 | 0.00 | 0.08 | 0.08 | 37 | 1011.2 |
| 20260509222810 | 15 | 350 | 17.7 | 32.2 | 0.00 | 0.08 | 0.08 | 39 | 1011.1 |
| 20260509222717 | 15 | 355 | 17.7 | 33.8 | 0.00 | 0.08 | 0.08 | 38 | 1011.2 |
| 20260509222621 | 15 | 346 | 20.9 | 33.8 | 0.00 | 0.08 | 0.08 | 37 | 1011.0 |
| 20260509222526 | 15 | 17 | 19.3 | 33.8 | 0.00 | 0.08 | 0.08 | 39 | 1011.0 |
| 20260509222430 | 15 | 5 | 17.7 | 33.8 | 0.00 | 0.08 | 0.08 | 38 | 1011.3 |
| 20260509222313 | 15 | 340 | 14.5 | 33.8 | 0.00 | 0.08 | 0.08 | 38 | 1011.0 |
| 20260509222216 | 14 | 360 | 14.5 | 33.8 | 0.00 | 0.08 | 0.08 | 39 | 1011.2 |
| 20260509222126 | 14 | 11 | 16.1 | 33.8 | 0.00 | 0.08 | 0.08 | 37 | 1011.0 |
| 20260509222035 | 14 | 360 | 17.7 | 33.8 | 0.00 | 0.08 | 0.08 | 38 | 1011.0 |
| 20260509221914 | 14 | 13 | 19.3 | 33.8 | 0.00 | 0.08 | 0.08 | 37 | 1011.1 |
| 20260509221819 | 14 | 34 | 20.9 | 33.8 | 0.00 | 0.08 | 0.08 | 37 | 1011.0 |
| 20260509221743 | 14 | 9 | 20.9 | 32.2 | 0.00 | 0.08 | 0.08 | 36 | 1011.1 |
| 20260509221625 | 14 | 11 | 19.3 | 32.2 | 0.00 | 0.08 | 0.08 | 36 | 1011.2 |
| 20260509221530 | 14 | 342 | 12.9 | 30.6 | 0.00 | 0.08 | 0.08 | 37 | 1011.0 |
| 20260509221416 | 14 | 5 | 12.9 | 30.6 | 0.00 | 0.08 | 0.08 | 37 | 1011.0 |
| 20260509221320 | 15 | 17 | 16.1 | 30.6 | 0.00 | 0.08 | 0.08 | 36 | 1011.0 |
| 20260509221223 | 15 | 44 | 17.7 | 30.6 | 0.00 | 0.08 | 0.08 | 36 | 1011.0 |
| 20260509221107 | 15 | 29 | 22.5 | 30.6 | 0.00 | 0.08 | 0.08 | 35 | 1011.1 |
| 20260509221031 | 15 | 63 | 22.5 | 30.6 | 0.00 | 0.08 | 0.08 | 35 | 1011.1 |
| 20260509220915 | 15 | 63 | 19.3 | 30.6 | 0.00 | 0.08 | 0.08 | 36 | 1011.1 |
| 20260509220820 | 15 | 35 | 14.5 | 32.2 | 0.00 | 0.08 | 0.08 | 35 | 1011.0 |
| 20260509220727 | 15 | 26 | 12.9 | 32.2 | 0.00 | 0.08 | 0.08 | 36 | 1011.0 |
| 20260509220652 | 15 | 351 | 16.1 | 32.2 | 0.00 | 0.08 | 0.08 | 36 | 1011.1 |
| 20260509220508 | 15 | 342 | 22.5 | 33.8 | 0.00 | 0.08 | 0.08 | 34 | 1011.0 |
| 20260509220412 | 15 | 347 | 22.5 | 33.8 | 0.00 | 0.08 | 0.08 | 36 | 1011.0 |
| 20260509220317 | 15 | 324 | 19.3 | 33.8 | 0.00 | 0.08 | 0.08 | 34 | 1011.1 |
| 20260509220221 | 15 | 338 | 19.3 | 33.8 | 0.00 | 0.08 | 0.08 | 38 | 1011.0 |
| 20260509220109 | 15 | 360 | 22.5 | 33.8 | 0.00 | 0.08 | 0.08 | 34 | 1011.1 |
| 20260509220013 | 15 | 20 | 22.5 | 33.8 | 0.00 | 0.08 | 0.08 | 35 | 1011.0 |
| 20260509215917 | 15 | 337 | 20.9 | 33.8 | 0.00 | 0.08 | 0.08 | 35 | 1011.1 |
| 20260509215822 | 15 | 14 | 22.5 | 33.8 | 0.00 | 0.08 | 0.08 | 37 | 1011.0 |
| 20260509215726 | 15 | 336 | 20.9 | 33.8 | 0.00 | 0.08 | 0.08 | 35 | 1010.9 |
| 20260509215620 | 15 | 355 | 17.7 | 41.8 | 0.00 | 0.08 | 0.08 | 35 | 1010.9 |
| 20260509215508 | 15 | 42 | 19.3 | 41.8 | 0.00 | 0.08 | 0.08 | 35 | 1011.0 |
| 20260509215433 | 15 | 26 | 20.9 | 41.8 | 0.00 | 0.08 | 0.08 | 36 | 1011.0 |
| 20260509215310 | 15 | 26 | 14.5 | 41.8 | 0.00 | 0.08 | 0.08 | 35 | 1011.0 |
| 20260509215212 | 15 | 44 | 14.5 | 41.8 | 0.00 | 0.08 | 0.08 | 35 | 1011.0 |
| 20260509215136 | 15 | 13 | 16.1 | 41.8 | 0.00 | 0.08 | 0.08 | 34 | 1011.1 |
| 20260509215020 | 15 | 5 | 17.7 | 41.8 | 0.00 | 0.08 | 0.08 | 36 | 1011.0 |
| 20260509214945 | 15 | 55 | 20.9 | 41.8 | 0.00 | 0.08 | 0.08 | 35 | 1011.0 |
| 20260509214831 | 15 | 336 | 25.7 | 41.8 | 0.00 | 0.08 | 0.08 | 34 | 1011.1 |
| 20260509214735 | 15 | 344 | 24.1 | 33.8 | 0.00 | 0.08 | 0.08 | 35 | 1010.9 |
| 20260509214636 | 15 | 336 | 20.9 | 32.2 | 0.00 | 0.08 | 0.08 | 36 | 1010.9 |
| 20260509214519 | 15 | 321 | 16.1 | 32.2 | 0.00 | 0.08 | 0.08 | 38 | 1011.1 |
| 20260509214423 | 15 | 355 | 12.9 | 32.2 | 0.00 | 0.08 | 0.08 | 38 | 1010.8 |
| 20260509214306 | 15 | 5 | 17.7 | 32.2 | 0.00 | 0.08 | 0.08 | 37 | 1010.9 |
| 20260509214210 | 15 | 30 | 19.3 | 32.2 | 0.00 | 0.08 | 0.08 | 36 | 1011.0 |
| 20260509214133 | 15 | 17 | 14.5 | 32.2 | 0.00 | 0.08 | 0.08 | 38 | 1010.9 |
| 20260509214021 | 15 | 5 | 14.5 | 32.2 | 0.00 | 0.08 | 0.08 | 38 | 1010.9 |
| 20260509213943 | 15 | 38 | 17.7 | 32.2 | 0.00 | 0.08 | 0.08 | 37 | 1010.9 |
| 20260509213807 | 15 | 5 | 19.3 | 32.2 | 0.00 | 0.08 | 0.08 | 37 | 1011.2 |
| 20260509213731 | 15 | 30 | 20.9 | 32.2 | 0.00 | 0.08 | 0.08 | 37 | 1010.9 |
| 20260509213608 | 15 | 355 | 19.3 | 32.2 | 0.00 | 0.08 | 0.08 | 36 | 1010.8 |
| 20260509213510 | 15 | 349 | 17.7 | 32.2 | 0.00 | 0.08 | 0.08 | 38 | 1010.6 |
| 20260509213419 | 15 | 333 | 17.7 | 29.0 | 0.00 | 0.08 | 0.08 | 37 | 1010.8 |
| 20260509213343 | 15 | 37 | 19.3 | 30.6 | 0.00 | 0.08 | 0.08 | 38 | 1010.7 |
| 20260509213206 | 15 | 346 | 16.1 | 30.6 | 0.00 | 0.08 | 0.08 | 38 | 1010.8 |
| 20260509213111 | 15 | 360 | 16.1 | 30.6 | 0.00 | 0.08 | 0.08 | 37 | 1010.7 |
| 20260509213013 | 15 | 15 | 19.3 | 30.6 | 0.00 | 0.08 | 0.08 | 37 | 1010.8 |
| 20260509212916 | 15 | 39 | 16.1 | 30.6 | 0.00 | 0.08 | 0.08 | 39 | 1010.9 |
| 20260509212820 | 15 | 338 | 14.5 | 30.6 | 0.00 | 0.08 | 0.08 | 40 | 1010.8 |
| 20260509212706 | 15 | 350 | 12.9 | 30.6 | 0.00 | 0.08 | 0.08 | 39 | 1010.8 |
| 20260509212611 | 15 | 9 | 14.5 | 30.6 | 0.00 | 0.08 | 0.08 | 38 | 1010.8 |
| 20260509212515 | 15 | 38 | 14.5 | 30.6 | 0.00 | 0.08 | 0.08 | 38 | 1010.8 |
| 20260509212417 | 15 | 342 | 11.3 | 24.1 | 0.00 | 0.08 | 0.08 | 40 | 1010.7 |
| 20260509212320 | 15 | 33 | 16.1 | 24.1 | 0.00 | 0.08 | 0.08 | 37 | 1010.7 |
| 20260509212224 | 15 | 355 | 14.5 | 24.1 | 0.00 | 0.08 | 0.08 | 38 | 1010.6 |
| 20260509212131 | 15 | 327 | 8.0 | 24.1 | 0.00 | 0.08 | 0.08 | 40 | 1010.7 |
| 20260509212007 | 15 | 42 | 8.0 | 24.1 | 0.00 | 0.08 | 0.08 | 41 | 1010.7 |
| 20260509211910 | 15 | 342 | 14.5 | 24.1 | 0.00 | 0.08 | 0.08 | 39 | 1010.7 |
| 20260509211812 | 15 | 351 | 16.1 | 24.1 | 0.00 | 0.08 | 0.08 | 38 | 1010.7 |
| 20260509211716 | 15 | 55 | 16.1 | 24.1 | 0.00 | 0.08 | 0.08 | 38 | 1010.7 |
| 20260509211640 | 15 | 341 | 16.1 | 27.4 | 0.00 | 0.08 | 0.08 | 39 | 1010.6 |
| 20260509211542 | 15 | 15 | 11.3 | 29.0 | 0.00 | 0.08 | 0.08 | 40 | 1010.8 |
| 20260509211407 | 15 | 28 | 12.9 | 29.0 | 0.00 | 0.08 | 0.08 | 40 | 1010.7 |
| 20260509211311 | 15 | 39 | 14.5 | 29.0 | 0.00 | 0.08 | 0.08 | 40 | 1010.6 |
| 20260509211214 | 15 | 42 | 16.1 | 29.0 | 0.00 | 0.08 | 0.08 | 38 | 1010.7 |
| 20260509211117 | 15 | 42 | 17.7 | 29.0 | 0.00 | 0.08 | 0.08 | 38 | 1010.6 |
| 20260509211021 | 15 | 36 | 14.5 | 29.0 | 0.00 | 0.08 | 0.08 | 40 | 1010.6 |
| 20260509210924 | 15 | 355 | 12.9 | 29.0 | 0.00 | 0.08 | 0.08 | 39 | 1010.6 |
| 20260509210831 | 15 | 30 | 16.1 | 29.0 | 0.00 | 0.08 | 0.08 | 37 | 1010.6 |
| 20260509210754 | 15 | 17 | 19.3 | 29.0 | 0.00 | 0.08 | 0.08 | 37 | 1010.7 |
| 20260509210608 | 15 | 49 | 19.3 | 29.0 | 0.00 | 0.08 | 0.08 | 37 | 1010.6 |
| 20260509210511 | 15 | 20 | 19.3 | 29.0 | 0.00 | 0.08 | 0.08 | 38 | 1010.6 |
| 20260509210435 | 15 | 14 | 20.9 | 29.0 | 0.00 | 0.08 | 0.08 | 38 | 1010.6 |
| 20260509210317 | 15 | 16 | 17.7 | 29.0 | 0.00 | 0.08 | 0.08 | 37 | 1010.5 |
| 20260509210220 | 15 | 336 | 16.1 | 29.0 | 0.00 | 0.08 | 0.08 | 38 | 1010.6 |
| 20260509210128 | 15 | 41 | 14.5 | 30.6 | 0.00 | 0.08 | 0.08 | 37 | 1010.8 |
| 20260509210030 | 15 | 5 | 14.5 | 32.2 | 0.00 | 0.08 | 0.08 | 37 | 1010.5 |
| 20260509205907 | 15 | 12 | 19.3 | 32.2 | 0.00 | 0.08 | 0.08 | 36 | 1010.5 |
| 20260509205811 | 15 | 338 | 20.9 | 32.2 | 0.00 | 0.08 | 0.08 | 36 | 1010.5 |
| 20260509205714 | 15 | 323 | 17.7 | 32.2 | 0.00 | 0.08 | 0.08 | 37 | 1010.5 |
| 20260509205637 | 15 | 342 | 17.7 | 32.2 | 0.00 | 0.08 | 0.08 | 40 | 1010.5 |
| 20260509205520 | 15 | 5 | 19.3 | 32.2 | 0.00 | 0.08 | 0.08 | 37 | 1010.6 |
| 20260509205443 | 15 | 360 | 19.3 | 32.2 | 0.00 | 0.08 | 0.08 | 39 | 1010.7 |
| 20260509205310 | 15 | 355 | 19.3 | 32.2 | 0.00 | 0.08 | 0.08 | 39 | 1010.8 |
| 20260509205212 | 15 | 324 | 12.9 | 32.2 | 0.00 | 0.08 | 0.08 | 39 | 1010.4 |
| 20260509205114 | 15 | 355 | 12.9 | 32.2 | 0.00 | 0.08 | 0.08 | 39 | 1010.5 |
| 20260509205015 | 15 | 360 | 17.7 | 32.2 | 0.00 | 0.08 | 0.08 | 37 | 1010.4 |
| 20260509204919 | 15 | 340 | 20.9 | 32.2 | 0.00 | 0.08 | 0.08 | 39 | 1010.4 |
| 20260509204822 | 15 | 351 | 17.7 | 32.2 | 0.00 | 0.08 | 0.08 | 41 | 1010.5 |
| 20260509204709 | 15 | 327 | 9.7 | 29.0 | 0.00 | 0.08 | 0.08 | 40 | 1010.3 |
| 20260509204612 | 15 | 9 | 9.7 | 29.0 | 0.00 | 0.08 | 0.08 | 39 | 1010.4 |
| 20260509204516 | 15 | 46 | 11.3 | 29.0 | 0.00 | 0.08 | 0.08 | 39 | 1010.4 |
| 20260509204438 | 15 | 111 | 12.9 | 29.0 | 0.00 | 0.08 | 0.08 | 36 | 1010.3 |
| 20260509204320 | 15 | 21 | 17.7 | 29.0 | 0.00 | 0.08 | 0.08 | 39 | 1010.6 |
| 20260509204244 | 15 | 339 | 19.3 | 29.0 | 0.00 | 0.08 | 0.08 | 37 | 1010.6 |
| 20260509204126 | 15 | 39 | 19.3 | 30.6 | 0.00 | 0.08 | 0.08 | 37 | 1010.5 |
| 20260509204033 | 15 | 37 | 16.1 | 32.2 | 0.00 | 0.08 | 0.08 | 39 | 1010.5 |
| 20260509203908 | 15 | 30 | 14.5 | 32.2 | 0.00 | 0.08 | 0.08 | 39 | 1010.5 |
| 20260509203811 | 15 | 78 | 12.9 | 32.2 | 0.00 | 0.08 | 0.08 | 38 | 1010.5 |
| 20260509203714 | 15 | 54 | 14.5 | 32.2 | 0.00 | 0.08 | 0.08 | 37 | 1010.4 |
| 20260509203618 | 15 | 36 | 19.3 | 32.2 | 0.00 | 0.08 | 0.08 | 36 | 1010.5 |
| 20260509203520 | 15 | 59 | 22.5 | 33.8 | 0.00 | 0.08 | 0.08 | 35 | 1010.5 |
| 20260509203408 | 15 | 26 | 20.9 | 33.8 | 0.00 | 0.08 | 0.08 | 34 | 1010.7 |
| 20260509203330 | 15 | 37 | 19.3 | 33.8 | 0.00 | 0.08 | 0.08 | 38 | 1010.4 |
| 20260509203207 | 15 | 331 | 14.5 | 33.8 | 0.00 | 0.08 | 0.08 | 42 | 1010.5 |
| 20260509203111 | 15 | 348 | 12.9 | 33.8 | 0.00 | 0.08 | 0.08 | 40 | 1010.2 |
| 20260509203014 | 15 | 342 | 14.5 | 38.6 | 0.00 | 0.08 | 0.08 | 40 | 1010.4 |
| 20260509202937 | 15 | 355 | 17.7 | 38.6 | 0.00 | 0.08 | 0.08 | 38 | 1010.4 |
| 20260509202820 | 15 | 40 | 17.7 | 38.6 | 0.00 | 0.08 | 0.08 | 38 | 1010.4 |
| 20260509202707 | 15 | 14 | 16.1 | 38.6 | 0.00 | 0.08 | 0.08 | 40 | 1010.4 |
| 20260509202630 | 15 | 355 | 17.7 | 38.6 | 0.00 | 0.08 | 0.08 | 40 | 1010.4 |
| 20260509202532 | 15 | 344 | 14.5 | 38.6 | 0.00 | 0.08 | 0.08 | 39 | 1010.3 |
| 20260509202414 | 15 | 26 | 16.1 | 38.6 | 0.00 | 0.08 | 0.08 | 41 | 1010.2 |
| 20260509202337 | 15 | 360 | 19.3 | 38.6 | 0.00 | 0.08 | 0.08 | 38 | 1010.4 |
| 20260509202241 | 15 | 59 | 22.5 | 38.6 | 0.00 | 0.08 | 0.08 | 38 | 1010.3 |
| 20260509202143 | 15 | 26 | 24.1 | 33.8 | 0.00 | 0.08 | 0.08 | 36 | 1010.3 |
| 20260509202025 | 15 | 350 | 22.5 | 33.8 | 0.00 | 0.08 | 0.08 | 37 | 1010.3 |
| 20260509201933 | 15 | 325 | 17.7 | 30.6 | 0.00 | 0.08 | 0.08 | 39 | 1010.4 |
| 20260509201807 | 15 | 317 | 19.3 | 32.2 | 0.00 | 0.08 | 0.08 | 38 | 1010.5 |
| 20260509201711 | 15 | 360 | 19.3 | 32.2 | 0.00 | 0.08 | 0.08 | 38 | 1010.3 |
| 20260509201614 | 15 | 360 | 17.7 | 32.2 | 0.00 | 0.08 | 0.08 | 39 | 1010.5 |
| 20260509201516 | 15 | 345 | 19.3 | 32.2 | 0.00 | 0.08 | 0.08 | 39 | 1010.3 |
| 20260509201419 | 15 | 5 | 16.1 | 32.2 | 0.00 | 0.08 | 0.08 | 39 | 1010.4 |
| 20260509201308 | 15 | 49 | 16.1 | 32.2 | 0.00 | 0.08 | 0.08 | 41 | 1010.4 |
| 20260509201231 | 15 | 292 | 20.9 | 37.0 | 0.00 | 0.08 | 0.08 | 38 | 1010.2 |
| 20260509201112 | 15 | 18 | 20.9 | 37.0 | 0.00 | 0.08 | 0.08 | 39 | 1010.2 |
| 20260509201016 | 15 | 5 | 14.5 | 37.0 | 0.00 | 0.08 | 0.08 | 40 | 1010.5 |
| 20260509200920 | 15 | 5 | 14.5 | 37.0 | 0.00 | 0.08 | 0.08 | 40 | 1010.2 |
| 20260509200845 | 15 | 10 | 17.7 | 37.0 | 0.00 | 0.08 | 0.08 | 40 | 1010.2 |
| 20260509200728 | 15 | 346 | 20.9 | 37.0 | 0.00 | 0.08 | 0.08 | 37 | 1010.3 |
| 20260509200616 | 15 | 339 | 20.9 | 37.0 | 0.00 | 0.08 | 0.08 | 37 | 1010.3 |
| 20260509200520 | 15 | 355 | 24.1 | 37.0 | 0.00 | 0.08 | 0.08 | 38 | 1010.2 |
| 20260509200425 | 15 | 360 | 27.4 | 37.0 | 0.00 | 0.08 | 0.08 | 37 | 1010.2 |
| 20260509200329 | 15 | 360 | 24.1 | 37.0 | 0.00 | 0.08 | 0.08 | 38 | 1010.1 |
| 20260509200212 | 15 | 350 | 22.5 | 37.0 | 0.00 | 0.08 | 0.08 | 38 | 1010.1 |
| 20260509200136 | 15 | 333 | 24.1 | 37.0 | 0.00 | 0.08 | 0.08 | 39 | 1010.1 |
| 20260509200019 | 15 | 350 | 22.5 | 33.8 | 0.00 | 0.08 | 0.08 | 39 | 1010.2 |
| 20260509195908 | 15 | 28 | 19.3 | 33.8 | 0.00 | 0.08 | 0.08 | 40 | 1010.2 |
| 20260509195811 | 15 | 338 | 19.3 | 33.8 | 0.00 | 0.08 | 0.08 | 40 | 1010.2 |
| 20260509195716 | 15 | 350 | 17.7 | 33.8 | 0.00 | 0.08 | 0.08 | 40 | 1010.2 |
| 20260509195621 | 15 | 10 | 19.3 | 33.8 | 0.00 | 0.08 | 0.08 | 40 | 1010.3 |
| 20260509195524 | 15 | 5 | 20.9 | 33.8 | 0.00 | 0.08 | 0.08 | 38 | 1010.1 |
| 20260509195430 | 15 | 351 | 24.1 | 33.8 | 0.00 | 0.08 | 0.08 | 39 | 1010.1 |
| 20260509195354 | 15 | 336 | 24.1 | 38.6 | 0.00 | 0.08 | 0.08 | 39 | 1010.0 |
| 20260509195220 | 15 | 360 | 20.9 | 38.6 | 0.00 | 0.08 | 0.08 | 38 | 1010.0 |
| 20260509195123 | 14 | 335 | 20.9 | 38.6 | 0.00 | 0.08 | 0.08 | 39 | 1010.2 |
| 20260509195006 | 14 | 26 | 17.7 | 38.6 | 0.00 | 0.08 | 0.08 | 38 | 1010.2 |
| 20260509194910 | 15 | 51 | 14.5 | 38.6 | 0.00 | 0.08 | 0.08 | 41 | 1010.1 |
| 20260509194815 | 14 | 64 | 14.5 | 38.6 | 0.00 | 0.08 | 0.08 | 41 | 1010.1 |
| 20260509194720 | 14 | 5 | 17.7 | 38.6 | 0.00 | 0.08 | 0.08 | 42 | 1010.1 |
| 20260509194608 | 14 | 26 | 24.1 | 38.6 | 0.00 | 0.08 | 0.08 | 40 | 1010.3 |
| 20260509194532 | 14 | 13 | 25.7 | 38.6 | 0.00 | 0.08 | 0.08 | 40 | 1010.4 |
| 20260509194409 | 14 | 59 | 19.3 | 33.8 | 0.00 | 0.08 | 0.08 | 40 | 1010.3 |
| 20260509194314 | 14 | 49 | 16.1 | 33.8 | 0.00 | 0.08 | 0.08 | 41 | 1010.0 |
| 20260509194237 | 14 | 42 | 17.7 | 38.6 | 0.00 | 0.08 | 0.08 | 39 | 1010.0 |
| 20260509194119 | 14 | 35 | 20.9 | 38.6 | 0.00 | 0.08 | 0.08 | 40 | 1010.0 |
| 20260509194026 | 14 | 45 | 20.9 | 38.6 | 0.00 | 0.08 | 0.08 | 39 | 1010.1 |
| 20260509193929 | 14 | 24 | 20.9 | 38.6 | 0.00 | 0.08 | 0.08 | 39 | 1009.9 |
| 20260509193814 | 15 | 34 | 20.9 | 38.6 | 0.00 | 0.08 | 0.08 | 38 | 1010.1 |
| 20260509193716 | 15 | 30 | 20.9 | 38.6 | 0.00 | 0.08 | 0.08 | 38 | 1010.2 |
| 20260509193621 | 15 | 12 | 20.9 | 38.6 | 0.00 | 0.08 | 0.08 | 40 | 1010.3 |
| 20260509193525 | 15 | 19 | 22.5 | 38.6 | 0.00 | 0.08 | 0.08 | 40 | 1010.3 |
| 20260509193414 | 15 | 355 | 22.5 | 38.6 | 0.00 | 0.08 | 0.08 | 37 | 1010.1 |
| 20260509193319 | 15 | 355 | 22.5 | 37.0 | 0.00 | 0.08 | 0.08 | 38 | 1010.0 |
| 20260509193244 | 15 | 355 | 22.5 | 37.0 | 0.00 | 0.08 | 0.08 | 37 | 1010.1 |
| 20260509193144 | 15 | 27 | 20.9 | 37.0 | 0.00 | 0.08 | 0.08 | 39 | 1010.0 |
| 20260509193028 | 15 | 36 | 19.3 | 37.0 | 0.00 | 0.08 | 0.08 | 39 | 1010.0 |
| 20260509192911 | 15 | 355 | 20.9 | 37.0 | 0.00 | 0.08 | 0.08 | 40 | 1010.0 |
| 20260509192816 | 15 | 340 | 20.9 | 37.0 | 0.00 | 0.08 | 0.08 | 39 | 1009.9 |
| 20260509192720 | 15 | 348 | 19.3 | 37.0 | 0.00 | 0.08 | 0.08 | 41 | 1010.0 |
| 20260509192608 | 15 | 346 | 22.5 | 37.0 | 0.00 | 0.08 | 0.08 | 41 | 1010.1 |
| 20260509192532 | 14 | 344 | 25.7 | 37.0 | 0.00 | 0.08 | 0.08 | 40 | 1009.8 |
| 20260509192408 | 14 | 350 | 24.1 | 33.8 | 0.00 | 0.08 | 0.08 | 41 | 1009.9 |
| 20260509192313 | 14 | 51 | 19.3 | 32.2 | 0.00 | 0.08 | 0.08 | 40 | 1009.8 |
| 20260509192216 | 14 | 47 | 17.7 | 32.2 | 0.00 | 0.08 | 0.08 | 39 | 1009.8 |
| 20260509192119 | 14 | 67 | 16.1 | 32.2 | 0.00 | 0.08 | 0.08 | 38 | 1009.8 |
| 20260509192007 | 14 | 55 | 16.1 | 32.2 | 0.00 | 0.08 | 0.08 | 40 | 1010.1 |
| 20260509191911 | 14 | 9 | 20.9 | 32.2 | 0.00 | 0.08 | 0.08 | 39 | 1010.1 |
| 20260509191815 | 15 | 31 | 24.1 | 32.2 | 0.00 | 0.08 | 0.08 | 37 | 1010.0 |
| 20260509191718 | 15 | 48 | 22.5 | 37.0 | 0.00 | 0.08 | 0.08 | 38 | 1010.1 |
| 20260509191642 | 15 | 11 | 20.9 | 37.0 | 0.00 | 0.08 | 0.08 | 37 | 1009.9 |
| 20260509191547 | 15 | 19 | 20.9 | 37.0 | 0.00 | 0.08 | 0.08 | 40 | 1010.1 |
| 20260509191413 | 15 | 30 | 19.3 | 38.6 | 0.00 | 0.08 | 0.08 | 40 | 1010.0 |
| 20260509191317 | 15 | 355 | 14.5 | 38.6 | 0.00 | 0.08 | 0.08 | 40 | 1009.9 |
| 20260509191220 | 14 | 355 | 14.5 | 38.6 | 0.00 | 0.08 | 0.08 | 43 | 1010.0 |
| 20260509191124 | 14 | 349 | 14.5 | 38.6 | 0.00 | 0.08 | 0.08 | 40 | 1010.0 |
| 20260509191028 | 14 | 26 | 19.3 | 38.6 | 0.00 | 0.08 | 0.08 | 41 | 1010.1 |
| 20260509190932 | 14 | 19 | 20.9 | 38.6 | 0.00 | 0.08 | 0.08 | 41 | 1009.9 |
| 20260509190808 | 14 | 14 | 20.9 | 38.6 | 0.00 | 0.08 | 0.08 | 40 | 1010.1 |
| 20260509190717 | 14 | 329 | 22.5 | 38.6 | 0.00 | 0.08 | 0.08 | 37 | 1010.1 |
| 20260509190620 | 14 | 51 | 22.5 | 38.6 | 0.00 | 0.08 | 0.08 | 37 | 1010.2 |
| 20260509190542 | 15 | 36 | 19.3 | 29.0 | 0.00 | 0.08 | 0.08 | 42 | 1010.1 |
| 20260509190407 | 15 | 22 | 16.1 | 29.0 | 0.00 | 0.08 | 0.08 | 43 | 1010.0 |
| 20260509190331 | 14 | 60 | 14.5 | 29.0 | 0.00 | 0.08 | 0.08 | 42 | 1009.9 |
| 20260509190215 | 14 | 348 | 14.5 | 29.0 | 0.00 | 0.08 | 0.08 | 41 | 1009.7 |
| 20260509190118 | 14 | 63 | 14.5 | 29.0 | 0.00 | 0.08 | 0.08 | 42 | 1009.7 |
| 20260509190046 | 14 | 37 | 12.9 | 29.0 | 0.00 | 0.08 | 0.08 | 39 | 1009.7 |
| 20260509185930 | 14 | 41 | 14.5 | 29.0 | 0.00 | 0.08 | 0.08 | 40 | 1009.9 |
| 20260509185806 | 14 | 360 | 17.7 | 29.0 | 0.00 | 0.08 | 0.08 | 39 | 1009.9 |
| 20260509185711 | 14 | 43 | 19.3 | 29.0 | 0.00 | 0.08 | 0.08 | 40 | 1010.0 |
| 20260509185614 | 14 | 42 | 17.7 | 29.0 | 0.00 | 0.08 | 0.08 | 41 | 1010.1 |
| 20260509185519 | 14 | 360 | 14.5 | 29.0 | 0.00 | 0.08 | 0.08 | 44 | 1010.0 |
| 20260509185442 | 14 | 12 | 11.3 | 27.4 | 0.00 | 0.08 | 0.08 | 42 | 1009.7 |
| 20260509185328 | 14 | 342 | 12.9 | 29.0 | 0.00 | 0.08 | 0.08 | 42 | 1009.7 |
| 20260509185212 | 14 | 304 | 12.9 | 29.0 | 0.00 | 0.08 | 0.08 | 44 | 1009.6 |
| 20260509185115 | 14 | 321 | 12.9 | 37.0 | 0.00 | 0.08 | 0.08 | 45 | 1009.6 |
| 20260509185019 | 14 | 355 | 9.7 | 38.6 | 0.00 | 0.08 | 0.08 | 43 | 1009.7 |
| 20260509184925 | 14 | 34 | 9.7 | 38.6 | 0.00 | 0.08 | 0.08 | 46 | 1009.8 |
| 20260509184826 | 14 | 336 | 14.5 | 38.6 | 0.00 | 0.08 | 0.08 | 44 | 1009.8 |
| 20260509184730 | 14 | 24 | 19.3 | 38.6 | 0.00 | 0.08 | 0.08 | 42 | 1009.8 |
| 20260509184616 | 14 | 28 | 19.3 | 38.6 | 0.00 | 0.08 | 0.08 | 41 | 1009.8 |
| 20260509184521 | 14 | 24 | 22.5 | 38.6 | 0.00 | 0.08 | 0.08 | 41 | 1010.0 |
| 20260509184424 | 14 | 22 | 25.7 | 38.6 | 0.00 | 0.08 | 0.08 | 41 | 1009.9 |
| 20260509184308 | 14 | 25 | 24.1 | 38.6 | 0.00 | 0.08 | 0.08 | 41 | 1009.9 |
| 20260509184234 | 14 | 350 | 22.5 | 38.6 | 0.00 | 0.08 | 0.08 | 43 | 1009.9 |
| 20260509184109 | 14 | 316 | 19.3 | 27.4 | 0.00 | 0.08 | 0.08 | 41 | 1009.4 |
| 20260509184017 | 14 | 334 | 19.3 | 27.4 | 0.00 | 0.08 | 0.08 | 42 | 1009.3 |
| 20260509183921 | 14 | 345 | 17.7 | 30.6 | 0.00 | 0.08 | 0.08 | 43 | 1009.4 |
| 20260509183846 | 14 | 355 | 17.7 | 30.6 | 0.00 | 0.08 | 0.08 | 42 | 1009.5 |
| 20260509183708 | 14 | 342 | 16.1 | 30.6 | 0.00 | 0.08 | 0.08 | 42 | 1009.5 |
| 20260509183612 | 14 | 315 | 16.1 | 30.6 | 0.00 | 0.08 | 0.08 | 43 | 1009.5 |
| 20260509183517 | 14 | 9 | 16.1 | 30.6 | 0.00 | 0.08 | 0.08 | 42 | 1009.5 |
| 20260509183442 | 14 | 22 | 16.1 | 30.6 | 0.00 | 0.08 | 0.08 | 43 | 1009.4 |
| 20260509183349 | 14 | 339 | 16.1 | 33.8 | 0.00 | 0.08 | 0.08 | 44 | 1009.5 |
| 20260509183252 | 14 | 38 | 17.7 | 33.8 | 0.00 | 0.08 | 0.08 | 44 | 1009.5 |
| 20260509183108 | 14 | 336 | 17.7 | 33.8 | 0.00 | 0.08 | 0.08 | 44 | 1009.5 |
| 20260509183033 | 13 | 360 | 19.3 | 33.8 | 0.00 | 0.08 | 0.08 | 45 | 1009.6 |
| 20260509182909 | 13 | 350 | 17.7 | 33.8 | 0.00 | 0.08 | 0.08 | 42 | 1009.4 |
| 20260509182833 | 13 | 41 | 17.7 | 33.8 | 0.00 | 0.08 | 0.08 | 41 | 1009.6 |
| 20260509182716 | 13 | 351 | 17.7 | 33.8 | 0.00 | 0.08 | 0.08 | 41 | 1009.4 |
| 20260509182640 | 14 | 344 | 17.7 | 33.8 | 0.00 | 0.08 | 0.08 | 41 | 1009.2 |
| 20260509182507 | 14 | 339 | 19.3 | 33.8 | 0.00 | 0.08 | 0.08 | 41 | 1009.2 |
| 20260509182411 | 14 | 360 | 17.7 | 33.8 | 0.00 | 0.08 | 0.08 | 41 | 1009.2 |
| 20260509182314 | 14 | 13 | 17.7 | 33.8 | 0.00 | 0.08 | 0.08 | 42 | 1009.3 |
| 20260509182239 | 14 | 360 | 20.9 | 33.8 | 0.00 | 0.08 | 0.08 | 43 | 1009.3 |
| 20260509182121 | 14 | 328 | 17.7 | 33.8 | 0.00 | 0.08 | 0.08 | 43 | 1009.3 |
| 20260509182026 | 14 | 317 | 14.5 | 33.8 | 0.00 | 0.08 | 0.08 | 46 | 1009.3 |
| 20260509181914 | 14 | 347 | 14.5 | 32.2 | 0.00 | 0.08 | 0.08 | 46 | 1009.4 |
| 20260509181839 | 14 | 330 | 14.5 | 32.2 | 0.00 | 0.08 | 0.08 | 46 | 1009.2 |
| 20260509181722 | 14 | 331 | 12.9 | 32.2 | 0.00 | 0.08 | 0.08 | 47 | 1009.3 |
| 20260509181626 | 14 | 345 | 14.5 | 32.2 | 0.00 | 0.08 | 0.08 | 44 | 1009.2 |
| 20260509181510 | 14 | 11 | 19.3 | 32.2 | 0.00 | 0.08 | 0.08 | 45 | 1009.4 |
| 20260509181414 | 14 | 335 | 20.9 | 32.2 | 0.00 | 0.08 | 0.08 | 43 | 1009.6 |
| 20260509181323 | 14 | 355 | 20.9 | 32.2 | 0.00 | 0.08 | 0.08 | 44 | 1009.4 |
| 20260509181208 | 14 | 330 | 19.3 | 30.6 | 0.00 | 0.08 | 0.08 | 44 | 1009.4 |
| 20260509181132 | 14 | 360 | 19.3 | 30.6 | 0.00 | 0.08 | 0.08 | 44 | 1009.4 |
| 20260509181010 | 14 | 360 | 20.9 | 30.6 | 0.00 | 0.08 | 0.08 | 43 | 1009.3 |
| 20260509180913 | 14 | 25 | 19.3 | 30.6 | 0.00 | 0.08 | 0.08 | 43 | 1009.2 |
| 20260509180818 | 14 | 5 | 19.3 | 29.0 | 0.00 | 0.08 | 0.08 | 44 | 1009.4 |
| 20260509180707 | 14 | 40 | 16.1 | 29.0 | 0.00 | 0.08 | 0.08 | 42 | 1009.3 |
| 20260509180631 | 14 | 25 | 14.5 | 29.0 | 0.00 | 0.08 | 0.08 | 43 | 1009.3 |
| 20260509180508 | 14 | 36 | 17.7 | 29.0 | 0.00 | 0.08 | 0.08 | 43 | 1009.4 |
| 20260509180432 | 14 | 20 | 17.7 | 29.0 | 0.00 | 0.08 | 0.08 | 43 | 1009.4 |
| 20260509180309 | 14 | 24 | 17.7 | 29.0 | 0.00 | 0.08 | 0.08 | 43 | 1009.4 |
| 20260509180213 | 14 | 5 | 20.9 | 29.0 | 0.00 | 0.08 | 0.08 | 43 | 1009.4 |
| 20260509180122 | 14 | 335 | 20.9 | 29.0 | 0.00 | 0.08 | 0.08 | 44 | 1009.4 |
| 20260509180006 | 14 | 5 | 16.1 | 29.0 | 0.00 | 0.08 | 0.08 | 46 | 1009.2 |
| 20260509175910 | 14 | 9 | 12.9 | 29.0 | 0.00 | 0.08 | 0.08 | 46 | 1009.2 |
| 20260509175814 | 14 | 355 | 12.9 | 30.6 | 0.00 | 0.08 | 0.08 | 46 | 1009.2 |
| 20260509175719 | 13 | 325 | 16.1 | 30.6 | 0.00 | 0.08 | 0.08 | 45 | 1009.3 |
| 20260509175622 | 13 | 11 | 16.1 | 30.6 | 0.00 | 0.08 | 0.08 | 45 | 1009.2 |
| 20260509175509 | 13 | 32 | 16.1 | 30.6 | 0.00 | 0.08 | 0.08 | 46 | 1009.1 |
| 20260509175413 | 13 | 350 | 17.7 | 30.6 | 0.00 | 0.08 | 0.08 | 46 | 1009.2 |
| 20260509175317 | 13 | 355 | 19.3 | 30.6 | 0.00 | 0.08 | 0.08 | 44 | 1009.2 |
| 20260509175221 | 13 | 325 | 19.3 | 30.6 | 0.00 | 0.08 | 0.08 | 44 | 1009.4 |
| 20260509175144 | 13 | 345 | 16.1 | 32.2 | 0.00 | 0.08 | 0.08 | 44 | 1009.2 |
| 20260509175028 | 13 | 348 | 16.1 | 32.2 | 0.00 | 0.08 | 0.08 | 45 | 1009.1 |
| 20260509174932 | 13 | 355 | 16.1 | 32.2 | 0.00 | 0.08 | 0.08 | 45 | 1009.2 |
| 20260509174820 | 13 | 20 | 16.1 | 32.2 | 0.00 | 0.08 | 0.08 | 45 | 1009.4 |
| 20260509174724 | 13 | 350 | 16.1 | 32.2 | 0.00 | 0.08 | 0.08 | 46 | 1009.2 |
| 20260509174628 | 13 | 29 | 14.5 | 32.2 | 0.00 | 0.08 | 0.08 | 47 | 1009.3 |
| 20260509174553 | 13 | 24 | 17.7 | 32.2 | 0.00 | 0.08 | 0.08 | 42 | 1009.3 |
| 20260509174409 | 13 | 31 | 19.3 | 32.2 | 0.00 | 0.08 | 0.08 | 42 | 1009.2 |
| 20260509174313 | 13 | 46 | 17.7 | 32.2 | 0.00 | 0.08 | 0.08 | 43 | 1009.4 |
| 20260509174217 | 13 | 60 | 17.7 | 32.2 | 0.00 | 0.08 | 0.08 | 45 | 1009.3 |
| 20260509174124 | 13 | 10 | 19.3 | 32.2 | 0.00 | 0.08 | 0.08 | 43 | 1009.2 |
| 20260509174009 | 13 | 61 | 19.3 | 35.4 | 0.00 | 0.08 | 0.08 | 44 | 1009.4 |
| 20260509173913 | 13 | 17 | 17.7 | 35.4 | 0.00 | 0.08 | 0.08 | 44 | 1009.3 |
| 20260509173817 | 13 | 54 | 17.7 | 35.4 | 0.00 | 0.08 | 0.08 | 45 | 1009.2 |
| 20260509173739 | 13 | 344 | 17.7 | 35.4 | 0.00 | 0.08 | 0.08 | 43 | 1009.4 |
| 20260509173621 | 13 | 44 | 19.3 | 35.4 | 0.00 | 0.08 | 0.08 | 42 | 1009.2 |
| 20260509173528 | 13 | 17 | 22.5 | 35.4 | 0.00 | 0.08 | 0.08 | 42 | 1009.2 |
| 20260509173432 | 13 | 13 | 22.5 | 35.4 | 0.00 | 0.08 | 0.08 | 45 | 1009.2 |
| 20260509173309 | 13 | 341 | 19.3 | 35.4 | 0.00 | 0.08 | 0.08 | 44 | 1009.0 |
| 20260509173213 | 13 | 355 | 17.7 | 35.4 | 0.00 | 0.08 | 0.08 | 45 | 1009.1 |
| 20260509173116 | 13 | 316 | 14.5 | 35.4 | 0.00 | 0.08 | 0.08 | 48 | 1009.0 |
| 20260509173019 | 13 | 304 | 14.5 | 30.6 | 0.00 | 0.08 | 0.08 | 50 | 1009.0 |
| 20260509172942 | 13 | 345 | 17.7 | 30.6 | 0.00 | 0.08 | 0.08 | 47 | 1009.2 |
| 20260509172808 | 13 | 15 | 16.1 | 30.6 | 0.00 | 0.08 | 0.08 | 48 | 1009.1 |
| 20260509172732 | 13 | 350 | 14.5 | 30.6 | 0.00 | 0.08 | 0.08 | 46 | 1009.0 |
| 20260509172607 | 13 | 336 | 17.7 | 30.6 | 0.00 | 0.08 | 0.08 | 48 | 1009.0 |
| 20260509172512 | 13 | 351 | 19.3 | 30.6 | 0.00 | 0.08 | 0.08 | 47 | 1009.1 |
| 20260509172434 | 13 | 341 | 17.7 | 30.6 | 0.00 | 0.08 | 0.08 | 50 | 1009.1 |
| 20260509172316 | 13 | 336 | 16.1 | 30.6 | 0.00 | 0.08 | 0.08 | 48 | 1009.0 |
| 20260509172221 | 13 | 355 | 19.3 | 30.6 | 0.00 | 0.08 | 0.08 | 49 | 1008.9 |
| 20260509172108 | 13 | 355 | 16.1 | 30.6 | 0.00 | 0.08 | 0.08 | 50 | 1009.2 |
| 20260509172010 | 13 | 5 | 12.9 | 27.4 | 0.00 | 0.08 | 0.08 | 48 | 1009.0 |
| 20260509171913 | 13 | 31 | 14.5 | 30.6 | 0.00 | 0.08 | 0.08 | 49 | 1009.1 |
| 20260509171816 | 13 | 41 | 17.7 | 30.6 | 0.00 | 0.08 | 0.08 | 49 | 1009.1 |
| 20260509171719 | 13 | 51 | 17.7 | 30.6 | 0.00 | 0.08 | 0.08 | 49 | 1009.0 |
| 20260509171623 | 13 | 24 | 16.1 | 30.6 | 0.00 | 0.08 | 0.08 | 50 | 1009.1 |
| 20260509171530 | 13 | 29 | 16.1 | 30.6 | 0.00 | 0.08 | 0.08 | 51 | 1009.1 |
| 20260509171432 | 13 | 41 | 16.1 | 30.6 | 0.00 | 0.08 | 0.08 | 48 | 1008.8 |
| 20260509171308 | 13 | 59 | 17.7 | 30.6 | 0.00 | 0.08 | 0.08 | 49 | 1009.0 |
| 20260509171211 | 13 | 355 | 19.3 | 30.6 | 0.00 | 0.08 | 0.08 | 48 | 1008.9 |
| 20260509171115 | 13 | 5 | 17.7 | 30.6 | 0.00 | 0.08 | 0.08 | 49 | 1008.9 |
| 20260509171017 | 13 | 38 | 17.7 | 33.8 | 0.00 | 0.08 | 0.08 | 47 | 1008.9 |
| 20260509170920 | 13 | 38 | 19.3 | 33.8 | 0.00 | 0.08 | 0.08 | 46 | 1009.0 |
| 20260509170807 | 13 | 46 | 19.3 | 33.8 | 0.00 | 0.08 | 0.08 | 48 | 1009.1 |
| 20260509170710 | 13 | 59 | 19.3 | 33.8 | 0.00 | 0.08 | 0.08 | 49 | 1008.8 |
| 20260509170614 | 13 | 29 | 19.3 | 33.8 | 0.00 | 0.08 | 0.08 | 50 | 1008.9 |
| 20260509170517 | 13 | 360 | 16.1 | 33.8 | 0.00 | 0.08 | 0.08 | 49 | 1008.8 |
| 20260509170442 | 13 | 360 | 16.1 | 33.8 | 0.00 | 0.08 | 0.08 | 48 | 1008.8 |
| 20260509170324 | 13 | 5 | 17.7 | 33.8 | 0.00 | 0.08 | 0.08 | 49 | 1008.9 |
| 20260509170212 | 13 | 336 | 17.7 | 33.8 | 0.00 | 0.08 | 0.08 | 50 | 1009.0 |
| 20260509170117 | 12 | 349 | 16.1 | 33.8 | 0.00 | 0.08 | 0.08 | 51 | 1009.1 |
| 20260509170020 | 12 | 20 | 14.5 | 32.2 | 0.00 | 0.08 | 0.08 | 50 | 1008.8 |
| 20260509165923 | 12 | 360 | 16.1 | 32.2 | 0.00 | 0.08 | 0.08 | 50 | 1008.8 |
| 20260509165808 | 12 | 5 | 19.3 | 32.2 | 0.00 | 0.08 | 0.08 | 48 | 1008.8 |
| 20260509165712 | 12 | 313 | 20.9 | 32.2 | 0.00 | 0.08 | 0.08 | 49 | 1008.9 |
| 20260509165620 | 12 | 346 | 19.3 | 32.2 | 0.00 | 0.08 | 0.08 | 49 | 1008.8 |
| 20260509165545 | 12 | 16 | 12.9 | 27.4 | 0.00 | 0.08 | 0.08 | 51 | 1008.8 |
| 20260509165408 | 12 | 5 | 9.7 | 27.4 | 0.00 | 0.08 | 0.08 | 50 | 1008.8 |
| 20260509165312 | 12 | 5 | 12.9 | 27.4 | 0.00 | 0.08 | 0.08 | 49 | 1008.8 |
| 20260509165236 | 12 | 26 | 16.1 | 27.4 | 0.00 | 0.08 | 0.08 | 49 | 1008.7 |
| 20260509165120 | 12 | 347 | 16.1 | 27.4 | 0.00 | 0.08 | 0.08 | 49 | 1008.8 |
| 20260509165044 | 12 | 314 | 17.7 | 27.4 | 0.00 | 0.08 | 0.08 | 50 | 1008.9 |
| 20260509164946 | 12 | 41 | 17.7 | 27.4 | 0.00 | 0.08 | 0.08 | 49 | 1008.9 |
| 20260509164851 | 12 | 5 | 17.7 | 29.0 | 0.00 | 0.08 | 0.08 | 48 | 1008.8 |
| 20260509164707 | 13 | 344 | 12.9 | 29.0 | 0.00 | 0.08 | 0.08 | 50 | 1008.8 |
| 20260509164612 | 13 | 10 | 12.9 | 29.0 | 0.00 | 0.08 | 0.08 | 50 | 1008.7 |
| 20260509164516 | 13 | 45 | 16.1 | 29.0 | 0.00 | 0.08 | 0.08 | 50 | 1008.8 |
| 20260509164419 | 13 | 55 | 16.1 | 29.0 | 0.00 | 0.08 | 0.08 | 49 | 1008.8 |
| 20260509164324 | 13 | 28 | 16.1 | 29.0 | 0.00 | 0.08 | 0.08 | 50 | 1008.8 |
| 20260509164232 | 13 | 350 | 19.3 | 29.0 | 0.00 | 0.08 | 0.08 | 51 | 1008.8 |
| 20260509164109 | 13 | 22 | 20.9 | 30.6 | 0.00 | 0.08 | 0.08 | 50 | 1008.7 |
| 20260509164013 | 13 | 77 | 20.9 | 30.6 | 0.00 | 0.08 | 0.08 | 49 | 1008.7 |
| 20260509163916 | 13 | 37 | 19.3 | 30.6 | 0.00 | 0.08 | 0.08 | 50 | 1008.8 |
| 20260509163821 | 13 | 45 | 17.7 | 30.6 | 0.00 | 0.08 | 0.08 | 51 | 1008.7 |
| 20260509163725 | 13 | 40 | 16.1 | 30.6 | 0.00 | 0.08 | 0.08 | 52 | 1008.8 |
| 20260509163632 | 13 | 5 | 12.9 | 30.6 | 0.00 | 0.08 | 0.08 | 51 | 1008.7 |
| 20260509163508 | 13 | 360 | 17.7 | 37.0 | 0.00 | 0.08 | 0.08 | 51 | 1008.7 |
| 20260509163413 | 12 | 338 | 17.7 | 37.0 | 0.00 | 0.08 | 0.08 | 50 | 1008.6 |
| 20260509163317 | 12 | 355 | 14.5 | 37.0 | 0.00 | 0.08 | 0.08 | 53 | 1008.7 |
| 20260509163240 | 12 | 355 | 12.9 | 37.0 | 0.00 | 0.08 | 0.08 | 53 | 1008.8 |
| 20260509163121 | 12 | 19 | 16.1 | 37.0 | 0.00 | 0.08 | 0.08 | 51 | 1008.7 |
| 20260509163045 | 12 | 346 | 19.3 | 37.0 | 0.00 | 0.08 | 0.08 | 50 | 1008.7 |
| 20260509162932 | 12 | 349 | 19.3 | 37.0 | 0.00 | 0.08 | 0.08 | 51 | 1008.7 |
| 20260509162809 | 12 | 18 | 20.9 | 37.0 | 0.00 | 0.08 | 0.08 | 49 | 1008.7 |
| 20260509162711 | 12 | 360 | 20.9 | 37.0 | 0.00 | 0.08 | 0.08 | 50 | 1008.6 |
| 20260509162614 | 12 | 36 | 20.9 | 37.0 | 0.00 | 0.08 | 0.08 | 50 | 1008.7 |
| 20260509162517 | 12 | 26 | 19.3 | 37.0 | 0.00 | 0.08 | 0.08 | 49 | 1008.6 |
| 20260509162420 | 12 | 22 | 19.3 | 37.0 | 0.00 | 0.08 | 0.08 | 51 | 1008.6 |
| 20260509162327 | 12 | 22 | 19.3 | 37.0 | 0.00 | 0.08 | 0.08 | 50 | 1008.7 |
| 20260509162230 | 12 | 15 | 19.3 | 37.0 | 0.00 | 0.08 | 0.08 | 51 | 1008.7 |
| 20260509162107 | 12 | 5 | 19.3 | 37.0 | 0.00 | 0.08 | 0.08 | 51 | 1008.7 |
| 20260509162032 | 12 | 25 | 20.9 | 37.0 | 0.00 | 0.08 | 0.08 | 51 | 1008.5 |
| 20260509161935 | 12 | 24 | 24.1 | 37.0 | 0.00 | 0.08 | 0.08 | 49 | 1008.6 |
| 20260509161839 | 12 | 344 | 25.7 | 37.0 | 0.00 | 0.08 | 0.08 | 48 | 1008.6 |
| 20260509161722 | 12 | 14 | 25.7 | 37.0 | 0.00 | 0.08 | 0.08 | 49 | 1008.6 |
| 20260509161606 | 12 | 351 | 24.1 | 37.0 | 0.00 | 0.08 | 0.08 | 49 | 1008.6 |
| 20260509161515 | 12 | 46 | 22.5 | 37.0 | 0.00 | 0.08 | 0.08 | 49 | 1008.5 |
| 20260509161438 | 12 | 24 | 17.7 | 37.0 | 0.00 | 0.08 | 0.08 | 51 | 1008.6 |
| 20260509161319 | 12 | 36 | 14.5 | 37.0 | 0.00 | 0.08 | 0.08 | 56 | 1008.5 |
| 20260509161242 | 12 | 18 | 14.5 | 37.0 | 0.00 | 0.08 | 0.08 | 53 | 1008.5 |
| 20260509161106 | 12 | 36 | 16.1 | 37.0 | 0.00 | 0.08 | 0.08 | 54 | 1008.5 |
| 20260509161033 | 12 | 22 | 16.1 | 37.0 | 0.00 | 0.08 | 0.08 | 55 | 1008.5 |
| 20260509160908 | 12 | 360 | 14.5 | 33.8 | 0.00 | 0.08 | 0.08 | 54 | 1008.4 |
| 20260509160817 | 12 | 21 | 16.1 | 33.8 | 0.00 | 0.08 | 0.08 | 53 | 1008.4 |
| 20260509160741 | 12 | 44 | 17.7 | 33.8 | 0.00 | 0.08 | 0.08 | 52 | 1008.4 |
| 20260509160625 | 12 | 355 | 20.9 | 33.8 | 0.00 | 0.08 | 0.08 | 53 | 1008.6 |
| 20260509160509 | 12 | 42 | 16.1 | 33.8 | 0.00 | 0.08 | 0.08 | 53 | 1008.6 |
| 20260509160433 | 12 | 24 | 17.7 | 33.8 | 0.00 | 0.08 | 0.08 | 55 | 1008.3 |
| 20260509160337 | 12 | 5 | 22.5 | 33.8 | 0.00 | 0.08 | 0.08 | 53 | 1008.4 |
| 20260509160239 | 12 | 348 | 20.9 | 33.8 | 0.00 | 0.08 | 0.08 | 54 | 1008.4 |
| 20260509160123 | 12 | 331 | 19.3 | 33.8 | 0.00 | 0.08 | 0.08 | 55 | 1008.4 |
| 20260509160031 | 12 | 16 | 19.3 | 33.8 | 0.00 | 0.08 | 0.08 | 54 | 1008.4 |
| 20260509155908 | 12 | 350 | 24.1 | 33.8 | 0.00 | 0.08 | 0.08 | 53 | 1008.3 |
| 20260509155831 | 12 | 360 | 24.1 | 33.8 | 0.00 | 0.08 | 0.08 | 54 | 1008.3 |
| 20260509155707 | 12 | 13 | 24.1 | 33.8 | 0.00 | 0.08 | 0.08 | 55 | 1008.4 |
| 20260509155612 | 12 | 5 | 22.5 | 33.8 | 0.00 | 0.08 | 0.08 | 56 | 1008.3 |
| 20260509155517 | 11 | 344 | 16.1 | 33.8 | 0.00 | 0.08 | 0.08 | 56 | 1008.4 |
| 20260509155425 | 11 | 9 | 17.7 | 33.8 | 0.00 | 0.08 | 0.08 | 55 | 1008.4 |
| 20260509155329 | 12 | 342 | 22.5 | 33.8 | 0.00 | 0.08 | 0.08 | 54 | 1008.4 |
| 20260509155207 | 12 | 355 | 19.3 | 33.8 | 0.00 | 0.08 | 0.08 | 56 | 1008.3 |
| 20260509155112 | 12 | 355 | 19.3 | 33.8 | 0.00 | 0.08 | 0.08 | 56 | 1008.3 |
| 20260509155036 | 12 | 344 | 20.9 | 33.8 | 0.00 | 0.08 | 0.08 | 56 | 1008.2 |
| 20260509154918 | 12 | 360 | 22.5 | 33.8 | 0.00 | 0.08 | 0.08 | 56 | 1008.2 |
| 20260509154842 | 12 | 338 | 22.5 | 30.6 | 0.00 | 0.08 | 0.08 | 56 | 1008.2 |
| 20260509154730 | 12 | 349 | 19.3 | 30.6 | 0.00 | 0.08 | 0.08 | 58 | 1008.2 |
| 20260509154607 | 12 | 344 | 16.1 | 25.7 | 0.00 | 0.08 | 0.08 | 58 | 1008.1 |
| 20260509154531 | 12 | 360 | 16.1 | 29.0 | 0.00 | 0.08 | 0.08 | 60 | 1008.1 |
| 20260509154409 | 12 | 5 | 12.9 | 29.0 | 0.00 | 0.08 | 0.08 | 61 | 1008.1 |
| 20260509154333 | 12 | 42 | 12.9 | 29.0 | 0.00 | 0.08 | 0.08 | 61 | 1008.2 |
| 20260509154217 | 12 | 32 | 12.9 | 29.0 | 0.00 | 0.08 | 0.08 | 60 | 1008.2 |
| 20260509154121 | 12 | 19 | 11.3 | 29.0 | 0.00 | 0.08 | 0.08 | 59 | 1008.1 |
| 20260509154050 | 12 | 12 | 14.5 | 30.6 | 0.00 | 0.08 | 0.08 | 59 | 1008.1 |
| 20260509153907 | 12 | 13 | 19.3 | 30.6 | 0.00 | 0.08 | 0.08 | 59 | 1008.2 |
| 20260509153831 | 12 | 360 | 19.3 | 30.6 | 0.00 | 0.08 | 0.08 | 59 | 1008.1 |
| 20260509153708 | 12 | 9 | 16.1 | 30.6 | 0.00 | 0.08 | 0.08 | 59 | 1008.1 |
| 20260509153613 | 12 | 28 | 16.1 | 30.6 | 0.00 | 0.08 | 0.08 | 59 | 1008.1 |
| 20260509153537 | 12 | 26 | 17.7 | 30.6 | 0.00 | 0.08 | 0.08 | 57 | 1008.0 |
| 20260509153421 | 12 | 333 | 19.3 | 30.6 | 0.00 | 0.08 | 0.08 | 59 | 1008.0 |
| 20260509153309 | 12 | 12 | 22.5 | 30.6 | 0.00 | 0.08 | 0.08 | 58 | 1008.2 |
| 20260509153213 | 12 | 23 | 20.9 | 30.6 | 0.00 | 0.08 | 0.08 | 58 | 1007.9 |
| 20260509153118 | 12 | 348 | 17.7 | 30.6 | 0.00 | 0.08 | 0.08 | 58 | 1007.9 |
| 20260509153042 | 12 | 11 | 14.5 | 30.6 | 0.00 | 0.08 | 0.08 | 59 | 1007.9 |
| 20260509152924 | 12 | 19 | 14.5 | 30.6 | 0.00 | 0.08 | 0.08 | 60 | 1007.9 |
| 20260509152808 | 12 | 11 | 16.1 | 30.6 | 0.00 | 0.08 | 0.08 | 59 | 1007.9 |
| 20260509152716 | 12 | 338 | 16.1 | 30.6 | 0.00 | 0.08 | 0.08 | 58 | 1007.9 |
| 20260509152620 | 12 | 325 | 16.1 | 27.4 | 0.00 | 0.08 | 0.08 | 59 | 1007.8 |
| 20260509152525 | 12 | 337 | 14.5 | 27.4 | 0.00 | 0.08 | 0.08 | 60 | 1007.9 |
| 20260509152409 | 12 | 333 | 12.9 | 27.4 | 0.00 | 0.08 | 0.08 | 61 | 1007.8 |
| 20260509152312 | 12 | 329 | 12.9 | 27.4 | 0.00 | 0.08 | 0.08 | 62 | 1007.7 |
| 20260509152216 | 12 | 330 | 16.1 | 27.4 | 0.00 | 0.08 | 0.08 | 62 | 1007.8 |
| 20260509152145 | 12 | 10 | 14.5 | 27.4 | 0.00 | 0.08 | 0.08 | 61 | 1007.7 |
| 20260509152028 | 12 | 61 | 16.1 | 27.4 | 0.00 | 0.08 | 0.08 | 62 | 1007.7 |
| 20260509151953 | 12 | 348 | 16.1 | 25.7 | 0.00 | 0.08 | 0.08 | 62 | 1007.8 |
| 20260509151809 | 12 | 360 | 17.7 | 25.7 | 0.00 | 0.08 | 0.08 | 62 | 1007.8 |
| 20260509151733 | 12 | 47 | 14.5 | 25.7 | 0.00 | 0.08 | 0.08 | 64 | 1007.8 |
| 20260509151617 | 12 | 330 | 11.3 | 25.7 | 0.00 | 0.08 | 0.08 | 64 | 1007.7 |
| 20260509151520 | 12 | 18 | 14.5 | 25.7 | 0.00 | 0.08 | 0.08 | 63 | 1007.7 |
| 20260509151428 | 12 | 347 | 17.7 | 25.7 | 0.00 | 0.08 | 0.08 | 64 | 1007.7 |
| 20260509151331 | 12 | 343 | 16.1 | 25.7 | 0.00 | 0.08 | 0.08 | 62 | 1007.7 |
| 20260509151209 | 12 | 36 | 16.1 | 25.7 | 0.00 | 0.08 | 0.08 | 62 | 1007.7 |
| 20260509151112 | 12 | 29 | 17.7 | 25.7 | 0.00 | 0.08 | 0.08 | 62 | 1007.6 |
| 20260509151016 | 12 | 66 | 16.1 | 25.7 | 0.00 | 0.08 | 0.08 | 62 | 1007.5 |
| 20260509150921 | 12 | 29 | 16.1 | 25.7 | 0.00 | 0.08 | 0.08 | 62 | 1007.6 |
| 20260509150845 | 12 | 355 | 17.7 | 25.7 | 0.00 | 0.08 | 0.08 | 61 | 1007.6 |
| 20260509150731 | 12 | 360 | 19.3 | 25.7 | 0.00 | 0.08 | 0.08 | 61 | 1007.6 |
| 20260509150609 | 12 | 331 | 17.7 | 25.7 | 0.00 | 0.08 | 0.08 | 63 | 1007.5 |
| 20260509150511 | 12 | 351 | 16.1 | 25.7 | 0.00 | 0.08 | 0.08 | 63 | 1007.5 |
| 20260509150415 | 12 | 350 | 14.5 | 25.7 | 0.00 | 0.08 | 0.08 | 62 | 1007.5 |
| 20260509150318 | 12 | 34 | 16.1 | 25.7 | 0.00 | 0.08 | 0.08 | 63 | 1007.4 |
| 20260509150222 | 12 | 10 | 16.1 | 25.7 | 0.00 | 0.08 | 0.08 | 63 | 1007.4 |
| 20260509150130 | 12 | 10 | 14.5 | 25.7 | 0.00 | 0.08 | 0.08 | 63 | 1007.4 |
| 20260509150013 | 12 | 12 | 14.5 | 25.7 | 0.00 | 0.08 | 0.08 | 64 | 1007.4 |
| 20260509145937 | 12 | 342 | 12.9 | 25.7 | 0.00 | 0.08 | 0.08 | 65 | 1007.4 |
| 20260509145839 | 12 | 329 | 14.5 | 25.7 | 0.00 | 0.08 | 0.08 | 65 | 1007.4 |
| 20260509145723 | 12 | 355 | 14.5 | 27.4 | 0.00 | 0.08 | 0.08 | 67 | 1007.4 |
| 20260509145608 | 11 | 23 | 12.9 | 27.4 | 0.00 | 0.08 | 0.08 | 68 | 1007.4 |
| 20260509145512 | 11 | 350 | 14.5 | 27.4 | 0.00 | 0.08 | 0.08 | 67 | 1007.3 |
| 20260509145420 | 11 | 10 | 16.1 | 27.4 | 0.00 | 0.08 | 0.08 | 67 | 1007.4 |
| 20260509145325 | 11 | 355 | 16.1 | 27.4 | 0.00 | 0.08 | 0.08 | 67 | 1007.4 |
| 20260509145208 | 11 | 51 | 16.1 | 27.4 | 0.00 | 0.08 | 0.08 | 66 | 1007.3 |
| 20260509145111 | 11 | 23 | 17.7 | 27.4 | 0.00 | 0.08 | 0.08 | 66 | 1007.4 |
| 20260509145014 | 12 | 36 | 19.3 | 27.4 | 0.00 | 0.08 | 0.08 | 66 | 1007.4 |
| 20260509144918 | 12 | 30 | 16.1 | 27.4 | 0.00 | 0.08 | 0.08 | 67 | 1007.4 |
| 20260509144826 | 12 | 348 | 12.9 | 24.1 | 0.00 | 0.08 | 0.08 | 68 | 1007.3 |
| 20260509144710 | 12 | 5 | 14.5 | 24.1 | 0.00 | 0.08 | 0.08 | 68 | 1007.2 |
| 20260509144614 | 12 | 355 | 16.1 | 24.1 | 0.00 | 0.08 | 0.08 | 67 | 1007.3 |
| 20260509144537 | 12 | 29 | 14.5 | 22.5 | 0.00 | 0.08 | 0.08 | 67 | 1007.3 |
| 20260509144419 | 12 | 355 | 14.5 | 22.5 | 0.00 | 0.08 | 0.08 | 70 | 1007.3 |
| 20260509144323 | 12 | 5 | 11.3 | 19.3 | 0.00 | 0.08 | 0.08 | 69 | 1007.3 |
| 20260509144211 | 11 | 360 | 9.7 | 20.9 | 0.00 | 0.08 | 0.08 | 70 | 1007.3 |
| 20260509144115 | 11 | 46 | 9.7 | 20.9 | 0.00 | 0.08 | 0.08 | 70 | 1007.2 |
| 20260509144018 | 11 | 36 | 11.3 | 20.9 | 0.00 | 0.08 | 0.08 | 70 | 1007.2 |
| 20260509143922 | 11 | 44 | 11.3 | 22.5 | 0.00 | 0.08 | 0.08 | 71 | 1007.3 |
| 20260509143826 | 11 | 26 | 8.0 | 22.5 | 0.00 | 0.08 | 0.08 | 71 | 1007.3 |
| 20260509143709 | 11 | 40 | 11.3 | 22.5 | 0.00 | 0.08 | 0.08 | 70 | 1007.3 |
| 20260509143634 | 11 | 355 | 12.9 | 22.5 | 0.00 | 0.08 | 0.08 | 69 | 1007.2 |
| 20260509143521 | 11 | 5 | 14.5 | 22.5 | 0.00 | 0.08 | 0.08 | 69 | 1007.3 |
| 20260509143426 | 11 | 53 | 12.9 | 22.5 | 0.00 | 0.08 | 0.08 | 70 | 1007.3 |
| 20260509143310 | 11 | 65 | 12.9 | 22.5 | 0.00 | 0.08 | 0.08 | 69 | 1007.3 |
| 20260509143214 | 11 | 21 | 14.5 | 25.7 | 0.00 | 0.08 | 0.08 | 70 | 1007.2 |
| 20260509143117 | 11 | 5 | 14.5 | 25.7 | 0.00 | 0.08 | 0.08 | 70 | 1007.2 |
| 20260509143021 | 11 | 346 | 14.5 | 25.7 | 0.00 | 0.08 | 0.08 | 71 | 1007.1 |
| 20260509142949 | 11 | 24 | 14.5 | 25.7 | 0.00 | 0.08 | 0.08 | 71 | 1007.1 |
| 20260509142911 | 11 | 331 | 14.5 | 25.7 | 0.00 | 0.08 | 0.08 | 71 | 1007.1 |
| 20260509142815 | 11 | 5 | 14.5 | 25.7 | 0.00 | 0.08 | 0.08 | 71 | 1007.1 |
| 20260509142529 | 11 | 360 | 11.3 | 25.7 | 0.00 | 0.08 | 0.08 | 71 | 1007.1 |
| 20260509142412 | 11 | 15 | 12.9 | 25.7 | 0.00 | 0.08 | 0.08 | 71 | 1007.1 |
| 20260509142316 | 11 | 25 | 11.3 | 24.1 | 0.00 | 0.08 | 0.08 | 72 | 1007.1 |
| 20260509142219 | 11 | 37 | 12.9 | 24.1 | 0.00 | 0.08 | 0.08 | 72 | 1007.1 |
| 20260509142127 | 11 | 360 | 16.1 | 24.1 | 0.00 | 0.08 | 0.08 | 72 | 1007.1 |
| 20260509142029 | 11 | 5 | 14.5 | 24.1 | 0.00 | 0.08 | 0.08 | 73 | 1007.1 |
| 20260509141911 | 11 | 355 | 12.9 | 24.1 | 0.00 | 0.08 | 0.08 | 73 | 1007.0 |
| 20260509141814 | 11 | 360 | 12.9 | 24.1 | 0.00 | 0.08 | 0.08 | 73 | 1007.0 |
| 20260509141717 | 11 | 345 | 14.5 | 24.1 | 0.00 | 0.08 | 0.08 | 73 | 1007.0 |
| 20260509141620 | 11 | 22 | 14.5 | 24.1 | 0.00 | 0.08 | 0.08 | 72 | 1007.0 |
| 20260509141523 | 11 | 5 | 12.9 | 22.5 | 0.00 | 0.08 | 0.08 | 73 | 1007.0 |
| 20260509141431 | 11 | 12 | 12.9 | 22.5 | 0.00 | 0.08 | 0.08 | 73 | 1006.9 |
| 20260509141306 | 11 | 360 | 16.1 | 22.5 | 0.00 | 0.08 | 0.08 | 73 | 1007.0 |
| 20260509141208 | 11 | 9 | 17.7 | 25.7 | 0.00 | 0.08 | 0.08 | 73 | 1007.0 |
| 20260509141111 | 11 | 15 | 16.1 | 25.7 | 0.00 | 0.08 | 0.08 | 73 | 1007.0 |
| 20260509141013 | 11 | 355 | 16.1 | 25.7 | 0.00 | 0.08 | 0.08 | 73 | 1007.0 |
| 20260509140937 | 11 | 351 | 14.5 | 25.7 | 0.00 | 0.08 | 0.08 | 74 | 1006.9 |
| 20260509140820 | 11 | 12 | 14.5 | 25.7 | 0.00 | 0.08 | 0.08 | 74 | 1006.9 |
| 20260509140706 | 11 | 31 | 14.5 | 25.7 | 0.00 | 0.08 | 0.08 | 74 | 1006.9 |
| 20260509140609 | 11 | 24 | 14.5 | 25.7 | 0.00 | 0.08 | 0.08 | 75 | 1007.0 |
| 20260509140533 | 11 | 319 | 14.5 | 25.7 | 0.00 | 0.08 | 0.08 | 75 | 1007.0 |
| 20260509140408 | 11 | 23 | 16.1 | 27.4 | 0.00 | 0.08 | 0.08 | 75 | 1006.9 |
| 20260509140311 | 10 | 5 | 16.1 | 27.4 | 0.00 | 0.08 | 0.08 | 77 | 1006.8 |
| 20260509140215 | 10 | 333 | 14.5 | 27.4 | 0.00 | 0.08 | 0.08 | 76 | 1006.8 |
| 20260509140142 | 10 | 5 | 12.9 | 27.4 | 0.00 | 0.08 | 0.08 | 76 | 1006.8 |
| 20260509140023 | 10 | 42 | 11.3 | 27.4 | 0.00 | 0.08 | 0.08 | 77 | 1006.9 |
| 20260509135926 | 10 | 14 | 11.3 | 27.4 | 0.00 | 0.08 | 0.08 | 77 | 1006.8 |
| 20260509135829 | 10 | 27 | 11.3 | 27.4 | 0.00 | 0.08 | 0.08 | 76 | 1006.8 |
| 20260509135710 | 10 | 360 | 14.5 | 27.4 | 0.00 | 0.08 | 0.08 | 75 | 1006.9 |
| 20260509135613 | 10 | 33 | 17.7 | 27.4 | 0.00 | 0.08 | 0.08 | 76 | 1006.9 |
| 20260509135536 | 10 | 26 | 14.5 | 24.1 | 0.00 | 0.08 | 0.08 | 77 | 1006.9 |
| 20260509135422 | 10 | 346 | 12.9 | 24.1 | 0.00 | 0.08 | 0.08 | 77 | 1006.9 |
| 20260509135326 | 10 | 9 | 14.5 | 24.1 | 0.00 | 0.08 | 0.08 | 76 | 1006.8 |
| 20260509135209 | 10 | 355 | 16.1 | 24.1 | 0.00 | 0.08 | 0.08 | 77 | 1006.9 |
| 20260509135132 | 10 | 342 | 14.5 | 24.1 | 0.00 | 0.08 | 0.08 | 77 | 1006.8 |
| 20260509135008 | 10 | 16 | 12.9 | 24.1 | 0.00 | 0.08 | 0.08 | 76 | 1006.8 |
| 20260509134931 | 10 | 348 | 12.9 | 24.1 | 0.00 | 0.08 | 0.08 | 77 | 1006.8 |
| 20260509134834 | 10 | 31 | 12.9 | 24.1 | 0.00 | 0.08 | 0.08 | 77 | 1006.8 |
| 20260509134720 | 10 | 18 | 11.3 | 24.1 | 0.00 | 0.08 | 0.08 | 79 | 1006.7 |
| 20260509134624 | 10 | 44 | 11.3 | 24.1 | 0.00 | 0.08 | 0.08 | 79 | 1006.8 |
| 20260509134526 | 10 | 346 | 11.3 | 25.7 | 0.00 | 0.08 | 0.08 | 79 | 1006.8 |
| 20260509134430 | 10 | 37 | 12.9 | 25.7 | 0.00 | 0.08 | 0.08 | 80 | 1006.8 |
| 20260509134312 | 10 | 355 | 14.5 | 25.7 | 0.00 | 0.08 | 0.08 | 79 | 1006.8 |
| 20260509134215 | 10 | 11 | 14.5 | 25.7 | 0.00 | 0.08 | 0.08 | 80 | 1006.7 |
| 20260509134117 | 10 | 344 | 12.9 | 25.7 | 0.00 | 0.08 | 0.08 | 80 | 1006.7 |
| 20260509134025 | 10 | 67 | 12.9 | 25.7 | 0.00 | 0.08 | 0.08 | 80 | 1006.7 |
| 20260509133929 | 10 | 49 | 16.1 | 25.7 | 0.00 | 0.08 | 0.08 | 80 | 1006.8 |
| 20260509133811 | 10 | 16 | 14.5 | 25.7 | 0.00 | 0.08 | 0.08 | 80 | 1006.7 |
| 20260509133713 | 10 | 355 | 12.9 | 25.7 | 0.00 | 0.08 | 0.08 | 82 | 1006.8 |
| 20260509133617 | 10 | 19 | 11.3 | 22.5 | 0.00 | 0.08 | 0.08 | 82 | 1006.8 |
| 20260509133541 | 10 | 30 | 9.7 | 22.5 | 0.00 | 0.08 | 0.08 | 82 | 1006.7 |
| 20260509133444 | 10 | 16 | 11.3 | 22.5 | 0.00 | 0.08 | 0.08 | 82 | 1006.6 |
| 20260509133330 | 10 | 42 | 11.3 | 22.5 | 0.00 | 0.08 | 0.08 | 83 | 1006.6 |
| 20260509133207 | 10 | 338 | 12.9 | 22.5 | 0.00 | 0.08 | 0.08 | 82 | 1006.5 |
| 20260509133110 | 10 | 25 | 12.9 | 22.5 | 0.00 | 0.08 | 0.08 | 83 | 1006.5 |
| 20260509133013 | 10 | 347 | 9.7 | 22.5 | 0.00 | 0.08 | 0.08 | 83 | 1006.5 |
| 20260509132916 | 10 | 5 | 9.7 | 22.5 | 0.00 | 0.08 | 0.08 | 83 | 1006.7 |
| 20260509132819 | 10 | 46 | 14.5 | 22.5 | 0.00 | 0.08 | 0.08 | 83 | 1006.6 |
| 20260509132742 | 10 | 46 | 14.5 | 22.5 | 0.00 | 0.08 | 0.08 | 84 | 1006.5 |
| 20260509132608 | 10 | 16 | 12.9 | 22.5 | 0.00 | 0.08 | 0.08 | 84 | 1006.5 |
| 20260509132509 | 10 | 19 | 11.3 | 22.5 | 0.00 | 0.08 | 0.08 | 84 | 1006.5 |
| 20260509132433 | 10 | 48 | 12.9 | 22.5 | 0.00 | 0.08 | 0.08 | 84 | 1006.5 |
| 20260509132310 | 10 | 344 | 11.3 | 22.5 | 0.00 | 0.08 | 0.08 | 85 | 1006.4 |
| 20260509132214 | 10 | 30 | 11.3 | 22.5 | 0.00 | 0.08 | 0.08 | 85 | 1006.4 |
| 20260509132139 | 10 | 13 | 11.3 | 22.5 | 0.00 | 0.08 | 0.08 | 86 | 1006.4 |
| 20260509132021 | 10 | 30 | 12.9 | 22.5 | 0.00 | 0.08 | 0.08 | 86 | 1006.4 |
| 20260509131909 | 10 | 5 | 11.3 | 22.5 | 0.00 | 0.08 | 0.08 | 86 | 1006.4 |
| 20260509131833 | 10 | 30 | 11.3 | 19.3 | 0.00 | 0.08 | 0.08 | 86 | 1006.4 |
| 20260509131709 | 10 | 24 | 11.3 | 19.3 | 0.00 | 0.08 | 0.08 | 86 | 1006.3 |
| 20260509131613 | 10 | 39 | 11.3 | 19.3 | 0.00 | 0.08 | 0.08 | 86 | 1006.3 |
| 20260509131515 | 10 | 30 | 11.3 | 19.3 | 0.00 | 0.08 | 0.08 | 87 | 1006.3 |
| 20260509131419 | 9 | 14 | 11.3 | 19.3 | 0.00 | 0.08 | 0.08 | 87 | 1006.3 |
| 20260509131326 | 9 | 5 | 11.3 | 19.3 | 0.00 | 0.08 | 0.08 | 87 | 1006.3 |
| 20260509131251 | 9 | 61 | 11.3 | 19.3 | 0.00 | 0.08 | 0.08 | 87 | 1006.2 |
| 20260509131154 | 9 | 360 | 11.3 | 17.7 | 0.00 | 0.08 | 0.08 | 87 | 1006.1 |
| 20260509131010 | 9 | 5 | 9.7 | 16.1 | 0.00 | 0.08 | 0.08 | 87 | 1006.2 |
| 20260509130915 | 9 | 44 | 9.7 | 16.1 | 0.00 | 0.08 | 0.08 | 87 | 1006.2 |
| 20260509130819 | 9 | 5 | 11.3 | 16.1 | 0.00 | 0.08 | 0.08 | 88 | 1006.2 |
| 20260509130742 | 9 | 17 | 9.7 | 16.1 | 0.00 | 0.08 | 0.08 | 88 | 1006.2 |
| 20260509130629 | 9 | 5 | 11.3 | 16.1 | 0.00 | 0.08 | 0.08 | 89 | 1006.2 |
| 20260509130507 | 9 | 349 | 9.7 | 17.7 | 0.00 | 0.08 | 0.08 | 89 | 1006.1 |
| 20260509130411 | 9 | 5 | 6.4 | 17.7 | 0.00 | 0.08 | 0.08 | 89 | 1006.1 |